<?xml version="1.0" encoding="UTF-8" standalone="no" ?>
<gpx xmlns="http://www.topografix.com/GPX/1/1" xmlns:xsi="http://www.w3.org/2001/XMLSchema-instance" xsi:schemaLocation="http://www.topografix.com/GPX/1/1 http://www.topografix.com/GPX/1/1/gpx.xsd" version="1.1" creator="VisuGPX - https://www.visugpx.com">
  <metadata>
    <name>grp 220kms</name>
    <desc><![CDATA[parcours grp 220kms 2017. merci et en avant]]></desc>
  </metadata>
  <trk>
    <name><![CDATA[OR-6642499--Vielle-Aure:GRP Ultra Tour 2017]]></name>
    <trkseg>
      <trkpt lat="42.82985" lon="0.32715">
        <ele>794</ele>
        <time>2016-12-08T13:54:28Z</time>
      </trkpt>
      <trkpt lat="42.82963" lon="0.32845">
        <ele>793</ele>
        <time>2016-12-08T13:56:28Z</time>
      </trkpt>
      <trkpt lat="42.8292" lon="0.32881">
        <ele>794</ele>
        <time>2016-12-08T13:58:28Z</time>
      </trkpt>
      <trkpt lat="42.8267" lon="0.32806">
        <ele>799</ele>
        <time>2016-12-08T14:00:28Z</time>
      </trkpt>
      <trkpt lat="42.82395" lon="0.32495">
        <ele>805</ele>
        <time>2016-12-08T14:02:28Z</time>
      </trkpt>
      <trkpt lat="42.82331" lon="0.32389">
        <ele>807</ele>
        <time>2016-12-08T14:04:28Z</time>
      </trkpt>
      <trkpt lat="42.82478" lon="0.32074">
        <ele>807</ele>
        <time>2016-12-08T14:06:28Z</time>
      </trkpt>
      <trkpt lat="42.82561" lon="0.31859">
        <ele>817</ele>
        <time>2016-12-08T14:08:28Z</time>
      </trkpt>
      <trkpt lat="42.82575" lon="0.31792">
        <ele>821</ele>
        <time>2016-12-08T14:10:28Z</time>
      </trkpt>
      <trkpt lat="42.82482" lon="0.31718">
        <ele>820</ele>
        <time>2016-12-08T14:12:28Z</time>
      </trkpt>
      <trkpt lat="42.82362" lon="0.31615">
        <ele>823</ele>
        <time>2016-12-08T14:14:28Z</time>
      </trkpt>
      <trkpt lat="42.8234" lon="0.31508">
        <ele>831</ele>
        <time>2016-12-08T14:16:28Z</time>
      </trkpt>
      <trkpt lat="42.82371" lon="0.31396">
        <ele>861</ele>
        <time>2016-12-08T14:18:28Z</time>
      </trkpt>
      <trkpt lat="42.82624" lon="0.31377">
        <ele>884</ele>
        <time>2016-12-08T14:20:28Z</time>
      </trkpt>
      <trkpt lat="42.82454" lon="0.31278">
        <ele>898</ele>
        <time>2016-12-08T14:22:28Z</time>
      </trkpt>
      <trkpt lat="42.82625" lon="0.31249">
        <ele>941</ele>
        <time>2016-12-08T14:24:28Z</time>
      </trkpt>
      <trkpt lat="42.82743" lon="0.31182">
        <ele>942</ele>
        <time>2016-12-08T14:26:28Z</time>
      </trkpt>
      <trkpt lat="42.82661" lon="0.31156">
        <ele>968</ele>
        <time>2016-12-08T14:28:28Z</time>
      </trkpt>
      <trkpt lat="42.82552" lon="0.31175">
        <ele>953</ele>
        <time>2016-12-08T14:30:28Z</time>
      </trkpt>
      <trkpt lat="42.82687" lon="0.311">
        <ele>974</ele>
        <time>2016-12-08T14:32:28Z</time>
      </trkpt>
      <trkpt lat="42.82735" lon="0.3098">
        <ele>1003</ele>
        <time>2016-12-08T14:34:28Z</time>
      </trkpt>
      <trkpt lat="42.82672" lon="0.31057">
        <ele>992</ele>
        <time>2016-12-08T14:36:28Z</time>
      </trkpt>
      <trkpt lat="42.82609" lon="0.31078">
        <ele>1006</ele>
        <time>2016-12-08T14:38:28Z</time>
      </trkpt>
      <trkpt lat="42.82682" lon="0.30984">
        <ele>1012</ele>
        <time>2016-12-08T14:40:28Z</time>
      </trkpt>
      <trkpt lat="42.82742" lon="0.30846">
        <ele>1031</ele>
        <time>2016-12-08T14:42:28Z</time>
      </trkpt>
      <trkpt lat="42.82779" lon="0.30696">
        <ele>1047</ele>
        <time>2016-12-08T14:44:28Z</time>
      </trkpt>
      <trkpt lat="42.82807" lon="0.30523">
        <ele>1073</ele>
        <time>2016-12-08T14:46:28Z</time>
      </trkpt>
      <trkpt lat="42.82713" lon="0.30667">
        <ele>1081</ele>
        <time>2016-12-08T14:48:28Z</time>
      </trkpt>
      <trkpt lat="42.82554" lon="0.30773">
        <ele>1092</ele>
        <time>2016-12-08T14:50:28Z</time>
      </trkpt>
      <trkpt lat="42.82644" lon="0.30647">
        <ele>1129</ele>
        <time>2016-12-08T14:52:28Z</time>
      </trkpt>
      <trkpt lat="42.8257" lon="0.30707">
        <ele>1120</ele>
        <time>2016-12-08T14:54:28Z</time>
      </trkpt>
      <trkpt lat="42.82639" lon="0.30555">
        <ele>1156</ele>
        <time>2016-12-08T14:56:28Z</time>
      </trkpt>
      <trkpt lat="42.82575" lon="0.30627">
        <ele>1150</ele>
        <time>2016-12-08T14:58:28Z</time>
      </trkpt>
      <trkpt lat="42.82521" lon="0.30605">
        <ele>1153</ele>
        <time>2016-12-08T15:00:28Z</time>
      </trkpt>
      <trkpt lat="42.82569" lon="0.30591">
        <ele>1158</ele>
        <time>2016-12-08T15:02:28Z</time>
      </trkpt>
      <trkpt lat="42.82406" lon="0.30418">
        <ele>1186</ele>
        <time>2016-12-08T15:04:28Z</time>
      </trkpt>
      <trkpt lat="42.82398" lon="0.3024">
        <ele>1218</ele>
        <time>2016-12-08T15:06:28Z</time>
      </trkpt>
      <trkpt lat="42.82371" lon="0.30023">
        <ele>1245</ele>
        <time>2016-12-08T15:08:28Z</time>
      </trkpt>
      <trkpt lat="42.82437" lon="0.29879">
        <ele>1260</ele>
        <time>2016-12-08T15:10:28Z</time>
      </trkpt>
      <trkpt lat="42.82443" lon="0.29686">
        <ele>1282</ele>
        <time>2016-12-08T15:12:28Z</time>
      </trkpt>
      <trkpt lat="42.82426" lon="0.29475">
        <ele>1303</ele>
        <time>2016-12-08T15:14:28Z</time>
      </trkpt>
      <trkpt lat="42.82404" lon="0.2962">
        <ele>1301</ele>
        <time>2016-12-08T15:16:28Z</time>
      </trkpt>
      <trkpt lat="42.8239" lon="0.29547">
        <ele>1310</ele>
        <time>2016-12-08T15:18:28Z</time>
      </trkpt>
      <trkpt lat="42.82349" lon="0.29463">
        <ele>1323</ele>
        <time>2016-12-08T15:20:28Z</time>
      </trkpt>
      <trkpt lat="42.82285" lon="0.29475">
        <ele>1353</ele>
        <time>2016-12-08T15:22:28Z</time>
      </trkpt>
      <trkpt lat="42.82215" lon="0.29562">
        <ele>1376</ele>
        <time>2016-12-08T15:24:28Z</time>
      </trkpt>
      <trkpt lat="42.82157" lon="0.29566">
        <ele>1396</ele>
        <time>2016-12-08T15:26:28Z</time>
      </trkpt>
      <trkpt lat="42.82056" lon="0.29441">
        <ele>1436</ele>
        <time>2016-12-08T15:28:28Z</time>
      </trkpt>
      <trkpt lat="42.81971" lon="0.29139">
        <ele>1500</ele>
        <time>2016-12-08T15:30:28Z</time>
      </trkpt>
      <trkpt lat="42.81945" lon="0.29023">
        <ele>1511</ele>
        <time>2016-12-08T15:32:28Z</time>
      </trkpt>
      <trkpt lat="42.81923" lon="0.2912">
        <ele>1507</ele>
        <time>2016-12-08T15:34:28Z</time>
      </trkpt>
      <trkpt lat="42.81918" lon="0.28975">
        <ele>1521</ele>
        <time>2016-12-08T15:36:28Z</time>
      </trkpt>
      <trkpt lat="42.81838" lon="0.29133">
        <ele>1527</ele>
        <time>2016-12-08T15:38:28Z</time>
      </trkpt>
      <trkpt lat="42.81784" lon="0.2914">
        <ele>1540</ele>
        <time>2016-12-08T15:40:28Z</time>
      </trkpt>
      <trkpt lat="42.81864" lon="0.28971">
        <ele>1551</ele>
        <time>2016-12-08T15:42:28Z</time>
      </trkpt>
      <trkpt lat="42.81873" lon="0.28857">
        <ele>1564</ele>
        <time>2016-12-08T15:44:28Z</time>
      </trkpt>
      <trkpt lat="42.81826" lon="0.28957">
        <ele>1573</ele>
        <time>2016-12-08T15:46:28Z</time>
      </trkpt>
      <trkpt lat="42.81759" lon="0.28987">
        <ele>1575</ele>
        <time>2016-12-08T15:48:28Z</time>
      </trkpt>
      <trkpt lat="42.81715" lon="0.28949">
        <ele>1591</ele>
        <time>2016-12-08T15:50:28Z</time>
      </trkpt>
      <trkpt lat="42.81799" lon="0.28907">
        <ele>1589</ele>
        <time>2016-12-08T15:52:28Z</time>
      </trkpt>
      <trkpt lat="42.81811" lon="0.28723">
        <ele>1608</ele>
        <time>2016-12-08T15:54:28Z</time>
      </trkpt>
      <trkpt lat="42.81768" lon="0.28783">
        <ele>1605</ele>
        <time>2016-12-08T15:56:28Z</time>
      </trkpt>
      <trkpt lat="42.81788" lon="0.28653">
        <ele>1629</ele>
        <time>2016-12-08T15:58:28Z</time>
      </trkpt>
      <trkpt lat="42.81851" lon="0.28602">
        <ele>1617</ele>
        <time>2016-12-08T16:00:28Z</time>
      </trkpt>
      <trkpt lat="42.81915" lon="0.28393">
        <ele>1665</ele>
        <time>2016-12-08T16:02:28Z</time>
      </trkpt>
      <trkpt lat="42.81918" lon="0.28204">
        <ele>1670</ele>
        <time>2016-12-08T16:04:28Z</time>
      </trkpt>
      <trkpt lat="42.81963" lon="0.2809">
        <ele>1688</ele>
        <time>2016-12-08T16:06:28Z</time>
      </trkpt>
      <trkpt lat="42.81894" lon="0.27822">
        <ele>1767</ele>
        <time>2016-12-08T16:08:28Z</time>
      </trkpt>
      <trkpt lat="42.81889" lon="0.27761">
        <ele>1772</ele>
        <time>2016-12-08T16:10:28Z</time>
      </trkpt>
      <trkpt lat="42.81889" lon="0.27714">
        <ele>1784</ele>
        <time>2016-12-08T16:12:28Z</time>
      </trkpt>
      <trkpt lat="42.81874" lon="0.27616">
        <ele>1801</ele>
        <time>2016-12-08T16:14:28Z</time>
      </trkpt>
      <trkpt lat="42.81886" lon="0.27535">
        <ele>1816</ele>
        <time>2016-12-08T16:16:28Z</time>
      </trkpt>
      <trkpt lat="42.8193" lon="0.27472">
        <ele>1826</ele>
        <time>2016-12-08T16:18:28Z</time>
      </trkpt>
      <trkpt lat="42.82024" lon="0.27446">
        <ele>1823</ele>
        <time>2016-12-08T16:20:28Z</time>
      </trkpt>
      <trkpt lat="42.82044" lon="0.27388">
        <ele>1836</ele>
        <time>2016-12-08T16:22:28Z</time>
      </trkpt>
      <trkpt lat="42.82059" lon="0.27297">
        <ele>1847</ele>
        <time>2016-12-08T16:24:28Z</time>
      </trkpt>
      <trkpt lat="42.82045" lon="0.27107">
        <ele>1849</ele>
        <time>2016-12-08T16:26:28Z</time>
      </trkpt>
      <trkpt lat="42.82042" lon="0.26985">
        <ele>1848</ele>
        <time>2016-12-08T16:28:28Z</time>
      </trkpt>
      <trkpt lat="42.82038" lon="0.26945">
        <ele>1850</ele>
        <time>2016-12-08T16:30:28Z</time>
      </trkpt>
      <trkpt lat="42.82028" lon="0.26888">
        <ele>1852</ele>
        <time>2016-12-08T16:32:28Z</time>
      </trkpt>
      <trkpt lat="42.81954" lon="0.2674">
        <ele>1877</ele>
        <time>2016-12-08T16:34:28Z</time>
      </trkpt>
      <trkpt lat="42.81953" lon="0.26568">
        <ele>1893</ele>
        <time>2016-12-08T16:36:28Z</time>
      </trkpt>
      <trkpt lat="42.82007" lon="0.26351">
        <ele>1901</ele>
        <time>2016-12-08T16:38:28Z</time>
      </trkpt>
      <trkpt lat="42.82083" lon="0.26297">
        <ele>1898</ele>
        <time>2016-12-08T16:40:28Z</time>
      </trkpt>
      <trkpt lat="42.82099" lon="0.26245">
        <ele>1880</ele>
        <time>2016-12-08T16:42:28Z</time>
      </trkpt>
      <trkpt lat="42.82097" lon="0.26193">
        <ele>1873</ele>
        <time>2016-12-08T16:44:28Z</time>
      </trkpt>
      <trkpt lat="42.82094" lon="0.26161">
        <ele>1876</ele>
        <time>2016-12-08T16:46:28Z</time>
      </trkpt>
      <trkpt lat="42.82085" lon="0.26121">
        <ele>1865</ele>
        <time>2016-12-08T16:48:28Z</time>
      </trkpt>
      <trkpt lat="42.82091" lon="0.26084">
        <ele>1872</ele>
        <time>2016-12-08T16:50:28Z</time>
      </trkpt>
      <trkpt lat="42.82071" lon="0.26024">
        <ele>1897</ele>
        <time>2016-12-08T16:52:28Z</time>
      </trkpt>
      <trkpt lat="42.82074" lon="0.25959">
        <ele>1891</ele>
        <time>2016-12-08T16:54:28Z</time>
      </trkpt>
      <trkpt lat="42.8206" lon="0.259">
        <ele>1885</ele>
        <time>2016-12-08T16:56:28Z</time>
      </trkpt>
      <trkpt lat="42.82113" lon="0.25764">
        <ele>1854</ele>
        <time>2016-12-08T16:58:28Z</time>
      </trkpt>
      <trkpt lat="42.82138" lon="0.25695">
        <ele>1856</ele>
        <time>2016-12-08T17:00:28Z</time>
      </trkpt>
      <trkpt lat="42.82138" lon="0.25569">
        <ele>1867</ele>
        <time>2016-12-08T17:02:28Z</time>
      </trkpt>
      <trkpt lat="42.82172" lon="0.25515">
        <ele>1840</ele>
        <time>2016-12-08T17:04:28Z</time>
      </trkpt>
      <trkpt lat="42.82203" lon="0.25464">
        <ele>1839</ele>
        <time>2016-12-08T17:06:28Z</time>
      </trkpt>
      <trkpt lat="42.82216" lon="0.25406">
        <ele>1853</ele>
        <time>2016-12-08T17:08:28Z</time>
      </trkpt>
      <trkpt lat="42.82277" lon="0.25342">
        <ele>1827</ele>
        <time>2016-12-08T17:10:28Z</time>
      </trkpt>
      <trkpt lat="42.82366" lon="0.2527">
        <ele>1818</ele>
        <time>2016-12-08T17:12:28Z</time>
      </trkpt>
      <trkpt lat="42.82499" lon="0.25155">
        <ele>1816</ele>
        <time>2016-12-08T17:14:28Z</time>
      </trkpt>
      <trkpt lat="42.82549" lon="0.24909">
        <ele>1846</ele>
        <time>2016-12-08T17:16:28Z</time>
      </trkpt>
      <trkpt lat="42.8257" lon="0.24842">
        <ele>1855</ele>
        <time>2016-12-08T17:18:28Z</time>
      </trkpt>
      <trkpt lat="42.82712" lon="0.24908">
        <ele>1859</ele>
        <time>2016-12-08T17:20:28Z</time>
      </trkpt>
      <trkpt lat="42.82835" lon="0.24932">
        <ele>1864</ele>
        <time>2016-12-08T17:22:28Z</time>
      </trkpt>
      <trkpt lat="42.8293" lon="0.24823">
        <ele>1897</ele>
        <time>2016-12-08T17:24:28Z</time>
      </trkpt>
      <trkpt lat="42.83021" lon="0.24703">
        <ele>1929</ele>
        <time>2016-12-08T17:26:28Z</time>
      </trkpt>
      <trkpt lat="42.83194" lon="0.2468">
        <ele>1942</ele>
        <time>2016-12-08T17:28:28Z</time>
      </trkpt>
      <trkpt lat="42.8328" lon="0.245">
        <ele>1973</ele>
        <time>2016-12-08T17:30:28Z</time>
      </trkpt>
      <trkpt lat="42.83318" lon="0.24392">
        <ele>1998</ele>
        <time>2016-12-08T17:32:28Z</time>
      </trkpt>
      <trkpt lat="42.83378" lon="0.2416">
        <ele>2060</ele>
        <time>2016-12-08T17:34:28Z</time>
      </trkpt>
      <trkpt lat="42.83343" lon="0.24074">
        <ele>2076</ele>
        <time>2016-12-08T17:36:28Z</time>
      </trkpt>
      <trkpt lat="42.83271" lon="0.24009">
        <ele>2102</ele>
        <time>2016-12-08T17:38:28Z</time>
      </trkpt>
      <trkpt lat="42.83381" lon="0.23899">
        <ele>2134</ele>
        <time>2016-12-08T17:40:28Z</time>
      </trkpt>
      <trkpt lat="42.83459" lon="0.2373">
        <ele>2187</ele>
        <time>2016-12-08T17:42:28Z</time>
      </trkpt>
      <trkpt lat="42.83308" lon="0.23616">
        <ele>2217</ele>
        <time>2016-12-08T17:44:28Z</time>
      </trkpt>
      <trkpt lat="42.83067" lon="0.23195">
        <ele>2174</ele>
        <time>2016-12-08T17:46:28Z</time>
      </trkpt>
      <trkpt lat="42.82919" lon="0.22854">
        <ele>2125</ele>
        <time>2016-12-08T17:48:28Z</time>
      </trkpt>
      <trkpt lat="42.8285" lon="0.22534">
        <ele>2079</ele>
        <time>2016-12-08T17:50:28Z</time>
      </trkpt>
      <trkpt lat="42.82835" lon="0.2208">
        <ele>2041</ele>
        <time>2016-12-08T17:52:28Z</time>
      </trkpt>
      <trkpt lat="42.82863" lon="0.21893">
        <ele>2045</ele>
        <time>2016-12-08T17:54:28Z</time>
      </trkpt>
      <trkpt lat="42.82919" lon="0.21603">
        <ele>2084</ele>
        <time>2016-12-08T17:56:28Z</time>
      </trkpt>
      <trkpt lat="42.82932" lon="0.21429">
        <ele>2090</ele>
        <time>2016-12-08T17:58:28Z</time>
      </trkpt>
      <trkpt lat="42.82978" lon="0.21377">
        <ele>2090</ele>
        <time>2016-12-08T18:00:28Z</time>
      </trkpt>
      <trkpt lat="42.83024" lon="0.21393">
        <ele>2113</ele>
        <time>2016-12-08T18:02:28Z</time>
      </trkpt>
      <trkpt lat="42.83031" lon="0.21281">
        <ele>2108</ele>
        <time>2016-12-08T18:04:28Z</time>
      </trkpt>
      <trkpt lat="42.83159" lon="0.21086">
        <ele>2137</ele>
        <time>2016-12-08T18:06:28Z</time>
      </trkpt>
      <trkpt lat="42.83234" lon="0.20997">
        <ele>2126</ele>
        <time>2016-12-08T18:08:28Z</time>
      </trkpt>
      <trkpt lat="42.83363" lon="0.20962">
        <ele>2136</ele>
        <time>2016-12-08T18:10:28Z</time>
      </trkpt>
      <trkpt lat="42.83564" lon="0.20863">
        <ele>2121</ele>
        <time>2016-12-08T18:12:28Z</time>
      </trkpt>
      <trkpt lat="42.83725" lon="0.20845">
        <ele>2127</ele>
        <time>2016-12-08T18:14:28Z</time>
      </trkpt>
      <trkpt lat="42.8381" lon="0.20824">
        <ele>2130</ele>
        <time>2016-12-08T18:16:28Z</time>
      </trkpt>
      <trkpt lat="42.83873" lon="0.20834">
        <ele>2154</ele>
        <time>2016-12-08T18:18:28Z</time>
      </trkpt>
      <trkpt lat="42.83993" lon="0.2078">
        <ele>2136</ele>
        <time>2016-12-08T18:20:28Z</time>
      </trkpt>
      <trkpt lat="42.84075" lon="0.20832">
        <ele>2131</ele>
        <time>2016-12-08T18:22:28Z</time>
      </trkpt>
      <trkpt lat="42.84198" lon="0.20907">
        <ele>2133</ele>
        <time>2016-12-08T18:24:28Z</time>
      </trkpt>
      <trkpt lat="42.8422" lon="0.20906">
        <ele>2132</ele>
        <time>2016-12-08T18:26:28Z</time>
      </trkpt>
      <trkpt lat="42.84389" lon="0.21028">
        <ele>2170</ele>
        <time>2016-12-08T18:28:28Z</time>
      </trkpt>
      <trkpt lat="42.8446" lon="0.21007">
        <ele>2175</ele>
        <time>2016-12-08T18:30:28Z</time>
      </trkpt>
      <trkpt lat="42.84635" lon="0.2119">
        <ele>2196</ele>
        <time>2016-12-08T18:32:28Z</time>
      </trkpt>
      <trkpt lat="42.84663" lon="0.2125">
        <ele>2200</ele>
        <time>2016-12-08T18:34:28Z</time>
      </trkpt>
      <trkpt lat="42.84758" lon="0.21277">
        <ele>2211</ele>
        <time>2016-12-08T18:36:28Z</time>
      </trkpt>
      <trkpt lat="42.8482" lon="0.21345">
        <ele>2221</ele>
        <time>2016-12-08T18:38:28Z</time>
      </trkpt>
      <trkpt lat="42.84893" lon="0.21272">
        <ele>2221</ele>
        <time>2016-12-08T18:40:28Z</time>
      </trkpt>
      <trkpt lat="42.84984" lon="0.21257">
        <ele>2231</ele>
        <time>2016-12-08T18:42:28Z</time>
      </trkpt>
      <trkpt lat="42.85069" lon="0.21199">
        <ele>2228</ele>
        <time>2016-12-08T18:44:28Z</time>
      </trkpt>
      <trkpt lat="42.85122" lon="0.21197">
        <ele>2236</ele>
        <time>2016-12-08T18:46:28Z</time>
      </trkpt>
      <trkpt lat="42.85242" lon="0.21125">
        <ele>2235</ele>
        <time>2016-12-08T18:48:28Z</time>
      </trkpt>
      <trkpt lat="42.853" lon="0.21086">
        <ele>2252</ele>
        <time>2016-12-08T18:50:28Z</time>
      </trkpt>
      <trkpt lat="42.85356" lon="0.20974">
        <ele>2246</ele>
        <time>2016-12-08T18:52:28Z</time>
      </trkpt>
      <trkpt lat="42.85482" lon="0.20994">
        <ele>2258</ele>
        <time>2016-12-08T18:54:28Z</time>
      </trkpt>
      <trkpt lat="42.85562" lon="0.20942">
        <ele>2262</ele>
        <time>2016-12-08T18:56:28Z</time>
      </trkpt>
      <trkpt lat="42.85596" lon="0.20849">
        <ele>2272</ele>
        <time>2016-12-08T18:58:28Z</time>
      </trkpt>
      <trkpt lat="42.85597" lon="0.20757">
        <ele>2284</ele>
        <time>2016-12-08T19:00:28Z</time>
      </trkpt>
      <trkpt lat="42.85672" lon="0.20719">
        <ele>2298</ele>
        <time>2016-12-08T19:02:28Z</time>
      </trkpt>
      <trkpt lat="42.85804" lon="0.20741">
        <ele>2312</ele>
        <time>2016-12-08T19:04:28Z</time>
      </trkpt>
      <trkpt lat="42.85913" lon="0.20751">
        <ele>2320</ele>
        <time>2016-12-08T19:06:28Z</time>
      </trkpt>
      <trkpt lat="42.85999" lon="0.20677">
        <ele>2332</ele>
        <time>2016-12-08T19:08:28Z</time>
      </trkpt>
      <trkpt lat="42.86103" lon="0.20708">
        <ele>2368</ele>
        <time>2016-12-08T19:10:28Z</time>
      </trkpt>
      <trkpt lat="42.86134" lon="0.20665">
        <ele>2374</ele>
        <time>2016-12-08T19:12:28Z</time>
      </trkpt>
      <trkpt lat="42.86285" lon="0.20721">
        <ele>2401</ele>
        <time>2016-12-08T19:14:28Z</time>
      </trkpt>
      <trkpt lat="42.86375" lon="0.20699">
        <ele>2411</ele>
        <time>2016-12-08T19:16:28Z</time>
      </trkpt>
      <trkpt lat="42.86485" lon="0.20698">
        <ele>2419</ele>
        <time>2016-12-08T19:18:28Z</time>
      </trkpt>
      <trkpt lat="42.86517" lon="0.2066">
        <ele>2427</ele>
        <time>2016-12-08T19:20:28Z</time>
      </trkpt>
      <trkpt lat="42.86569" lon="0.20659">
        <ele>2437</ele>
        <time>2016-12-08T19:22:28Z</time>
      </trkpt>
      <trkpt lat="42.86589" lon="0.20672">
        <ele>2449</ele>
        <time>2016-12-08T19:24:28Z</time>
      </trkpt>
      <trkpt lat="42.86628" lon="0.20701">
        <ele>2475</ele>
        <time>2016-12-08T19:26:28Z</time>
      </trkpt>
      <trkpt lat="42.86688" lon="0.20658">
        <ele>2483</ele>
        <time>2016-12-08T19:28:28Z</time>
      </trkpt>
      <trkpt lat="42.86688" lon="0.2064">
        <ele>2483</ele>
        <time>2016-12-08T19:30:28Z</time>
      </trkpt>
      <trkpt lat="42.86724" lon="0.20625">
        <ele>2485</ele>
        <time>2016-12-08T19:32:28Z</time>
      </trkpt>
      <trkpt lat="42.86732" lon="0.20697">
        <ele>2496</ele>
        <time>2016-12-08T19:34:28Z</time>
      </trkpt>
      <trkpt lat="42.86871" lon="0.20715">
        <ele>2441</ele>
        <time>2016-12-08T19:36:28Z</time>
      </trkpt>
      <trkpt lat="42.87007" lon="0.20645">
        <ele>2412</ele>
        <time>2016-12-08T19:38:28Z</time>
      </trkpt>
      <trkpt lat="42.87099" lon="0.20531">
        <ele>2411</ele>
        <time>2016-12-08T19:40:28Z</time>
      </trkpt>
      <trkpt lat="42.87139" lon="0.20509">
        <ele>2412</ele>
        <time>2016-12-08T19:42:28Z</time>
      </trkpt>
      <trkpt lat="42.87189" lon="0.20522">
        <ele>2409</ele>
        <time>2016-12-08T19:44:28Z</time>
      </trkpt>
      <trkpt lat="42.87231" lon="0.20484">
        <ele>2417</ele>
        <time>2016-12-08T19:46:28Z</time>
      </trkpt>
      <trkpt lat="42.87273" lon="0.20467">
        <ele>2406</ele>
        <time>2016-12-08T19:48:28Z</time>
      </trkpt>
      <trkpt lat="42.87363" lon="0.20546">
        <ele>2374</ele>
        <time>2016-12-08T19:50:28Z</time>
      </trkpt>
      <trkpt lat="42.87412" lon="0.20544">
        <ele>2370</ele>
        <time>2016-12-08T19:52:28Z</time>
      </trkpt>
      <trkpt lat="42.87462" lon="0.20573">
        <ele>2354</ele>
        <time>2016-12-08T19:54:28Z</time>
      </trkpt>
      <trkpt lat="42.87551" lon="0.20524">
        <ele>2344</ele>
        <time>2016-12-08T19:56:28Z</time>
      </trkpt>
      <trkpt lat="42.87633" lon="0.20591">
        <ele>2336</ele>
        <time>2016-12-08T19:58:28Z</time>
      </trkpt>
      <trkpt lat="42.87722" lon="0.20533">
        <ele>2316</ele>
        <time>2016-12-08T20:00:28Z</time>
      </trkpt>
      <trkpt lat="42.87762" lon="0.20472">
        <ele>2295</ele>
        <time>2016-12-08T20:02:28Z</time>
      </trkpt>
      <trkpt lat="42.87843" lon="0.20443">
        <ele>2272</ele>
        <time>2016-12-08T20:04:28Z</time>
      </trkpt>
      <trkpt lat="42.87865" lon="0.2039">
        <ele>2267</ele>
        <time>2016-12-08T20:06:28Z</time>
      </trkpt>
      <trkpt lat="42.87908" lon="0.20398">
        <ele>2259</ele>
        <time>2016-12-08T20:08:28Z</time>
      </trkpt>
      <trkpt lat="42.87961" lon="0.20457">
        <ele>2237</ele>
        <time>2016-12-08T20:10:28Z</time>
      </trkpt>
      <trkpt lat="42.87978" lon="0.20539">
        <ele>2241</ele>
        <time>2016-12-08T20:12:28Z</time>
      </trkpt>
      <trkpt lat="42.88068" lon="0.20575">
        <ele>2224</ele>
        <time>2016-12-08T20:14:28Z</time>
      </trkpt>
      <trkpt lat="42.88112" lon="0.20595">
        <ele>2219</ele>
        <time>2016-12-08T20:16:28Z</time>
      </trkpt>
      <trkpt lat="42.88154" lon="0.20559">
        <ele>2217</ele>
        <time>2016-12-08T20:18:28Z</time>
      </trkpt>
      <trkpt lat="42.88201" lon="0.20543">
        <ele>2209</ele>
        <time>2016-12-08T20:20:28Z</time>
      </trkpt>
      <trkpt lat="42.88285" lon="0.20509">
        <ele>2193</ele>
        <time>2016-12-08T20:22:28Z</time>
      </trkpt>
      <trkpt lat="42.88379" lon="0.20502">
        <ele>2165</ele>
        <time>2016-12-08T20:24:28Z</time>
      </trkpt>
      <trkpt lat="42.88416" lon="0.2043">
        <ele>2183</ele>
        <time>2016-12-08T20:26:28Z</time>
      </trkpt>
      <trkpt lat="42.88459" lon="0.20444">
        <ele>2164</ele>
        <time>2016-12-08T20:28:28Z</time>
      </trkpt>
      <trkpt lat="42.88441" lon="0.20473">
        <ele>2162</ele>
        <time>2016-12-08T20:30:28Z</time>
      </trkpt>
      <trkpt lat="42.88479" lon="0.20487">
        <ele>2153</ele>
        <time>2016-12-08T20:32:28Z</time>
      </trkpt>
      <trkpt lat="42.88466" lon="0.20519">
        <ele>2140</ele>
        <time>2016-12-08T20:34:28Z</time>
      </trkpt>
      <trkpt lat="42.88546" lon="0.20622">
        <ele>2126</ele>
        <time>2016-12-08T20:36:28Z</time>
      </trkpt>
      <trkpt lat="42.8858" lon="0.20642">
        <ele>2130</ele>
        <time>2016-12-08T20:38:28Z</time>
      </trkpt>
      <trkpt lat="42.8867" lon="0.2055">
        <ele>2132</ele>
        <time>2016-12-08T20:40:28Z</time>
      </trkpt>
      <trkpt lat="42.8875" lon="0.20516">
        <ele>2128</ele>
        <time>2016-12-08T20:42:28Z</time>
      </trkpt>
      <trkpt lat="42.88884" lon="0.20517">
        <ele>2142</ele>
        <time>2016-12-08T20:44:28Z</time>
      </trkpt>
      <trkpt lat="42.88889" lon="0.20487">
        <ele>2131</ele>
        <time>2016-12-08T20:46:28Z</time>
      </trkpt>
      <trkpt lat="42.88978" lon="0.20331">
        <ele>2136</ele>
        <time>2016-12-08T20:48:28Z</time>
      </trkpt>
      <trkpt lat="42.89098" lon="0.20143">
        <ele>2138</ele>
        <time>2016-12-08T20:50:28Z</time>
      </trkpt>
      <trkpt lat="42.89139" lon="0.20071">
        <ele>2128</ele>
        <time>2016-12-08T20:52:28Z</time>
      </trkpt>
      <trkpt lat="42.89196" lon="0.20094">
        <ele>2134</ele>
        <time>2016-12-08T20:54:28Z</time>
      </trkpt>
      <trkpt lat="42.89217" lon="0.20062">
        <ele>2129</ele>
        <time>2016-12-08T20:56:28Z</time>
      </trkpt>
      <trkpt lat="42.89169" lon="0.20009">
        <ele>2127</ele>
        <time>2016-12-08T20:58:28Z</time>
      </trkpt>
      <trkpt lat="42.89183" lon="0.19917">
        <ele>2112</ele>
        <time>2016-12-08T21:00:28Z</time>
      </trkpt>
      <trkpt lat="42.89222" lon="0.19839">
        <ele>2095</ele>
        <time>2016-12-08T21:02:28Z</time>
      </trkpt>
      <trkpt lat="42.8925" lon="0.19807">
        <ele>2093</ele>
        <time>2016-12-08T21:04:28Z</time>
      </trkpt>
      <trkpt lat="42.89263" lon="0.19783">
        <ele>2082</ele>
        <time>2016-12-08T21:06:28Z</time>
      </trkpt>
      <trkpt lat="42.89283" lon="0.19767">
        <ele>2081</ele>
        <time>2016-12-08T21:08:28Z</time>
      </trkpt>
      <trkpt lat="42.89292" lon="0.19739">
        <ele>2088</ele>
        <time>2016-12-08T21:10:28Z</time>
      </trkpt>
      <trkpt lat="42.89339" lon="0.19743">
        <ele>2067</ele>
        <time>2016-12-08T21:12:28Z</time>
      </trkpt>
      <trkpt lat="42.8935" lon="0.19718">
        <ele>2070</ele>
        <time>2016-12-08T21:14:28Z</time>
      </trkpt>
      <trkpt lat="42.89377" lon="0.19726">
        <ele>2068</ele>
        <time>2016-12-08T21:16:28Z</time>
      </trkpt>
      <trkpt lat="42.89403" lon="0.19704">
        <ele>2069</ele>
        <time>2016-12-08T21:18:28Z</time>
      </trkpt>
      <trkpt lat="42.89442" lon="0.19739">
        <ele>2069</ele>
        <time>2016-12-08T21:20:28Z</time>
      </trkpt>
      <trkpt lat="42.89507" lon="0.19822">
        <ele>2057</ele>
        <time>2016-12-08T21:22:28Z</time>
      </trkpt>
      <trkpt lat="42.89591" lon="0.19865">
        <ele>2060</ele>
        <time>2016-12-08T21:24:28Z</time>
      </trkpt>
      <trkpt lat="42.89616" lon="0.19879">
        <ele>2060</ele>
        <time>2016-12-08T21:26:28Z</time>
      </trkpt>
      <trkpt lat="42.89632" lon="0.19925">
        <ele>2047</ele>
        <time>2016-12-08T21:28:28Z</time>
      </trkpt>
      <trkpt lat="42.89651" lon="0.19951">
        <ele>2046</ele>
        <time>2016-12-08T21:30:28Z</time>
      </trkpt>
      <trkpt lat="42.8967" lon="0.2">
        <ele>2038</ele>
        <time>2016-12-08T21:32:28Z</time>
      </trkpt>
      <trkpt lat="42.89697" lon="0.20023">
        <ele>2026</ele>
        <time>2016-12-08T21:34:28Z</time>
      </trkpt>
      <trkpt lat="42.89749" lon="0.20009">
        <ele>2027</ele>
        <time>2016-12-08T21:36:28Z</time>
      </trkpt>
      <trkpt lat="42.89781" lon="0.20038">
        <ele>2013</ele>
        <time>2016-12-08T21:38:28Z</time>
      </trkpt>
      <trkpt lat="42.89882" lon="0.20068">
        <ele>2004</ele>
        <time>2016-12-08T21:40:28Z</time>
      </trkpt>
      <trkpt lat="42.8986" lon="0.20167">
        <ele>1964</ele>
        <time>2016-12-08T21:42:28Z</time>
      </trkpt>
      <trkpt lat="42.89922" lon="0.20265">
        <ele>1957</ele>
        <time>2016-12-08T21:44:28Z</time>
      </trkpt>
      <trkpt lat="42.89986" lon="0.20428">
        <ele>1923</ele>
        <time>2016-12-08T21:46:28Z</time>
      </trkpt>
      <trkpt lat="42.90043" lon="0.20453">
        <ele>1922</ele>
        <time>2016-12-08T21:48:28Z</time>
      </trkpt>
      <trkpt lat="42.90078" lon="0.20525">
        <ele>1897</ele>
        <time>2016-12-08T21:50:28Z</time>
      </trkpt>
      <trkpt lat="42.90108" lon="0.20585">
        <ele>1878</ele>
        <time>2016-12-08T21:52:28Z</time>
      </trkpt>
      <trkpt lat="42.90149" lon="0.20694">
        <ele>1856</ele>
        <time>2016-12-08T21:54:28Z</time>
      </trkpt>
      <trkpt lat="42.90181" lon="0.20751">
        <ele>1832</ele>
        <time>2016-12-08T21:56:28Z</time>
      </trkpt>
      <trkpt lat="42.90155" lon="0.20791">
        <ele>1838</ele>
        <time>2016-12-08T21:58:28Z</time>
      </trkpt>
      <trkpt lat="42.90202" lon="0.20796">
        <ele>1823</ele>
        <time>2016-12-08T22:00:28Z</time>
      </trkpt>
      <trkpt lat="42.90231" lon="0.20843">
        <ele>1799</ele>
        <time>2016-12-08T22:02:28Z</time>
      </trkpt>
      <trkpt lat="42.90271" lon="0.20836">
        <ele>1787</ele>
        <time>2016-12-08T22:04:28Z</time>
      </trkpt>
      <trkpt lat="42.90364" lon="0.209">
        <ele>1762</ele>
        <time>2016-12-08T22:06:28Z</time>
      </trkpt>
      <trkpt lat="42.90455" lon="0.20939">
        <ele>1720</ele>
        <time>2016-12-08T22:08:28Z</time>
      </trkpt>
      <trkpt lat="42.9048" lon="0.2096">
        <ele>1712</ele>
        <time>2016-12-08T22:10:28Z</time>
      </trkpt>
      <trkpt lat="42.90502" lon="0.20938">
        <ele>1694</ele>
        <time>2016-12-08T22:12:28Z</time>
      </trkpt>
      <trkpt lat="42.90522" lon="0.20915">
        <ele>1710</ele>
        <time>2016-12-08T22:14:28Z</time>
      </trkpt>
      <trkpt lat="42.90562" lon="0.20915">
        <ele>1693</ele>
        <time>2016-12-08T22:16:28Z</time>
      </trkpt>
      <trkpt lat="42.90541" lon="0.21015">
        <ele>1657</ele>
        <time>2016-12-08T22:18:28Z</time>
      </trkpt>
      <trkpt lat="42.90585" lon="0.211">
        <ele>1621</ele>
        <time>2016-12-08T22:20:28Z</time>
      </trkpt>
      <trkpt lat="42.90646" lon="0.21121">
        <ele>1614</ele>
        <time>2016-12-08T22:22:28Z</time>
      </trkpt>
      <trkpt lat="42.90689" lon="0.21141">
        <ele>1604</ele>
        <time>2016-12-08T22:24:28Z</time>
      </trkpt>
      <trkpt lat="42.90719" lon="0.21163">
        <ele>1602</ele>
        <time>2016-12-08T22:26:28Z</time>
      </trkpt>
      <trkpt lat="42.90786" lon="0.21166">
        <ele>1598</ele>
        <time>2016-12-08T22:28:28Z</time>
      </trkpt>
      <trkpt lat="42.90863" lon="0.21146">
        <ele>1604</ele>
        <time>2016-12-08T22:30:28Z</time>
      </trkpt>
      <trkpt lat="42.90915" lon="0.21235">
        <ele>1591</ele>
        <time>2016-12-08T22:32:28Z</time>
      </trkpt>
      <trkpt lat="42.90961" lon="0.21179">
        <ele>1604</ele>
        <time>2016-12-08T22:34:28Z</time>
      </trkpt>
      <trkpt lat="42.91018" lon="0.21201">
        <ele>1594</ele>
        <time>2016-12-08T22:36:28Z</time>
      </trkpt>
      <trkpt lat="42.91041" lon="0.21142">
        <ele>1600</ele>
        <time>2016-12-08T22:38:28Z</time>
      </trkpt>
      <trkpt lat="42.91057" lon="0.21095">
        <ele>1600</ele>
        <time>2016-12-08T22:40:28Z</time>
      </trkpt>
      <trkpt lat="42.91082" lon="0.21012">
        <ele>1620</ele>
        <time>2016-12-08T22:42:28Z</time>
      </trkpt>
      <trkpt lat="42.9111" lon="0.20933">
        <ele>1628</ele>
        <time>2016-12-08T22:44:28Z</time>
      </trkpt>
      <trkpt lat="42.91156" lon="0.20881">
        <ele>1642</ele>
        <time>2016-12-08T22:46:28Z</time>
      </trkpt>
      <trkpt lat="42.91194" lon="0.20815">
        <ele>1642</ele>
        <time>2016-12-08T22:48:28Z</time>
      </trkpt>
      <trkpt lat="42.91235" lon="0.20751">
        <ele>1643</ele>
        <time>2016-12-08T22:50:28Z</time>
      </trkpt>
      <trkpt lat="42.91284" lon="0.20688">
        <ele>1650</ele>
        <time>2016-12-08T22:52:28Z</time>
      </trkpt>
      <trkpt lat="42.9132" lon="0.20625">
        <ele>1675</ele>
        <time>2016-12-08T22:54:28Z</time>
      </trkpt>
      <trkpt lat="42.91351" lon="0.20552">
        <ele>1685</ele>
        <time>2016-12-08T22:56:28Z</time>
      </trkpt>
      <trkpt lat="42.91402" lon="0.20487">
        <ele>1704</ele>
        <time>2016-12-08T22:58:28Z</time>
      </trkpt>
      <trkpt lat="42.91424" lon="0.20419">
        <ele>1716</ele>
        <time>2016-12-08T23:00:28Z</time>
      </trkpt>
      <trkpt lat="42.91461" lon="0.20356">
        <ele>1733</ele>
        <time>2016-12-08T23:02:28Z</time>
      </trkpt>
      <trkpt lat="42.91523" lon="0.20343">
        <ele>1737</ele>
        <time>2016-12-08T23:04:28Z</time>
      </trkpt>
      <trkpt lat="42.91584" lon="0.20414">
        <ele>1728</ele>
        <time>2016-12-08T23:06:28Z</time>
      </trkpt>
      <trkpt lat="42.91656" lon="0.20374">
        <ele>1735</ele>
        <time>2016-12-08T23:08:28Z</time>
      </trkpt>
      <trkpt lat="42.91707" lon="0.2033">
        <ele>1747</ele>
        <time>2016-12-08T23:10:28Z</time>
      </trkpt>
      <trkpt lat="42.91763" lon="0.2029">
        <ele>1724</ele>
        <time>2016-12-08T23:12:28Z</time>
      </trkpt>
      <trkpt lat="42.91818" lon="0.20253">
        <ele>1721</ele>
        <time>2016-12-08T23:14:28Z</time>
      </trkpt>
      <trkpt lat="42.91871" lon="0.20211">
        <ele>1721</ele>
        <time>2016-12-08T23:16:28Z</time>
      </trkpt>
      <trkpt lat="42.91927" lon="0.20162">
        <ele>1712</ele>
        <time>2016-12-08T23:18:28Z</time>
      </trkpt>
      <trkpt lat="42.91968" lon="0.20103">
        <ele>1705</ele>
        <time>2016-12-08T23:20:28Z</time>
      </trkpt>
      <trkpt lat="42.92003" lon="0.20066">
        <ele>1680</ele>
        <time>2016-12-08T23:22:28Z</time>
      </trkpt>
      <trkpt lat="42.91981" lon="0.19946">
        <ele>1704</ele>
        <time>2016-12-08T23:24:28Z</time>
      </trkpt>
      <trkpt lat="42.91967" lon="0.19848">
        <ele>1690</ele>
        <time>2016-12-08T23:26:28Z</time>
      </trkpt>
      <trkpt lat="42.91941" lon="0.19756">
        <ele>1676</ele>
        <time>2016-12-08T23:28:28Z</time>
      </trkpt>
      <trkpt lat="42.91902" lon="0.19686">
        <ele>1687</ele>
        <time>2016-12-08T23:30:28Z</time>
      </trkpt>
      <trkpt lat="42.91898" lon="0.19617">
        <ele>1674</ele>
        <time>2016-12-08T23:32:28Z</time>
      </trkpt>
      <trkpt lat="42.91893" lon="0.19521">
        <ele>1657</ele>
        <time>2016-12-08T23:34:28Z</time>
      </trkpt>
      <trkpt lat="42.91883" lon="0.19429">
        <ele>1647</ele>
        <time>2016-12-08T23:36:28Z</time>
      </trkpt>
      <trkpt lat="42.91887" lon="0.1933">
        <ele>1629</ele>
        <time>2016-12-08T23:38:28Z</time>
      </trkpt>
      <trkpt lat="42.91881" lon="0.1924">
        <ele>1625</ele>
        <time>2016-12-08T23:40:28Z</time>
      </trkpt>
      <trkpt lat="42.91883" lon="0.19145">
        <ele>1615</ele>
        <time>2016-12-08T23:42:28Z</time>
      </trkpt>
      <trkpt lat="42.91851" lon="0.19051">
        <ele>1605</ele>
        <time>2016-12-08T23:44:28Z</time>
      </trkpt>
      <trkpt lat="42.91834" lon="0.19037">
        <ele>1605</ele>
        <time>2016-12-08T23:46:28Z</time>
      </trkpt>
      <trkpt lat="42.9181" lon="0.19018">
        <ele>1623</ele>
        <time>2016-12-08T23:48:28Z</time>
      </trkpt>
      <trkpt lat="42.9178" lon="0.18975">
        <ele>1621</ele>
        <time>2016-12-08T23:50:28Z</time>
      </trkpt>
      <trkpt lat="42.91743" lon="0.1893">
        <ele>1633</ele>
        <time>2016-12-08T23:52:28Z</time>
      </trkpt>
      <trkpt lat="42.91723" lon="0.1891">
        <ele>1626</ele>
        <time>2016-12-08T23:54:28Z</time>
      </trkpt>
      <trkpt lat="42.91683" lon="0.1889">
        <ele>1633</ele>
        <time>2016-12-08T23:56:28Z</time>
      </trkpt>
      <trkpt lat="42.9165" lon="0.18873">
        <ele>1650</ele>
        <time>2016-12-08T23:58:28Z</time>
      </trkpt>
      <trkpt lat="42.91603" lon="0.18815">
        <ele>1640</ele>
        <time>2016-12-09T00:00:28Z</time>
      </trkpt>
      <trkpt lat="42.91599" lon="0.18783">
        <ele>1636</ele>
        <time>2016-12-09T00:02:28Z</time>
      </trkpt>
      <trkpt lat="42.91567" lon="0.18737">
        <ele>1641</ele>
        <time>2016-12-09T00:04:28Z</time>
      </trkpt>
      <trkpt lat="42.91522" lon="0.18739">
        <ele>1652</ele>
        <time>2016-12-09T00:06:28Z</time>
      </trkpt>
      <trkpt lat="42.9148" lon="0.18742">
        <ele>1669</ele>
        <time>2016-12-09T00:08:28Z</time>
      </trkpt>
      <trkpt lat="42.91436" lon="0.18702">
        <ele>1668</ele>
        <time>2016-12-09T00:10:28Z</time>
      </trkpt>
      <trkpt lat="42.91341" lon="0.1867">
        <ele>1692</ele>
        <time>2016-12-09T00:12:28Z</time>
      </trkpt>
      <trkpt lat="42.91324" lon="0.1861">
        <ele>1696</ele>
        <time>2016-12-09T00:14:28Z</time>
      </trkpt>
      <trkpt lat="42.91296" lon="0.18561">
        <ele>1687</ele>
        <time>2016-12-09T00:16:28Z</time>
      </trkpt>
      <trkpt lat="42.91222" lon="0.18584">
        <ele>1738</ele>
        <time>2016-12-09T00:18:28Z</time>
      </trkpt>
      <trkpt lat="42.91156" lon="0.18556">
        <ele>1751</ele>
        <time>2016-12-09T00:20:28Z</time>
      </trkpt>
      <trkpt lat="42.91138" lon="0.18488">
        <ele>1730</ele>
        <time>2016-12-09T00:22:28Z</time>
      </trkpt>
      <trkpt lat="42.91066" lon="0.18442">
        <ele>1754</ele>
        <time>2016-12-09T00:24:28Z</time>
      </trkpt>
      <trkpt lat="42.9106" lon="0.1838">
        <ele>1742</ele>
        <time>2016-12-09T00:26:28Z</time>
      </trkpt>
      <trkpt lat="42.91042" lon="0.18312">
        <ele>1734</ele>
        <time>2016-12-09T00:28:28Z</time>
      </trkpt>
      <trkpt lat="42.91028" lon="0.18204">
        <ele>1730</ele>
        <time>2016-12-09T00:30:28Z</time>
      </trkpt>
      <trkpt lat="42.91" lon="0.18157">
        <ele>1735</ele>
        <time>2016-12-09T00:32:28Z</time>
      </trkpt>
      <trkpt lat="42.91021" lon="0.18148">
        <ele>1734</ele>
        <time>2016-12-09T00:34:28Z</time>
      </trkpt>
      <trkpt lat="42.9103" lon="0.18093">
        <ele>1737</ele>
        <time>2016-12-09T00:36:28Z</time>
      </trkpt>
      <trkpt lat="42.91079" lon="0.18143">
        <ele>1733</ele>
        <time>2016-12-09T00:38:28Z</time>
      </trkpt>
      <trkpt lat="42.91149" lon="0.18089">
        <ele>1736</ele>
        <time>2016-12-09T00:40:28Z</time>
      </trkpt>
      <trkpt lat="42.9119" lon="0.18069">
        <ele>1740</ele>
        <time>2016-12-09T00:42:28Z</time>
      </trkpt>
      <trkpt lat="42.91245" lon="0.18051">
        <ele>1734</ele>
        <time>2016-12-09T00:44:28Z</time>
      </trkpt>
      <trkpt lat="42.91276" lon="0.18073">
        <ele>1719</ele>
        <time>2016-12-09T00:46:28Z</time>
      </trkpt>
      <trkpt lat="42.91364" lon="0.18042">
        <ele>1722</ele>
        <time>2016-12-09T00:48:28Z</time>
      </trkpt>
      <trkpt lat="42.9141" lon="0.18097">
        <ele>1694</ele>
        <time>2016-12-09T00:50:28Z</time>
      </trkpt>
      <trkpt lat="42.91469" lon="0.1814">
        <ele>1690</ele>
        <time>2016-12-09T00:52:28Z</time>
      </trkpt>
      <trkpt lat="42.91499" lon="0.18213">
        <ele>1659</ele>
        <time>2016-12-09T00:54:28Z</time>
      </trkpt>
      <trkpt lat="42.91579" lon="0.18252">
        <ele>1661</ele>
        <time>2016-12-09T00:56:28Z</time>
      </trkpt>
      <trkpt lat="42.91607" lon="0.18282">
        <ele>1666</ele>
        <time>2016-12-09T00:58:28Z</time>
      </trkpt>
      <trkpt lat="42.91604" lon="0.18328">
        <ele>1656</ele>
        <time>2016-12-09T01:00:28Z</time>
      </trkpt>
      <trkpt lat="42.91659" lon="0.1841">
        <ele>1638</ele>
        <time>2016-12-09T01:02:28Z</time>
      </trkpt>
      <trkpt lat="42.91768" lon="0.18505">
        <ele>1619</ele>
        <time>2016-12-09T01:04:28Z</time>
      </trkpt>
      <trkpt lat="42.91887" lon="0.18537">
        <ele>1631</ele>
        <time>2016-12-09T01:06:28Z</time>
      </trkpt>
      <trkpt lat="42.92003" lon="0.18557">
        <ele>1660</ele>
        <time>2016-12-09T01:08:28Z</time>
      </trkpt>
      <trkpt lat="42.92099" lon="0.18653">
        <ele>1658</ele>
        <time>2016-12-09T01:10:28Z</time>
      </trkpt>
      <trkpt lat="42.92176" lon="0.18673">
        <ele>1661</ele>
        <time>2016-12-09T01:12:28Z</time>
      </trkpt>
      <trkpt lat="42.92227" lon="0.18615">
        <ele>1676</ele>
        <time>2016-12-09T01:14:28Z</time>
      </trkpt>
      <trkpt lat="42.9228" lon="0.186">
        <ele>1667</ele>
        <time>2016-12-09T01:16:28Z</time>
      </trkpt>
      <trkpt lat="42.92376" lon="0.18537">
        <ele>1666</ele>
        <time>2016-12-09T01:18:28Z</time>
      </trkpt>
      <trkpt lat="42.92461" lon="0.1847">
        <ele>1653</ele>
        <time>2016-12-09T01:20:28Z</time>
      </trkpt>
      <trkpt lat="42.92571" lon="0.18357">
        <ele>1630</ele>
        <time>2016-12-09T01:22:28Z</time>
      </trkpt>
      <trkpt lat="42.9263" lon="0.18282">
        <ele>1607</ele>
        <time>2016-12-09T01:24:28Z</time>
      </trkpt>
      <trkpt lat="42.92705" lon="0.18245">
        <ele>1588</ele>
        <time>2016-12-09T01:26:28Z</time>
      </trkpt>
      <trkpt lat="42.92789" lon="0.18198">
        <ele>1569</ele>
        <time>2016-12-09T01:28:28Z</time>
      </trkpt>
      <trkpt lat="42.92831" lon="0.18138">
        <ele>1574</ele>
        <time>2016-12-09T01:30:28Z</time>
      </trkpt>
      <trkpt lat="42.92831" lon="0.18125">
        <ele>1575</ele>
        <time>2016-12-09T01:32:28Z</time>
      </trkpt>
      <trkpt lat="42.92831" lon="0.18134">
        <ele>1574</ele>
        <time>2016-12-09T01:34:28Z</time>
      </trkpt>
      <trkpt lat="42.92836" lon="0.18036">
        <ele>1572</ele>
        <time>2016-12-09T01:36:28Z</time>
      </trkpt>
      <trkpt lat="42.92859" lon="0.17953">
        <ele>1585</ele>
        <time>2016-12-09T01:38:28Z</time>
      </trkpt>
      <trkpt lat="42.92863" lon="0.17904">
        <ele>1601</ele>
        <time>2016-12-09T01:40:28Z</time>
      </trkpt>
      <trkpt lat="42.92901" lon="0.17795">
        <ele>1621</ele>
        <time>2016-12-09T01:42:28Z</time>
      </trkpt>
      <trkpt lat="42.92935" lon="0.17711">
        <ele>1618</ele>
        <time>2016-12-09T01:44:28Z</time>
      </trkpt>
      <trkpt lat="42.92954" lon="0.17619">
        <ele>1638</ele>
        <time>2016-12-09T01:46:28Z</time>
      </trkpt>
      <trkpt lat="42.9302" lon="0.17558">
        <ele>1622</ele>
        <time>2016-12-09T01:48:28Z</time>
      </trkpt>
      <trkpt lat="42.93015" lon="0.1743">
        <ele>1645</ele>
        <time>2016-12-09T01:50:28Z</time>
      </trkpt>
      <trkpt lat="42.92979" lon="0.1734">
        <ele>1668</ele>
        <time>2016-12-09T01:52:28Z</time>
      </trkpt>
      <trkpt lat="42.92953" lon="0.17234">
        <ele>1676</ele>
        <time>2016-12-09T01:54:28Z</time>
      </trkpt>
      <trkpt lat="42.92911" lon="0.17196">
        <ele>1715</ele>
        <time>2016-12-09T01:56:28Z</time>
      </trkpt>
      <trkpt lat="42.92909" lon="0.17083">
        <ele>1702</ele>
        <time>2016-12-09T01:58:28Z</time>
      </trkpt>
      <trkpt lat="42.92879" lon="0.16818">
        <ele>1775</ele>
        <time>2016-12-09T02:00:28Z</time>
      </trkpt>
      <trkpt lat="42.92847" lon="0.16663">
        <ele>1825</ele>
        <time>2016-12-09T02:02:28Z</time>
      </trkpt>
      <trkpt lat="42.92824" lon="0.16546">
        <ele>1837</ele>
        <time>2016-12-09T02:04:28Z</time>
      </trkpt>
      <trkpt lat="42.92845" lon="0.16473">
        <ele>1811</ele>
        <time>2016-12-09T02:06:28Z</time>
      </trkpt>
      <trkpt lat="42.92833" lon="0.16435">
        <ele>1854</ele>
        <time>2016-12-09T02:08:28Z</time>
      </trkpt>
      <trkpt lat="42.92852" lon="0.16385">
        <ele>1846</ele>
        <time>2016-12-09T02:10:28Z</time>
      </trkpt>
      <trkpt lat="42.92876" lon="0.16341">
        <ele>1849</ele>
        <time>2016-12-09T02:12:28Z</time>
      </trkpt>
      <trkpt lat="42.92894" lon="0.16325">
        <ele>1867</ele>
        <time>2016-12-09T02:14:28Z</time>
      </trkpt>
      <trkpt lat="42.92936" lon="0.16306">
        <ele>1849</ele>
        <time>2016-12-09T02:16:28Z</time>
      </trkpt>
      <trkpt lat="42.9301" lon="0.16293">
        <ele>1832</ele>
        <time>2016-12-09T02:18:28Z</time>
      </trkpt>
      <trkpt lat="42.93081" lon="0.16272">
        <ele>1839</ele>
        <time>2016-12-09T02:20:28Z</time>
      </trkpt>
      <trkpt lat="42.93128" lon="0.16234">
        <ele>1863</ele>
        <time>2016-12-09T02:22:28Z</time>
      </trkpt>
      <trkpt lat="42.93187" lon="0.16158">
        <ele>1880</ele>
        <time>2016-12-09T02:24:28Z</time>
      </trkpt>
      <trkpt lat="42.932" lon="0.16121">
        <ele>1883</ele>
        <time>2016-12-09T02:26:28Z</time>
      </trkpt>
      <trkpt lat="42.9323" lon="0.16092">
        <ele>1883</ele>
        <time>2016-12-09T02:28:28Z</time>
      </trkpt>
      <trkpt lat="42.93251" lon="0.16021">
        <ele>1884</ele>
        <time>2016-12-09T02:30:28Z</time>
      </trkpt>
      <trkpt lat="42.9322" lon="0.16013">
        <ele>1898</ele>
        <time>2016-12-09T02:32:28Z</time>
      </trkpt>
      <trkpt lat="42.93202" lon="0.16001">
        <ele>1900</ele>
        <time>2016-12-09T02:34:28Z</time>
      </trkpt>
      <trkpt lat="42.93219" lon="0.15979">
        <ele>1911</ele>
        <time>2016-12-09T02:36:28Z</time>
      </trkpt>
      <trkpt lat="42.93219" lon="0.15958">
        <ele>1914</ele>
        <time>2016-12-09T02:38:28Z</time>
      </trkpt>
      <trkpt lat="42.93182" lon="0.15935">
        <ele>1924</ele>
        <time>2016-12-09T02:40:28Z</time>
      </trkpt>
      <trkpt lat="42.93225" lon="0.1593">
        <ele>1916</ele>
        <time>2016-12-09T02:42:28Z</time>
      </trkpt>
      <trkpt lat="42.93202" lon="0.15888">
        <ele>1935</ele>
        <time>2016-12-09T02:44:28Z</time>
      </trkpt>
      <trkpt lat="42.93164" lon="0.15902">
        <ele>1951</ele>
        <time>2016-12-09T02:46:28Z</time>
      </trkpt>
      <trkpt lat="42.93187" lon="0.15834">
        <ele>1945</ele>
        <time>2016-12-09T02:48:28Z</time>
      </trkpt>
      <trkpt lat="42.93174" lon="0.15764">
        <ele>1966</ele>
        <time>2016-12-09T02:50:28Z</time>
      </trkpt>
      <trkpt lat="42.93162" lon="0.15731">
        <ele>1982</ele>
        <time>2016-12-09T02:52:28Z</time>
      </trkpt>
      <trkpt lat="42.93159" lon="0.15688">
        <ele>1988</ele>
        <time>2016-12-09T02:54:28Z</time>
      </trkpt>
      <trkpt lat="42.93133" lon="0.15628">
        <ele>2005</ele>
        <time>2016-12-09T02:56:28Z</time>
      </trkpt>
      <trkpt lat="42.93127" lon="0.15518">
        <ele>2035</ele>
        <time>2016-12-09T02:58:28Z</time>
      </trkpt>
      <trkpt lat="42.93107" lon="0.15436">
        <ele>2058</ele>
        <time>2016-12-09T03:00:28Z</time>
      </trkpt>
      <trkpt lat="42.9311" lon="0.15375">
        <ele>2081</ele>
        <time>2016-12-09T03:02:28Z</time>
      </trkpt>
      <trkpt lat="42.93088" lon="0.15346">
        <ele>2079</ele>
        <time>2016-12-09T03:04:28Z</time>
      </trkpt>
      <trkpt lat="42.93043" lon="0.15308">
        <ele>2091</ele>
        <time>2016-12-09T03:06:28Z</time>
      </trkpt>
      <trkpt lat="42.92991" lon="0.15415">
        <ele>2087</ele>
        <time>2016-12-09T03:08:28Z</time>
      </trkpt>
      <trkpt lat="42.92984" lon="0.1538">
        <ele>2100</ele>
        <time>2016-12-09T03:10:28Z</time>
      </trkpt>
      <trkpt lat="42.92988" lon="0.15307">
        <ele>2109</ele>
        <time>2016-12-09T03:12:28Z</time>
      </trkpt>
      <trkpt lat="42.92998" lon="0.15266">
        <ele>2111</ele>
        <time>2016-12-09T03:14:28Z</time>
      </trkpt>
      <trkpt lat="42.93021" lon="0.15198">
        <ele>2121</ele>
        <time>2016-12-09T03:16:28Z</time>
      </trkpt>
      <trkpt lat="42.93036" lon="0.15036">
        <ele>2157</ele>
        <time>2016-12-09T03:18:28Z</time>
      </trkpt>
      <trkpt lat="42.93003" lon="0.14963">
        <ele>2176</ele>
        <time>2016-12-09T03:20:28Z</time>
      </trkpt>
      <trkpt lat="42.92966" lon="0.14907">
        <ele>2187</ele>
        <time>2016-12-09T03:22:28Z</time>
      </trkpt>
      <trkpt lat="42.92909" lon="0.14784">
        <ele>2207</ele>
        <time>2016-12-09T03:24:28Z</time>
      </trkpt>
      <trkpt lat="42.92812" lon="0.14652">
        <ele>2231</ele>
        <time>2016-12-09T03:26:28Z</time>
      </trkpt>
      <trkpt lat="42.92811" lon="0.14585">
        <ele>2231</ele>
        <time>2016-12-09T03:28:28Z</time>
      </trkpt>
      <trkpt lat="42.9279" lon="0.14535">
        <ele>2243</ele>
        <time>2016-12-09T03:30:28Z</time>
      </trkpt>
      <trkpt lat="42.92777" lon="0.14479">
        <ele>2251</ele>
        <time>2016-12-09T03:32:28Z</time>
      </trkpt>
      <trkpt lat="42.92802" lon="0.14387">
        <ele>2265</ele>
        <time>2016-12-09T03:34:28Z</time>
      </trkpt>
      <trkpt lat="42.92826" lon="0.14331">
        <ele>2278</ele>
        <time>2016-12-09T03:36:28Z</time>
      </trkpt>
      <trkpt lat="42.92871" lon="0.1432">
        <ele>2284</ele>
        <time>2016-12-09T03:38:28Z</time>
      </trkpt>
      <trkpt lat="42.92886" lon="0.14298">
        <ele>2288</ele>
        <time>2016-12-09T03:40:28Z</time>
      </trkpt>
      <trkpt lat="42.92924" lon="0.143">
        <ele>2296</ele>
        <time>2016-12-09T03:42:28Z</time>
      </trkpt>
      <trkpt lat="42.9295" lon="0.14253">
        <ele>2305</ele>
        <time>2016-12-09T03:44:28Z</time>
      </trkpt>
      <trkpt lat="42.9298" lon="0.14157">
        <ele>2342</ele>
        <time>2016-12-09T03:46:28Z</time>
      </trkpt>
      <trkpt lat="42.93024" lon="0.14039">
        <ele>2360</ele>
        <time>2016-12-09T03:48:28Z</time>
      </trkpt>
      <trkpt lat="42.93054" lon="0.13953">
        <ele>2372</ele>
        <time>2016-12-09T03:50:28Z</time>
      </trkpt>
      <trkpt lat="42.93049" lon="0.13901">
        <ele>2374</ele>
        <time>2016-12-09T03:52:28Z</time>
      </trkpt>
      <trkpt lat="42.9304" lon="0.13862">
        <ele>2372</ele>
        <time>2016-12-09T03:54:28Z</time>
      </trkpt>
      <trkpt lat="42.93074" lon="0.13869">
        <ele>2373</ele>
        <time>2016-12-09T03:56:28Z</time>
      </trkpt>
      <trkpt lat="42.93105" lon="0.1387">
        <ele>2387</ele>
        <time>2016-12-09T03:58:28Z</time>
      </trkpt>
      <trkpt lat="42.93145" lon="0.13983">
        <ele>2400</ele>
        <time>2016-12-09T04:00:28Z</time>
      </trkpt>
      <trkpt lat="42.93178" lon="0.14089">
        <ele>2424</ele>
        <time>2016-12-09T04:02:28Z</time>
      </trkpt>
      <trkpt lat="42.93196" lon="0.14201">
        <ele>2434</ele>
        <time>2016-12-09T04:04:28Z</time>
      </trkpt>
      <trkpt lat="42.9318" lon="0.14263">
        <ele>2418</ele>
        <time>2016-12-09T04:06:28Z</time>
      </trkpt>
      <trkpt lat="42.93183" lon="0.14302">
        <ele>2419</ele>
        <time>2016-12-09T04:08:28Z</time>
      </trkpt>
      <trkpt lat="42.93198" lon="0.14299">
        <ele>2420</ele>
        <time>2016-12-09T04:10:28Z</time>
      </trkpt>
      <trkpt lat="42.93208" lon="0.14249">
        <ele>2435</ele>
        <time>2016-12-09T04:12:28Z</time>
      </trkpt>
      <trkpt lat="42.93224" lon="0.14151">
        <ele>2451</ele>
        <time>2016-12-09T04:14:28Z</time>
      </trkpt>
      <trkpt lat="42.93222" lon="0.1401">
        <ele>2447</ele>
        <time>2016-12-09T04:16:28Z</time>
      </trkpt>
      <trkpt lat="42.93268" lon="0.1385">
        <ele>2479</ele>
        <time>2016-12-09T04:18:28Z</time>
      </trkpt>
      <trkpt lat="42.93285" lon="0.13806">
        <ele>2488</ele>
        <time>2016-12-09T04:20:28Z</time>
      </trkpt>
      <trkpt lat="42.93283" lon="0.13742">
        <ele>2480</ele>
        <time>2016-12-09T04:22:28Z</time>
      </trkpt>
      <trkpt lat="42.93299" lon="0.13738">
        <ele>2494</ele>
        <time>2016-12-09T04:24:28Z</time>
      </trkpt>
      <trkpt lat="42.93297" lon="0.13762">
        <ele>2497</ele>
        <time>2016-12-09T04:26:28Z</time>
      </trkpt>
      <trkpt lat="42.93307" lon="0.13805">
        <ele>2499</ele>
        <time>2016-12-09T04:28:28Z</time>
      </trkpt>
      <trkpt lat="42.9331" lon="0.13904">
        <ele>2503</ele>
        <time>2016-12-09T04:30:28Z</time>
      </trkpt>
      <trkpt lat="42.93309" lon="0.13998">
        <ele>2513</ele>
        <time>2016-12-09T04:32:28Z</time>
      </trkpt>
      <trkpt lat="42.93302" lon="0.1409">
        <ele>2512</ele>
        <time>2016-12-09T04:34:28Z</time>
      </trkpt>
      <trkpt lat="42.93346" lon="0.13948">
        <ele>2532</ele>
        <time>2016-12-09T04:36:28Z</time>
      </trkpt>
      <trkpt lat="42.93362" lon="0.13852">
        <ele>2526</ele>
        <time>2016-12-09T04:38:28Z</time>
      </trkpt>
      <trkpt lat="42.93368" lon="0.13724">
        <ele>2546</ele>
        <time>2016-12-09T04:40:28Z</time>
      </trkpt>
      <trkpt lat="42.93393" lon="0.13631">
        <ele>2531</ele>
        <time>2016-12-09T04:42:28Z</time>
      </trkpt>
      <trkpt lat="42.934" lon="0.13524">
        <ele>2523</ele>
        <time>2016-12-09T04:44:28Z</time>
      </trkpt>
      <trkpt lat="42.93392" lon="0.13435">
        <ele>2499</ele>
        <time>2016-12-09T04:46:28Z</time>
      </trkpt>
      <trkpt lat="42.93414" lon="0.13431">
        <ele>2500</ele>
        <time>2016-12-09T04:48:28Z</time>
      </trkpt>
      <trkpt lat="42.93419" lon="0.13459">
        <ele>2592.1</ele>
        <time>2016-12-09T04:50:28Z</time>
      </trkpt>
      <trkpt lat="42.93434" lon="0.13547">
        <ele>2608.2</ele>
        <time>2016-12-09T04:52:28Z</time>
      </trkpt>
      <trkpt lat="42.93418" lon="0.13627">
        <ele>2597.6</ele>
        <time>2016-12-09T04:54:28Z</time>
      </trkpt>
      <trkpt lat="42.93423" lon="0.13669">
        <ele>2597.8</ele>
        <time>2016-12-09T04:56:28Z</time>
      </trkpt>
      <trkpt lat="42.93458" lon="0.13705">
        <ele>2614.6</ele>
        <time>2016-12-09T04:58:28Z</time>
      </trkpt>
      <trkpt lat="42.93473" lon="0.13683">
        <ele>2624.3</ele>
        <time>2016-12-09T05:00:28Z</time>
      </trkpt>
      <trkpt lat="42.93441" lon="0.13657">
        <ele>2611.7</ele>
        <time>2016-12-09T05:02:28Z</time>
      </trkpt>
      <trkpt lat="42.93453" lon="0.1358">
        <ele>2621.5</ele>
        <time>2016-12-09T05:04:28Z</time>
      </trkpt>
      <trkpt lat="42.93468" lon="0.13545">
        <ele>2623.4</ele>
        <time>2016-12-09T05:06:28Z</time>
      </trkpt>
      <trkpt lat="42.93497" lon="0.13523">
        <ele>2632.4</ele>
        <time>2016-12-09T05:08:28Z</time>
      </trkpt>
      <trkpt lat="42.93532" lon="0.13511">
        <ele>2636.1</ele>
        <time>2016-12-09T05:10:28Z</time>
      </trkpt>
      <trkpt lat="42.93557" lon="0.13508">
        <ele>2638.6</ele>
        <time>2016-12-09T05:12:28Z</time>
      </trkpt>
      <trkpt lat="42.93565" lon="0.13539">
        <ele>2639.2</ele>
        <time>2016-12-09T05:14:28Z</time>
      </trkpt>
      <trkpt lat="42.93573" lon="0.13609">
        <ele>2651.7</ele>
        <time>2016-12-09T05:16:28Z</time>
      </trkpt>
      <trkpt lat="42.93546" lon="0.13677">
        <ele>2654.5</ele>
        <time>2016-12-09T05:18:28Z</time>
      </trkpt>
      <trkpt lat="42.93548" lon="0.1371">
        <ele>2658.5</ele>
        <time>2016-12-09T05:20:28Z</time>
      </trkpt>
      <trkpt lat="42.93584" lon="0.13674">
        <ele>2669.2</ele>
        <time>2016-12-09T05:22:28Z</time>
      </trkpt>
      <trkpt lat="42.93639" lon="0.13628">
        <ele>2679</ele>
        <time>2016-12-09T05:24:28Z</time>
      </trkpt>
      <trkpt lat="42.93631" lon="0.1373">
        <ele>2701.3</ele>
        <time>2016-12-09T05:26:28Z</time>
      </trkpt>
      <trkpt lat="42.93635" lon="0.13799">
        <ele>2718.9</ele>
        <time>2016-12-09T05:28:28Z</time>
      </trkpt>
      <trkpt lat="42.93675" lon="0.13776">
        <ele>2733.7</ele>
        <time>2016-12-09T05:30:28Z</time>
      </trkpt>
      <trkpt lat="42.9366" lon="0.13839">
        <ele>2742.7</ele>
        <time>2016-12-09T05:32:28Z</time>
      </trkpt>
      <trkpt lat="42.93696" lon="0.13803">
        <ele>2748.4</ele>
        <time>2016-12-09T05:34:28Z</time>
      </trkpt>
      <trkpt lat="42.93673" lon="0.13887">
        <ele>2763.1</ele>
        <time>2016-12-09T05:36:28Z</time>
      </trkpt>
      <trkpt lat="42.9366" lon="0.13971">
        <ele>2783.7</ele>
        <time>2016-12-09T05:38:28Z</time>
      </trkpt>
      <trkpt lat="42.93708" lon="0.13926">
        <ele>2821</ele>
        <time>2016-12-09T05:40:28Z</time>
      </trkpt>
      <trkpt lat="42.93697" lon="0.1401">
        <ele>2828</ele>
        <time>2016-12-09T05:42:28Z</time>
      </trkpt>
      <trkpt lat="42.93722" lon="0.13992">
        <ele>2821</ele>
        <time>2016-12-09T05:44:28Z</time>
      </trkpt>
      <trkpt lat="42.93702" lon="0.14071">
        <ele>2830</ele>
        <time>2016-12-09T05:46:28Z</time>
      </trkpt>
      <trkpt lat="42.93689" lon="0.14138">
        <ele>2842</ele>
        <time>2016-12-09T05:48:28Z</time>
      </trkpt>
      <trkpt lat="42.93675" lon="0.14174">
        <ele>2846</ele>
        <time>2016-12-09T05:50:28Z</time>
      </trkpt>
      <trkpt lat="42.93686" lon="0.14134">
        <ele>2841</ele>
        <time>2016-12-09T05:52:28Z</time>
      </trkpt>
      <trkpt lat="42.93698" lon="0.14071">
        <ele>2829</ele>
        <time>2016-12-09T05:54:28Z</time>
      </trkpt>
      <trkpt lat="42.93718" lon="0.13992">
        <ele>2821</ele>
        <time>2016-12-09T05:56:28Z</time>
      </trkpt>
      <trkpt lat="42.93693" lon="0.14011">
        <ele>2828</ele>
        <time>2016-12-09T05:58:28Z</time>
      </trkpt>
      <trkpt lat="42.93713" lon="0.13923">
        <ele>2821</ele>
        <time>2016-12-09T06:00:28Z</time>
      </trkpt>
      <trkpt lat="42.93662" lon="0.13965">
        <ele>2782.5</ele>
        <time>2016-12-09T06:02:28Z</time>
      </trkpt>
      <trkpt lat="42.9367" lon="0.13886">
        <ele>2761.1</ele>
        <time>2016-12-09T06:04:28Z</time>
      </trkpt>
      <trkpt lat="42.93694" lon="0.13812">
        <ele>2749.8</ele>
        <time>2016-12-09T06:06:28Z</time>
      </trkpt>
      <trkpt lat="42.93685" lon="0.1382">
        <ele>2747.7</ele>
        <time>2016-12-09T06:08:28Z</time>
      </trkpt>
      <trkpt lat="42.93657" lon="0.13841">
        <ele>2741.5</ele>
        <time>2016-12-09T06:10:28Z</time>
      </trkpt>
      <trkpt lat="42.93673" lon="0.13773">
        <ele>2731.8</ele>
        <time>2016-12-09T06:12:28Z</time>
      </trkpt>
      <trkpt lat="42.93634" lon="0.13808">
        <ele>2720.4</ele>
        <time>2016-12-09T06:14:28Z</time>
      </trkpt>
      <trkpt lat="42.93628" lon="0.13723">
        <ele>2698.5</ele>
        <time>2016-12-09T06:16:28Z</time>
      </trkpt>
      <trkpt lat="42.93636" lon="0.13632">
        <ele>2679.8</ele>
        <time>2016-12-09T06:18:28Z</time>
      </trkpt>
      <trkpt lat="42.93591" lon="0.13667">
        <ele>2670.7</ele>
        <time>2016-12-09T06:20:28Z</time>
      </trkpt>
      <trkpt lat="42.93551" lon="0.13708">
        <ele>2659.3</ele>
        <time>2016-12-09T06:22:28Z</time>
      </trkpt>
      <trkpt lat="42.93549" lon="0.13676">
        <ele>2655</ele>
        <time>2016-12-09T06:24:28Z</time>
      </trkpt>
      <trkpt lat="42.93568" lon="0.13609">
        <ele>2650.2</ele>
        <time>2016-12-09T06:26:28Z</time>
      </trkpt>
      <trkpt lat="42.93565" lon="0.13539">
        <ele>2639.2</ele>
        <time>2016-12-09T06:28:28Z</time>
      </trkpt>
      <trkpt lat="42.93553" lon="0.13503">
        <ele>2638.6</ele>
        <time>2016-12-09T06:30:28Z</time>
      </trkpt>
      <trkpt lat="42.93523" lon="0.13507">
        <ele>2635.7</ele>
        <time>2016-12-09T06:32:28Z</time>
      </trkpt>
      <trkpt lat="42.93464" lon="0.13546">
        <ele>2622.1</ele>
        <time>2016-12-09T06:34:28Z</time>
      </trkpt>
      <trkpt lat="42.93447" lon="0.13607">
        <ele>2619.1</ele>
        <time>2016-12-09T06:36:28Z</time>
      </trkpt>
      <trkpt lat="42.93441" lon="0.13657">
        <ele>2611.7</ele>
        <time>2016-12-09T06:38:28Z</time>
      </trkpt>
      <trkpt lat="42.93469" lon="0.13692">
        <ele>2621.5</ele>
        <time>2016-12-09T06:40:28Z</time>
      </trkpt>
      <trkpt lat="42.93451" lon="0.13708">
        <ele>2610.3</ele>
        <time>2016-12-09T06:42:28Z</time>
      </trkpt>
      <trkpt lat="42.93423" lon="0.13669">
        <ele>2597.8</ele>
        <time>2016-12-09T06:44:28Z</time>
      </trkpt>
      <trkpt lat="42.93418" lon="0.13627">
        <ele>2597.6</ele>
        <time>2016-12-09T06:46:28Z</time>
      </trkpt>
      <trkpt lat="42.93432" lon="0.13556">
        <ele>2608</ele>
        <time>2016-12-09T06:48:28Z</time>
      </trkpt>
      <trkpt lat="42.93414" lon="0.13431">
        <ele>2500</ele>
        <time>2016-12-09T06:50:28Z</time>
      </trkpt>
      <trkpt lat="42.93392" lon="0.13435">
        <ele>2499</ele>
        <time>2016-12-09T06:52:28Z</time>
      </trkpt>
      <trkpt lat="42.934" lon="0.13524">
        <ele>2523</ele>
        <time>2016-12-09T06:54:28Z</time>
      </trkpt>
      <trkpt lat="42.93397" lon="0.13609">
        <ele>2528</ele>
        <time>2016-12-09T06:56:28Z</time>
      </trkpt>
      <trkpt lat="42.93392" lon="0.13662">
        <ele>2534</ele>
        <time>2016-12-09T06:58:28Z</time>
      </trkpt>
      <trkpt lat="42.93368" lon="0.13724">
        <ele>2546</ele>
        <time>2016-12-09T07:00:28Z</time>
      </trkpt>
      <trkpt lat="42.93362" lon="0.13852">
        <ele>2526</ele>
        <time>2016-12-09T07:02:28Z</time>
      </trkpt>
      <trkpt lat="42.93342" lon="0.1396">
        <ele>2534</ele>
        <time>2016-12-09T07:04:28Z</time>
      </trkpt>
      <trkpt lat="42.93302" lon="0.1409">
        <ele>2512</ele>
        <time>2016-12-09T07:06:28Z</time>
      </trkpt>
      <trkpt lat="42.93309" lon="0.13998">
        <ele>2513</ele>
        <time>2016-12-09T07:08:28Z</time>
      </trkpt>
      <trkpt lat="42.93308" lon="0.13901">
        <ele>2502</ele>
        <time>2016-12-09T07:10:28Z</time>
      </trkpt>
      <trkpt lat="42.93305" lon="0.13799">
        <ele>2498</ele>
        <time>2016-12-09T07:12:28Z</time>
      </trkpt>
      <trkpt lat="42.93298" lon="0.13767">
        <ele>2497</ele>
        <time>2016-12-09T07:14:28Z</time>
      </trkpt>
      <trkpt lat="42.93299" lon="0.13738">
        <ele>2494</ele>
        <time>2016-12-09T07:16:28Z</time>
      </trkpt>
      <trkpt lat="42.93281" lon="0.13751">
        <ele>2482</ele>
        <time>2016-12-09T07:18:28Z</time>
      </trkpt>
      <trkpt lat="42.93285" lon="0.13797">
        <ele>2488</ele>
        <time>2016-12-09T07:20:28Z</time>
      </trkpt>
      <trkpt lat="42.93268" lon="0.1385">
        <ele>2479</ele>
        <time>2016-12-09T07:22:28Z</time>
      </trkpt>
      <trkpt lat="42.93222" lon="0.1401">
        <ele>2447</ele>
        <time>2016-12-09T07:24:28Z</time>
      </trkpt>
      <trkpt lat="42.93224" lon="0.14151">
        <ele>2451</ele>
        <time>2016-12-09T07:26:28Z</time>
      </trkpt>
      <trkpt lat="42.93204" lon="0.14259">
        <ele>2424</ele>
        <time>2016-12-09T07:28:28Z</time>
      </trkpt>
      <trkpt lat="42.93198" lon="0.14299">
        <ele>2420</ele>
        <time>2016-12-09T07:30:28Z</time>
      </trkpt>
      <trkpt lat="42.93178" lon="0.14303">
        <ele>2419</ele>
        <time>2016-12-09T07:32:28Z</time>
      </trkpt>
      <trkpt lat="42.9318" lon="0.14263">
        <ele>2418</ele>
        <time>2016-12-09T07:34:28Z</time>
      </trkpt>
      <trkpt lat="42.93196" lon="0.14201">
        <ele>2434</ele>
        <time>2016-12-09T07:36:28Z</time>
      </trkpt>
      <trkpt lat="42.93191" lon="0.14146">
        <ele>2434</ele>
        <time>2016-12-09T07:38:28Z</time>
      </trkpt>
      <trkpt lat="42.93169" lon="0.14058">
        <ele>2428</ele>
        <time>2016-12-09T07:40:28Z</time>
      </trkpt>
      <trkpt lat="42.93142" lon="0.13968">
        <ele>2398</ele>
        <time>2016-12-09T07:42:28Z</time>
      </trkpt>
      <trkpt lat="42.93106" lon="0.13865">
        <ele>2387</ele>
        <time>2016-12-09T07:44:28Z</time>
      </trkpt>
      <trkpt lat="42.9304" lon="0.13859">
        <ele>2372</ele>
        <time>2016-12-09T07:46:28Z</time>
      </trkpt>
      <trkpt lat="42.93035" lon="0.13829">
        <ele>2357</ele>
        <time>2016-12-09T07:48:28Z</time>
      </trkpt>
      <trkpt lat="42.92879" lon="0.13848">
        <ele>2374</ele>
        <time>2016-12-09T07:50:28Z</time>
      </trkpt>
      <trkpt lat="42.9277" lon="0.13804">
        <ele>2343</ele>
        <time>2016-12-09T07:52:28Z</time>
      </trkpt>
      <trkpt lat="42.92702" lon="0.13764">
        <ele>2340</ele>
        <time>2016-12-09T07:54:28Z</time>
      </trkpt>
      <trkpt lat="42.92697" lon="0.13755">
        <ele>2338</ele>
        <time>2016-12-09T07:56:28Z</time>
      </trkpt>
      <trkpt lat="42.92624" lon="0.13728">
        <ele>2319</ele>
        <time>2016-12-09T07:58:28Z</time>
      </trkpt>
      <trkpt lat="42.92692" lon="0.13671">
        <ele>2304</ele>
        <time>2016-12-09T08:00:28Z</time>
      </trkpt>
      <trkpt lat="42.9269" lon="0.13633">
        <ele>2285</ele>
        <time>2016-12-09T08:02:28Z</time>
      </trkpt>
      <trkpt lat="42.9269" lon="0.13625">
        <ele>2284</ele>
        <time>2016-12-09T08:04:28Z</time>
      </trkpt>
      <trkpt lat="42.9256" lon="0.13437">
        <ele>2244</ele>
        <time>2016-12-09T08:06:28Z</time>
      </trkpt>
      <trkpt lat="42.92551" lon="0.13499">
        <ele>2247</ele>
        <time>2016-12-09T08:08:28Z</time>
      </trkpt>
      <trkpt lat="42.92552" lon="0.13465">
        <ele>2245</ele>
        <time>2016-12-09T08:10:28Z</time>
      </trkpt>
      <trkpt lat="42.92493" lon="0.13427">
        <ele>2234</ele>
        <time>2016-12-09T08:12:28Z</time>
      </trkpt>
      <trkpt lat="42.92452" lon="0.13388">
        <ele>2227</ele>
        <time>2016-12-09T08:14:28Z</time>
      </trkpt>
      <trkpt lat="42.9239" lon="0.13264">
        <ele>2220</ele>
        <time>2016-12-09T08:16:28Z</time>
      </trkpt>
      <trkpt lat="42.92232" lon="0.13222">
        <ele>2212</ele>
        <time>2016-12-09T08:18:28Z</time>
      </trkpt>
      <trkpt lat="42.92211" lon="0.13207">
        <ele>2213</ele>
        <time>2016-12-09T08:20:28Z</time>
      </trkpt>
      <trkpt lat="42.92205" lon="0.13173">
        <ele>2215</ele>
        <time>2016-12-09T08:22:28Z</time>
      </trkpt>
      <trkpt lat="42.92151" lon="0.13147">
        <ele>2211</ele>
        <time>2016-12-09T08:24:28Z</time>
      </trkpt>
      <trkpt lat="42.92133" lon="0.13061">
        <ele>2227</ele>
        <time>2016-12-09T08:26:28Z</time>
      </trkpt>
      <trkpt lat="42.92092" lon="0.13039">
        <ele>2225</ele>
        <time>2016-12-09T08:28:28Z</time>
      </trkpt>
      <trkpt lat="42.92068" lon="0.12991">
        <ele>2229</ele>
        <time>2016-12-09T08:30:28Z</time>
      </trkpt>
      <trkpt lat="42.92051" lon="0.12952">
        <ele>2234</ele>
        <time>2016-12-09T08:32:28Z</time>
      </trkpt>
      <trkpt lat="42.91978" lon="0.12873">
        <ele>2241</ele>
        <time>2016-12-09T08:34:28Z</time>
      </trkpt>
      <trkpt lat="42.9192" lon="0.12843">
        <ele>2251</ele>
        <time>2016-12-09T08:36:28Z</time>
      </trkpt>
      <trkpt lat="42.91879" lon="0.1282">
        <ele>2264</ele>
        <time>2016-12-09T08:38:28Z</time>
      </trkpt>
      <trkpt lat="42.91847" lon="0.12773">
        <ele>2273</ele>
        <time>2016-12-09T08:40:28Z</time>
      </trkpt>
      <trkpt lat="42.91886" lon="0.12762">
        <ele>2276</ele>
        <time>2016-12-09T08:42:28Z</time>
      </trkpt>
      <trkpt lat="42.91843" lon="0.1272">
        <ele>2290</ele>
        <time>2016-12-09T08:44:28Z</time>
      </trkpt>
      <trkpt lat="42.91871" lon="0.1271">
        <ele>2293</ele>
        <time>2016-12-09T08:46:28Z</time>
      </trkpt>
      <trkpt lat="42.91863" lon="0.12689">
        <ele>2294</ele>
        <time>2016-12-09T08:48:28Z</time>
      </trkpt>
      <trkpt lat="42.91957" lon="0.12622">
        <ele>2306</ele>
        <time>2016-12-09T08:50:28Z</time>
      </trkpt>
      <trkpt lat="42.92025" lon="0.12531">
        <ele>2322</ele>
        <time>2016-12-09T08:52:28Z</time>
      </trkpt>
      <trkpt lat="42.92048" lon="0.12469">
        <ele>2312</ele>
        <time>2016-12-09T08:54:28Z</time>
      </trkpt>
      <trkpt lat="42.92061" lon="0.12373">
        <ele>2298</ele>
        <time>2016-12-09T08:56:28Z</time>
      </trkpt>
      <trkpt lat="42.9223" lon="0.12334">
        <ele>2308</ele>
        <time>2016-12-09T08:58:28Z</time>
      </trkpt>
      <trkpt lat="42.92207" lon="0.12318">
        <ele>2278</ele>
        <time>2016-12-09T09:00:28Z</time>
      </trkpt>
      <trkpt lat="42.92268" lon="0.12309">
        <ele>2273</ele>
        <time>2016-12-09T09:02:28Z</time>
      </trkpt>
      <trkpt lat="42.92258" lon="0.12298">
        <ele>2269</ele>
        <time>2016-12-09T09:04:28Z</time>
      </trkpt>
      <trkpt lat="42.92299" lon="0.12297">
        <ele>2266</ele>
        <time>2016-12-09T09:06:28Z</time>
      </trkpt>
      <trkpt lat="42.92291" lon="0.12287">
        <ele>2263</ele>
        <time>2016-12-09T09:08:28Z</time>
      </trkpt>
      <trkpt lat="42.92305" lon="0.12283">
        <ele>2261</ele>
        <time>2016-12-09T09:10:28Z</time>
      </trkpt>
      <trkpt lat="42.92295" lon="0.12271">
        <ele>2258</ele>
        <time>2016-12-09T09:12:28Z</time>
      </trkpt>
      <trkpt lat="42.92312" lon="0.12268">
        <ele>2255</ele>
        <time>2016-12-09T09:14:28Z</time>
      </trkpt>
      <trkpt lat="42.92291" lon="0.12258">
        <ele>2255</ele>
        <time>2016-12-09T09:16:28Z</time>
      </trkpt>
      <trkpt lat="42.92314" lon="0.12252">
        <ele>2250</ele>
        <time>2016-12-09T09:18:28Z</time>
      </trkpt>
      <trkpt lat="42.92282" lon="0.12219">
        <ele>2217</ele>
        <time>2016-12-09T09:20:28Z</time>
      </trkpt>
      <trkpt lat="42.92322" lon="0.1221">
        <ele>2214</ele>
        <time>2016-12-09T09:22:28Z</time>
      </trkpt>
      <trkpt lat="42.92391" lon="0.12234">
        <ele>2219</ele>
        <time>2016-12-09T09:24:28Z</time>
      </trkpt>
      <trkpt lat="42.92463" lon="0.12187">
        <ele>2221</ele>
        <time>2016-12-09T09:26:28Z</time>
      </trkpt>
      <trkpt lat="42.92522" lon="0.12114">
        <ele>2224</ele>
        <time>2016-12-09T09:28:28Z</time>
      </trkpt>
      <trkpt lat="42.92543" lon="0.12042">
        <ele>2218</ele>
        <time>2016-12-09T09:30:28Z</time>
      </trkpt>
      <trkpt lat="42.92584" lon="0.11962">
        <ele>2228</ele>
        <time>2016-12-09T09:32:28Z</time>
      </trkpt>
      <trkpt lat="42.92604" lon="0.11886">
        <ele>2222</ele>
        <time>2016-12-09T09:34:28Z</time>
      </trkpt>
      <trkpt lat="42.9263" lon="0.1186">
        <ele>2222</ele>
        <time>2016-12-09T09:36:28Z</time>
      </trkpt>
      <trkpt lat="42.92684" lon="0.11873">
        <ele>2225</ele>
        <time>2016-12-09T09:38:28Z</time>
      </trkpt>
      <trkpt lat="42.92732" lon="0.11828">
        <ele>2218</ele>
        <time>2016-12-09T09:40:28Z</time>
      </trkpt>
      <trkpt lat="42.92777" lon="0.11762">
        <ele>2221</ele>
        <time>2016-12-09T09:42:28Z</time>
      </trkpt>
      <trkpt lat="42.92859" lon="0.11738">
        <ele>2226</ele>
        <time>2016-12-09T09:44:28Z</time>
      </trkpt>
      <trkpt lat="42.92886" lon="0.11651">
        <ele>2227</ele>
        <time>2016-12-09T09:46:28Z</time>
      </trkpt>
      <trkpt lat="42.92907" lon="0.11625">
        <ele>2228</ele>
        <time>2016-12-09T09:48:28Z</time>
      </trkpt>
      <trkpt lat="42.92938" lon="0.11603">
        <ele>2241</ele>
        <time>2016-12-09T09:50:28Z</time>
      </trkpt>
      <trkpt lat="42.92954" lon="0.11599">
        <ele>2245</ele>
        <time>2016-12-09T09:52:28Z</time>
      </trkpt>
      <trkpt lat="42.92965" lon="0.11593">
        <ele>2247</ele>
        <time>2016-12-09T09:54:28Z</time>
      </trkpt>
      <trkpt lat="42.92984" lon="0.11582">
        <ele>2257</ele>
        <time>2016-12-09T09:56:28Z</time>
      </trkpt>
      <trkpt lat="42.93008" lon="0.11552">
        <ele>2267</ele>
        <time>2016-12-09T09:58:28Z</time>
      </trkpt>
      <trkpt lat="42.93001" lon="0.11529">
        <ele>2269</ele>
        <time>2016-12-09T10:00:28Z</time>
      </trkpt>
      <trkpt lat="42.93001" lon="0.11479">
        <ele>2283</ele>
        <time>2016-12-09T10:02:28Z</time>
      </trkpt>
      <trkpt lat="42.9301" lon="0.11429">
        <ele>2294</ele>
        <time>2016-12-09T10:04:28Z</time>
      </trkpt>
      <trkpt lat="42.93039" lon="0.11474">
        <ele>2287</ele>
        <time>2016-12-09T10:06:28Z</time>
      </trkpt>
      <trkpt lat="42.93051" lon="0.11427">
        <ele>2297</ele>
        <time>2016-12-09T10:08:28Z</time>
      </trkpt>
      <trkpt lat="42.93075" lon="0.11465">
        <ele>2290</ele>
        <time>2016-12-09T10:10:28Z</time>
      </trkpt>
      <trkpt lat="42.93098" lon="0.11383">
        <ele>2377</ele>
        <time>2016-12-09T10:12:28Z</time>
      </trkpt>
      <trkpt lat="42.93094" lon="0.11355">
        <ele>2375</ele>
        <time>2016-12-09T10:14:28Z</time>
      </trkpt>
      <trkpt lat="42.93108" lon="0.11313">
        <ele>2384</ele>
        <time>2016-12-09T10:16:28Z</time>
      </trkpt>
      <trkpt lat="42.93067" lon="0.11264">
        <ele>2368</ele>
        <time>2016-12-09T10:18:28Z</time>
      </trkpt>
      <trkpt lat="42.93089" lon="0.11204">
        <ele>2376</ele>
        <time>2016-12-09T10:20:28Z</time>
      </trkpt>
      <trkpt lat="42.93115" lon="0.11146">
        <ele>2362</ele>
        <time>2016-12-09T10:22:28Z</time>
      </trkpt>
      <trkpt lat="42.93147" lon="0.11019">
        <ele>2351</ele>
        <time>2016-12-09T10:24:28Z</time>
      </trkpt>
      <trkpt lat="42.93139" lon="0.10894">
        <ele>2323</ele>
        <time>2016-12-09T10:26:28Z</time>
      </trkpt>
      <trkpt lat="42.93127" lon="0.10835">
        <ele>2316</ele>
        <time>2016-12-09T10:28:28Z</time>
      </trkpt>
      <trkpt lat="42.93138" lon="0.10779">
        <ele>2306</ele>
        <time>2016-12-09T10:30:28Z</time>
      </trkpt>
      <trkpt lat="42.93122" lon="0.10713">
        <ele>2286</ele>
        <time>2016-12-09T10:32:28Z</time>
      </trkpt>
      <trkpt lat="42.93124" lon="0.10644">
        <ele>2269</ele>
        <time>2016-12-09T10:34:28Z</time>
      </trkpt>
      <trkpt lat="42.93113" lon="0.10517">
        <ele>2252</ele>
        <time>2016-12-09T10:36:28Z</time>
      </trkpt>
      <trkpt lat="42.93075" lon="0.10459">
        <ele>2236</ele>
        <time>2016-12-09T10:38:28Z</time>
      </trkpt>
      <trkpt lat="42.93052" lon="0.10299">
        <ele>2218</ele>
        <time>2016-12-09T10:40:28Z</time>
      </trkpt>
      <trkpt lat="42.93067" lon="0.1019">
        <ele>2201</ele>
        <time>2016-12-09T10:42:28Z</time>
      </trkpt>
      <trkpt lat="42.93147" lon="0.10053">
        <ele>2185</ele>
        <time>2016-12-09T10:44:28Z</time>
      </trkpt>
      <trkpt lat="42.93163" lon="0.09917">
        <ele>2165</ele>
        <time>2016-12-09T10:46:28Z</time>
      </trkpt>
      <trkpt lat="42.93191" lon="0.0977">
        <ele>2159</ele>
        <time>2016-12-09T10:48:28Z</time>
      </trkpt>
      <trkpt lat="42.93247" lon="0.09683">
        <ele>2149</ele>
        <time>2016-12-09T10:50:28Z</time>
      </trkpt>
      <trkpt lat="42.93296" lon="0.09566">
        <ele>2137</ele>
        <time>2016-12-09T10:52:28Z</time>
      </trkpt>
      <trkpt lat="42.93342" lon="0.09518">
        <ele>2136</ele>
        <time>2016-12-09T10:54:28Z</time>
      </trkpt>
      <trkpt lat="42.9342" lon="0.09484">
        <ele>2133</ele>
        <time>2016-12-09T10:56:28Z</time>
      </trkpt>
      <trkpt lat="42.93458" lon="0.09458">
        <ele>2132</ele>
        <time>2016-12-09T10:58:28Z</time>
      </trkpt>
      <trkpt lat="42.9348" lon="0.09393">
        <ele>2124</ele>
        <time>2016-12-09T11:00:28Z</time>
      </trkpt>
      <trkpt lat="42.93485" lon="0.09305">
        <ele>2113</ele>
        <time>2016-12-09T11:02:28Z</time>
      </trkpt>
      <trkpt lat="42.93487" lon="0.09245">
        <ele>2104</ele>
        <time>2016-12-09T11:04:28Z</time>
      </trkpt>
      <trkpt lat="42.93509" lon="0.09171">
        <ele>2103</ele>
        <time>2016-12-09T11:06:28Z</time>
      </trkpt>
      <trkpt lat="42.93488" lon="0.09164">
        <ele>2098</ele>
        <time>2016-12-09T11:08:28Z</time>
      </trkpt>
      <trkpt lat="42.93485" lon="0.09115">
        <ele>2094</ele>
        <time>2016-12-09T11:10:28Z</time>
      </trkpt>
      <trkpt lat="42.93471" lon="0.09107">
        <ele>2093</ele>
        <time>2016-12-09T11:12:28Z</time>
      </trkpt>
      <trkpt lat="42.93491" lon="0.09066">
        <ele>2089</ele>
        <time>2016-12-09T11:14:28Z</time>
      </trkpt>
      <trkpt lat="42.9349" lon="0.09006">
        <ele>2085</ele>
        <time>2016-12-09T11:16:28Z</time>
      </trkpt>
      <trkpt lat="42.93466" lon="0.09001">
        <ele>2083</ele>
        <time>2016-12-09T11:18:28Z</time>
      </trkpt>
      <trkpt lat="42.93464" lon="0.08952">
        <ele>2077</ele>
        <time>2016-12-09T11:20:28Z</time>
      </trkpt>
      <trkpt lat="42.93413" lon="0.08911">
        <ele>2062</ele>
        <time>2016-12-09T11:22:28Z</time>
      </trkpt>
      <trkpt lat="42.93414" lon="0.08841">
        <ele>2063</ele>
        <time>2016-12-09T11:24:28Z</time>
      </trkpt>
      <trkpt lat="42.93424" lon="0.08756">
        <ele>2071</ele>
        <time>2016-12-09T11:26:28Z</time>
      </trkpt>
      <trkpt lat="42.93429" lon="0.08702">
        <ele>2067</ele>
        <time>2016-12-09T11:28:28Z</time>
      </trkpt>
      <trkpt lat="42.93433" lon="0.08618">
        <ele>2049</ele>
        <time>2016-12-09T11:30:28Z</time>
      </trkpt>
      <trkpt lat="42.93416" lon="0.0861">
        <ele>2038</ele>
        <time>2016-12-09T11:32:28Z</time>
      </trkpt>
      <trkpt lat="42.93378" lon="0.08645">
        <ele>2037</ele>
        <time>2016-12-09T11:34:28Z</time>
      </trkpt>
      <trkpt lat="42.93326" lon="0.08563">
        <ele>2025</ele>
        <time>2016-12-09T11:36:28Z</time>
      </trkpt>
      <trkpt lat="42.9328" lon="0.08389">
        <ele>2002</ele>
        <time>2016-12-09T11:38:28Z</time>
      </trkpt>
      <trkpt lat="42.93255" lon="0.08292">
        <ele>1986</ele>
        <time>2016-12-09T11:40:28Z</time>
      </trkpt>
      <trkpt lat="42.93186" lon="0.08238">
        <ele>1979</ele>
        <time>2016-12-09T11:42:28Z</time>
      </trkpt>
      <trkpt lat="42.93127" lon="0.08143">
        <ele>1967</ele>
        <time>2016-12-09T11:44:28Z</time>
      </trkpt>
      <trkpt lat="42.93067" lon="0.08127">
        <ele>1977</ele>
        <time>2016-12-09T11:46:28Z</time>
      </trkpt>
      <trkpt lat="42.92985" lon="0.07947">
        <ele>1991</ele>
        <time>2016-12-09T11:48:28Z</time>
      </trkpt>
      <trkpt lat="42.92993" lon="0.07815">
        <ele>1999</ele>
        <time>2016-12-09T11:50:28Z</time>
      </trkpt>
      <trkpt lat="42.93033" lon="0.07683">
        <ele>2002</ele>
        <time>2016-12-09T11:52:28Z</time>
      </trkpt>
      <trkpt lat="42.93123" lon="0.07615">
        <ele>2001</ele>
        <time>2016-12-09T11:54:28Z</time>
      </trkpt>
      <trkpt lat="42.93207" lon="0.07499">
        <ele>2037</ele>
        <time>2016-12-09T11:56:28Z</time>
      </trkpt>
      <trkpt lat="42.93343" lon="0.0753">
        <ele>2026</ele>
        <time>2016-12-09T11:58:28Z</time>
      </trkpt>
      <trkpt lat="42.93462" lon="0.07534">
        <ele>2021</ele>
        <time>2016-12-09T12:00:28Z</time>
      </trkpt>
      <trkpt lat="42.93538" lon="0.0757">
        <ele>2011</ele>
        <time>2016-12-09T12:02:28Z</time>
      </trkpt>
      <trkpt lat="42.93604" lon="0.07532">
        <ele>2020</ele>
        <time>2016-12-09T12:04:28Z</time>
      </trkpt>
      <trkpt lat="42.93766" lon="0.07541">
        <ele>1990</ele>
        <time>2016-12-09T12:06:28Z</time>
      </trkpt>
      <trkpt lat="42.93833" lon="0.07556">
        <ele>1988</ele>
        <time>2016-12-09T12:08:28Z</time>
      </trkpt>
      <trkpt lat="42.93922" lon="0.07562">
        <ele>2017</ele>
        <time>2016-12-09T12:10:28Z</time>
      </trkpt>
      <trkpt lat="42.94008" lon="0.07645">
        <ele>2010</ele>
        <time>2016-12-09T12:12:28Z</time>
      </trkpt>
      <trkpt lat="42.94093" lon="0.07668">
        <ele>2025</ele>
        <time>2016-12-09T12:14:28Z</time>
      </trkpt>
      <trkpt lat="42.94114" lon="0.0762">
        <ele>2043</ele>
        <time>2016-12-09T12:16:28Z</time>
      </trkpt>
      <trkpt lat="42.94131" lon="0.07548">
        <ele>2056</ele>
        <time>2016-12-09T12:18:28Z</time>
      </trkpt>
      <trkpt lat="42.94192" lon="0.07501">
        <ele>2081</ele>
        <time>2016-12-09T12:20:28Z</time>
      </trkpt>
      <trkpt lat="42.94265" lon="0.07381">
        <ele>2127</ele>
        <time>2016-12-09T12:22:28Z</time>
      </trkpt>
      <trkpt lat="42.94296" lon="0.07301">
        <ele>2143</ele>
        <time>2016-12-09T12:24:28Z</time>
      </trkpt>
      <trkpt lat="42.94335" lon="0.07284">
        <ele>2165</ele>
        <time>2016-12-09T12:26:28Z</time>
      </trkpt>
      <trkpt lat="42.94381" lon="0.07132">
        <ele>2199</ele>
        <time>2016-12-09T12:28:28Z</time>
      </trkpt>
      <trkpt lat="42.94437" lon="0.07045">
        <ele>2228</ele>
        <time>2016-12-09T12:30:28Z</time>
      </trkpt>
      <trkpt lat="42.94425" lon="0.0698">
        <ele>2236</ele>
        <time>2016-12-09T12:32:28Z</time>
      </trkpt>
      <trkpt lat="42.9446" lon="0.06936">
        <ele>2240</ele>
        <time>2016-12-09T12:34:28Z</time>
      </trkpt>
      <trkpt lat="42.9448" lon="0.06905">
        <ele>2234</ele>
        <time>2016-12-09T12:36:28Z</time>
      </trkpt>
      <trkpt lat="42.94485" lon="0.06855">
        <ele>2224</ele>
        <time>2016-12-09T12:38:28Z</time>
      </trkpt>
      <trkpt lat="42.94463" lon="0.06831">
        <ele>2202</ele>
        <time>2016-12-09T12:40:28Z</time>
      </trkpt>
      <trkpt lat="42.94492" lon="0.0682">
        <ele>2207</ele>
        <time>2016-12-09T12:42:28Z</time>
      </trkpt>
      <trkpt lat="42.94451" lon="0.06785">
        <ele>2192</ele>
        <time>2016-12-09T12:44:28Z</time>
      </trkpt>
      <trkpt lat="42.94487" lon="0.06759">
        <ele>2190</ele>
        <time>2016-12-09T12:46:28Z</time>
      </trkpt>
      <trkpt lat="42.94471" lon="0.06725">
        <ele>2161</ele>
        <time>2016-12-09T12:48:28Z</time>
      </trkpt>
      <trkpt lat="42.94481" lon="0.06701">
        <ele>2156</ele>
        <time>2016-12-09T12:50:28Z</time>
      </trkpt>
      <trkpt lat="42.94467" lon="0.06696">
        <ele>2154</ele>
        <time>2016-12-09T12:52:28Z</time>
      </trkpt>
      <trkpt lat="42.94478" lon="0.06665">
        <ele>2132</ele>
        <time>2016-12-09T12:54:28Z</time>
      </trkpt>
      <trkpt lat="42.94452" lon="0.06659">
        <ele>2125</ele>
        <time>2016-12-09T12:56:28Z</time>
      </trkpt>
      <trkpt lat="42.94473" lon="0.06605">
        <ele>2119</ele>
        <time>2016-12-09T12:58:28Z</time>
      </trkpt>
      <trkpt lat="42.94439" lon="0.06584">
        <ele>2111</ele>
        <time>2016-12-09T13:00:28Z</time>
      </trkpt>
      <trkpt lat="42.94444" lon="0.06536">
        <ele>2098</ele>
        <time>2016-12-09T13:02:28Z</time>
      </trkpt>
      <trkpt lat="42.94416" lon="0.06534">
        <ele>2086</ele>
        <time>2016-12-09T13:04:28Z</time>
      </trkpt>
      <trkpt lat="42.94415" lon="0.06509">
        <ele>2086</ele>
        <time>2016-12-09T13:06:28Z</time>
      </trkpt>
      <trkpt lat="42.94389" lon="0.06498">
        <ele>2076</ele>
        <time>2016-12-09T13:08:28Z</time>
      </trkpt>
      <trkpt lat="42.94394" lon="0.06448">
        <ele>2072</ele>
        <time>2016-12-09T13:10:28Z</time>
      </trkpt>
      <trkpt lat="42.94409" lon="0.06329">
        <ele>2016</ele>
        <time>2016-12-09T13:12:28Z</time>
      </trkpt>
      <trkpt lat="42.94422" lon="0.06211">
        <ele>1978</ele>
        <time>2016-12-09T13:14:28Z</time>
      </trkpt>
      <trkpt lat="42.94394" lon="0.0619">
        <ele>1950</ele>
        <time>2016-12-09T13:16:28Z</time>
      </trkpt>
      <trkpt lat="42.94422" lon="0.06141">
        <ele>1958</ele>
        <time>2016-12-09T13:18:28Z</time>
      </trkpt>
      <trkpt lat="42.94382" lon="0.06098">
        <ele>1924</ele>
        <time>2016-12-09T13:20:28Z</time>
      </trkpt>
      <trkpt lat="42.94403" lon="0.06079">
        <ele>1921</ele>
        <time>2016-12-09T13:22:28Z</time>
      </trkpt>
      <trkpt lat="42.94374" lon="0.06059">
        <ele>1904</ele>
        <time>2016-12-09T13:24:28Z</time>
      </trkpt>
      <trkpt lat="42.94376" lon="0.06022">
        <ele>1900</ele>
        <time>2016-12-09T13:26:28Z</time>
      </trkpt>
      <trkpt lat="42.94342" lon="0.05981">
        <ele>1877</ele>
        <time>2016-12-09T13:28:28Z</time>
      </trkpt>
      <trkpt lat="42.94253" lon="0.05942">
        <ele>1855</ele>
        <time>2016-12-09T13:30:28Z</time>
      </trkpt>
      <trkpt lat="42.94263" lon="0.0587">
        <ele>1826</ele>
        <time>2016-12-09T13:32:28Z</time>
      </trkpt>
      <trkpt lat="42.94279" lon="0.05824">
        <ele>1797</ele>
        <time>2016-12-09T13:34:28Z</time>
      </trkpt>
      <trkpt lat="42.94299" lon="0.0574">
        <ele>1786</ele>
        <time>2016-12-09T13:36:28Z</time>
      </trkpt>
      <trkpt lat="42.94332" lon="0.05688">
        <ele>1782</ele>
        <time>2016-12-09T13:38:28Z</time>
      </trkpt>
      <trkpt lat="42.94382" lon="0.0564">
        <ele>1773</ele>
        <time>2016-12-09T13:40:28Z</time>
      </trkpt>
      <trkpt lat="42.94397" lon="0.05598">
        <ele>1770</ele>
        <time>2016-12-09T13:42:28Z</time>
      </trkpt>
      <trkpt lat="42.94404" lon="0.05559">
        <ele>1773</ele>
        <time>2016-12-09T13:44:28Z</time>
      </trkpt>
      <trkpt lat="42.94456" lon="0.05526">
        <ele>1762</ele>
        <time>2016-12-09T13:46:28Z</time>
      </trkpt>
      <trkpt lat="42.94501" lon="0.05473">
        <ele>1756</ele>
        <time>2016-12-09T13:48:28Z</time>
      </trkpt>
      <trkpt lat="42.94544" lon="0.05442">
        <ele>1756</ele>
        <time>2016-12-09T13:50:28Z</time>
      </trkpt>
      <trkpt lat="42.94561" lon="0.05322">
        <ele>1769</ele>
        <time>2016-12-09T13:52:28Z</time>
      </trkpt>
      <trkpt lat="42.94609" lon="0.05294">
        <ele>1760</ele>
        <time>2016-12-09T13:54:28Z</time>
      </trkpt>
      <trkpt lat="42.94672" lon="0.0519">
        <ele>1756</ele>
        <time>2016-12-09T13:56:28Z</time>
      </trkpt>
      <trkpt lat="42.94731" lon="0.05131">
        <ele>1754</ele>
        <time>2016-12-09T13:58:28Z</time>
      </trkpt>
      <trkpt lat="42.94782" lon="0.05031">
        <ele>1746</ele>
        <time>2016-12-09T14:00:28Z</time>
      </trkpt>
      <trkpt lat="42.94794" lon="0.04927">
        <ele>1744</ele>
        <time>2016-12-09T14:02:28Z</time>
      </trkpt>
      <trkpt lat="42.94802" lon="0.0483">
        <ele>1731</ele>
        <time>2016-12-09T14:04:28Z</time>
      </trkpt>
      <trkpt lat="42.94854" lon="0.04734">
        <ele>1712</ele>
        <time>2016-12-09T14:06:28Z</time>
      </trkpt>
      <trkpt lat="42.94904" lon="0.04623">
        <ele>1695</ele>
        <time>2016-12-09T14:08:28Z</time>
      </trkpt>
      <trkpt lat="42.94954" lon="0.04503">
        <ele>1677</ele>
        <time>2016-12-09T14:10:28Z</time>
      </trkpt>
      <trkpt lat="42.94967" lon="0.04362">
        <ele>1684</ele>
        <time>2016-12-09T14:12:28Z</time>
      </trkpt>
      <trkpt lat="42.95011" lon="0.04321">
        <ele>1678</ele>
        <time>2016-12-09T14:14:28Z</time>
      </trkpt>
      <trkpt lat="42.95061" lon="0.04248">
        <ele>1690</ele>
        <time>2016-12-09T14:16:28Z</time>
      </trkpt>
      <trkpt lat="42.95114" lon="0.04191">
        <ele>1690</ele>
        <time>2016-12-09T14:18:28Z</time>
      </trkpt>
      <trkpt lat="42.95169" lon="0.04163">
        <ele>1692</ele>
        <time>2016-12-09T14:20:28Z</time>
      </trkpt>
      <trkpt lat="42.95246" lon="0.04121">
        <ele>1708</ele>
        <time>2016-12-09T14:22:28Z</time>
      </trkpt>
      <trkpt lat="42.95284" lon="0.04083">
        <ele>1723</ele>
        <time>2016-12-09T14:24:28Z</time>
      </trkpt>
      <trkpt lat="42.9532" lon="0.04027">
        <ele>1727</ele>
        <time>2016-12-09T14:26:28Z</time>
      </trkpt>
      <trkpt lat="42.95331" lon="0.03973">
        <ele>1734</ele>
        <time>2016-12-09T14:28:28Z</time>
      </trkpt>
      <trkpt lat="42.95314" lon="0.03941">
        <ele>1735</ele>
        <time>2016-12-09T14:30:28Z</time>
      </trkpt>
      <trkpt lat="42.95341" lon="0.03895">
        <ele>1737</ele>
        <time>2016-12-09T14:32:28Z</time>
      </trkpt>
      <trkpt lat="42.95414" lon="0.03825">
        <ele>1747</ele>
        <time>2016-12-09T14:34:28Z</time>
      </trkpt>
      <trkpt lat="42.95489" lon="0.03782">
        <ele>1768</ele>
        <time>2016-12-09T14:36:28Z</time>
      </trkpt>
      <trkpt lat="42.95565" lon="0.03776">
        <ele>1774</ele>
        <time>2016-12-09T14:38:28Z</time>
      </trkpt>
      <trkpt lat="42.95601" lon="0.03771">
        <ele>1774</ele>
        <time>2016-12-09T14:40:28Z</time>
      </trkpt>
      <trkpt lat="42.95639" lon="0.03776">
        <ele>1769</ele>
        <time>2016-12-09T14:42:28Z</time>
      </trkpt>
      <trkpt lat="42.95607" lon="0.03731">
        <ele>1799</ele>
        <time>2016-12-09T14:44:28Z</time>
      </trkpt>
      <trkpt lat="42.95595" lon="0.03707">
        <ele>1805</ele>
        <time>2016-12-09T14:46:28Z</time>
      </trkpt>
      <trkpt lat="42.95565" lon="0.03659">
        <ele>1823</ele>
        <time>2016-12-09T14:48:28Z</time>
      </trkpt>
      <trkpt lat="42.95493" lon="0.03592">
        <ele>1843</ele>
        <time>2016-12-09T14:50:28Z</time>
      </trkpt>
      <trkpt lat="42.95508" lon="0.03575">
        <ele>1854</ele>
        <time>2016-12-09T14:52:28Z</time>
      </trkpt>
      <trkpt lat="42.95457" lon="0.03548">
        <ele>1862</ele>
        <time>2016-12-09T14:54:28Z</time>
      </trkpt>
      <trkpt lat="42.95414" lon="0.03575">
        <ele>1862</ele>
        <time>2016-12-09T14:56:28Z</time>
      </trkpt>
      <trkpt lat="42.9542" lon="0.03503">
        <ele>1874</ele>
        <time>2016-12-09T14:58:28Z</time>
      </trkpt>
      <trkpt lat="42.95384" lon="0.03473">
        <ele>1871</ele>
        <time>2016-12-09T15:00:28Z</time>
      </trkpt>
      <trkpt lat="42.95351" lon="0.03393">
        <ele>1854</ele>
        <time>2016-12-09T15:02:28Z</time>
      </trkpt>
      <trkpt lat="42.95388" lon="0.0329">
        <ele>1839</ele>
        <time>2016-12-09T15:04:28Z</time>
      </trkpt>
      <trkpt lat="42.95415" lon="0.03268">
        <ele>1839</ele>
        <time>2016-12-09T15:06:28Z</time>
      </trkpt>
      <trkpt lat="42.95443" lon="0.03215">
        <ele>1835</ele>
        <time>2016-12-09T15:08:28Z</time>
      </trkpt>
      <trkpt lat="42.95475" lon="0.03146">
        <ele>1824</ele>
        <time>2016-12-09T15:10:28Z</time>
      </trkpt>
      <trkpt lat="42.95531" lon="0.0311">
        <ele>1828</ele>
        <time>2016-12-09T15:12:28Z</time>
      </trkpt>
      <trkpt lat="42.9557" lon="0.03078">
        <ele>1810</ele>
        <time>2016-12-09T15:14:28Z</time>
      </trkpt>
      <trkpt lat="42.95631" lon="0.03082">
        <ele>1806</ele>
        <time>2016-12-09T15:16:28Z</time>
      </trkpt>
      <trkpt lat="42.95651" lon="0.03066">
        <ele>1806</ele>
        <time>2016-12-09T15:18:28Z</time>
      </trkpt>
      <trkpt lat="42.9572" lon="0.03054">
        <ele>1805</ele>
        <time>2016-12-09T15:20:28Z</time>
      </trkpt>
      <trkpt lat="42.95738" lon="0.03011">
        <ele>1801</ele>
        <time>2016-12-09T15:22:28Z</time>
      </trkpt>
      <trkpt lat="42.95752" lon="0.02958">
        <ele>1801</ele>
        <time>2016-12-09T15:24:28Z</time>
      </trkpt>
      <trkpt lat="42.95852" lon="0.02905">
        <ele>1807</ele>
        <time>2016-12-09T15:26:28Z</time>
      </trkpt>
      <trkpt lat="42.95903" lon="0.02783">
        <ele>1795</ele>
        <time>2016-12-09T15:28:28Z</time>
      </trkpt>
      <trkpt lat="42.95928" lon="0.02694">
        <ele>1793</ele>
        <time>2016-12-09T15:30:28Z</time>
      </trkpt>
      <trkpt lat="42.95954" lon="0.02612">
        <ele>1777</ele>
        <time>2016-12-09T15:32:28Z</time>
      </trkpt>
      <trkpt lat="42.95996" lon="0.02562">
        <ele>1767</ele>
        <time>2016-12-09T15:34:28Z</time>
      </trkpt>
      <trkpt lat="42.96051" lon="0.02512">
        <ele>1782</ele>
        <time>2016-12-09T15:36:28Z</time>
      </trkpt>
      <trkpt lat="42.96125" lon="0.02457">
        <ele>1777</ele>
        <time>2016-12-09T15:38:28Z</time>
      </trkpt>
      <trkpt lat="42.96154" lon="0.02387">
        <ele>1759</ele>
        <time>2016-12-09T15:40:28Z</time>
      </trkpt>
      <trkpt lat="42.96198" lon="0.02308">
        <ele>1760</ele>
        <time>2016-12-09T15:42:28Z</time>
      </trkpt>
      <trkpt lat="42.96231" lon="0.02244">
        <ele>1742</ele>
        <time>2016-12-09T15:44:28Z</time>
      </trkpt>
      <trkpt lat="42.96281" lon="0.02151">
        <ele>1728</ele>
        <time>2016-12-09T15:46:28Z</time>
      </trkpt>
      <trkpt lat="42.96316" lon="0.02143">
        <ele>1735</ele>
        <time>2016-12-09T15:48:28Z</time>
      </trkpt>
      <trkpt lat="42.96393" lon="0.02096">
        <ele>1734</ele>
        <time>2016-12-09T15:50:28Z</time>
      </trkpt>
      <trkpt lat="42.9642" lon="0.02054">
        <ele>1723</ele>
        <time>2016-12-09T15:52:28Z</time>
      </trkpt>
      <trkpt lat="42.96453" lon="0.01949">
        <ele>1716</ele>
        <time>2016-12-09T15:54:28Z</time>
      </trkpt>
      <trkpt lat="42.96465" lon="0.01873">
        <ele>1713</ele>
        <time>2016-12-09T15:56:28Z</time>
      </trkpt>
      <trkpt lat="42.96477" lon="0.01757">
        <ele>1707</ele>
        <time>2016-12-09T15:58:28Z</time>
      </trkpt>
      <trkpt lat="42.96541" lon="0.01707">
        <ele>1715</ele>
        <time>2016-12-09T16:00:28Z</time>
      </trkpt>
      <trkpt lat="42.96574" lon="0.01572">
        <ele>1690</ele>
        <time>2016-12-09T16:02:28Z</time>
      </trkpt>
      <trkpt lat="42.96623" lon="0.01465">
        <ele>1694</ele>
        <time>2016-12-09T16:04:28Z</time>
      </trkpt>
      <trkpt lat="42.96626" lon="0.01402">
        <ele>1682</ele>
        <time>2016-12-09T16:06:28Z</time>
      </trkpt>
      <trkpt lat="42.96614" lon="0.01367">
        <ele>1679</ele>
        <time>2016-12-09T16:08:28Z</time>
      </trkpt>
      <trkpt lat="42.96654" lon="0.01283">
        <ele>1676</ele>
        <time>2016-12-09T16:10:28Z</time>
      </trkpt>
      <trkpt lat="42.96675" lon="0.01196">
        <ele>1690</ele>
        <time>2016-12-09T16:12:28Z</time>
      </trkpt>
      <trkpt lat="42.96671" lon="0.01127">
        <ele>1687</ele>
        <time>2016-12-09T16:14:28Z</time>
      </trkpt>
      <trkpt lat="42.96666" lon="0.01089">
        <ele>1674</ele>
        <time>2016-12-09T16:16:28Z</time>
      </trkpt>
      <trkpt lat="42.96689" lon="0.0105">
        <ele>1683</ele>
        <time>2016-12-09T16:18:28Z</time>
      </trkpt>
      <trkpt lat="42.96695" lon="0.01009">
        <ele>1680</ele>
        <time>2016-12-09T16:20:28Z</time>
      </trkpt>
      <trkpt lat="42.9677" lon="0.00886">
        <ele>1677</ele>
        <time>2016-12-09T16:22:28Z</time>
      </trkpt>
      <trkpt lat="42.96855" lon="0.00813">
        <ele>1671</ele>
        <time>2016-12-09T16:24:28Z</time>
      </trkpt>
      <trkpt lat="42.96873" lon="0.00824">
        <ele>1669</ele>
        <time>2016-12-09T16:26:28Z</time>
      </trkpt>
      <trkpt lat="42.96918" lon="0.00721">
        <ele>1639</ele>
        <time>2016-12-09T16:28:28Z</time>
      </trkpt>
      <trkpt lat="42.96946" lon="0.00577">
        <ele>1644</ele>
        <time>2016-12-09T16:30:28Z</time>
      </trkpt>
      <trkpt lat="42.96993" lon="0.00497">
        <ele>1632</ele>
        <time>2016-12-09T16:32:28Z</time>
      </trkpt>
      <trkpt lat="42.9706" lon="0.00366">
        <ele>1619</ele>
        <time>2016-12-09T16:34:28Z</time>
      </trkpt>
      <trkpt lat="42.97091" lon="0.00251">
        <ele>1606</ele>
        <time>2016-12-09T16:36:28Z</time>
      </trkpt>
      <trkpt lat="42.97088" lon="0.0012">
        <ele>1602</ele>
        <time>2016-12-09T16:38:28Z</time>
      </trkpt>
      <trkpt lat="42.97097" lon="-0.00012">
        <ele>1601</ele>
        <time>2016-12-09T16:40:28Z</time>
      </trkpt>
      <trkpt lat="42.97098" lon="-0.00139">
        <ele>1605</ele>
        <time>2016-12-09T16:42:28Z</time>
      </trkpt>
      <trkpt lat="42.97101" lon="-0.00202">
        <ele>1614</ele>
        <time>2016-12-09T16:44:28Z</time>
      </trkpt>
      <trkpt lat="42.97111" lon="-0.00251">
        <ele>1620</ele>
        <time>2016-12-09T16:46:28Z</time>
      </trkpt>
      <trkpt lat="42.97116" lon="-0.00292">
        <ele>1620</ele>
        <time>2016-12-09T16:48:28Z</time>
      </trkpt>
      <trkpt lat="42.9713" lon="-0.00463">
        <ele>1595</ele>
        <time>2016-12-09T16:50:28Z</time>
      </trkpt>
      <trkpt lat="42.97132" lon="-0.00639">
        <ele>1555</ele>
        <time>2016-12-09T16:52:28Z</time>
      </trkpt>
      <trkpt lat="42.97088" lon="-0.00822">
        <ele>1531</ele>
        <time>2016-12-09T16:54:28Z</time>
      </trkpt>
      <trkpt lat="42.97132" lon="-0.00895">
        <ele>1522</ele>
        <time>2016-12-09T16:56:28Z</time>
      </trkpt>
      <trkpt lat="42.97164" lon="-0.00936">
        <ele>1513</ele>
        <time>2016-12-09T16:58:28Z</time>
      </trkpt>
      <trkpt lat="42.972" lon="-0.00918">
        <ele>1503</ele>
        <time>2016-12-09T17:00:28Z</time>
      </trkpt>
      <trkpt lat="42.97245" lon="-0.00822">
        <ele>1518</ele>
        <time>2016-12-09T17:02:28Z</time>
      </trkpt>
      <trkpt lat="42.97301" lon="-0.00925">
        <ele>1498</ele>
        <time>2016-12-09T17:04:28Z</time>
      </trkpt>
      <trkpt lat="42.97302" lon="-0.01017">
        <ele>1478</ele>
        <time>2016-12-09T17:06:28Z</time>
      </trkpt>
      <trkpt lat="42.97361" lon="-0.01118">
        <ele>1474</ele>
        <time>2016-12-09T17:08:28Z</time>
      </trkpt>
      <trkpt lat="42.97366" lon="-0.01323">
        <ele>1439</ele>
        <time>2016-12-09T17:10:28Z</time>
      </trkpt>
      <trkpt lat="42.97282" lon="-0.01523">
        <ele>1401</ele>
        <time>2016-12-09T17:12:28Z</time>
      </trkpt>
      <trkpt lat="42.97222" lon="-0.01668">
        <ele>1366</ele>
        <time>2016-12-09T17:14:28Z</time>
      </trkpt>
      <trkpt lat="42.97153" lon="-0.01828">
        <ele>1345</ele>
        <time>2016-12-09T17:16:28Z</time>
      </trkpt>
      <trkpt lat="42.97204" lon="-0.01987">
        <ele>1337</ele>
        <time>2016-12-09T17:18:28Z</time>
      </trkpt>
      <trkpt lat="42.97193" lon="-0.02066">
        <ele>1326</ele>
        <time>2016-12-09T17:20:28Z</time>
      </trkpt>
      <trkpt lat="42.97251" lon="-0.02186">
        <ele>1320</ele>
        <time>2016-12-09T17:22:28Z</time>
      </trkpt>
      <trkpt lat="42.97286" lon="-0.02357">
        <ele>1295</ele>
        <time>2016-12-09T17:24:28Z</time>
      </trkpt>
      <trkpt lat="42.97327" lon="-0.02579">
        <ele>1275</ele>
        <time>2016-12-09T17:26:28Z</time>
      </trkpt>
      <trkpt lat="42.97327" lon="-0.02773">
        <ele>1238</ele>
        <time>2016-12-09T17:28:28Z</time>
      </trkpt>
      <trkpt lat="42.97252" lon="-0.02651">
        <ele>1252</ele>
        <time>2016-12-09T17:30:28Z</time>
      </trkpt>
      <trkpt lat="42.97146" lon="-0.02481">
        <ele>1243</ele>
        <time>2016-12-09T17:32:28Z</time>
      </trkpt>
      <trkpt lat="42.97178" lon="-0.02568">
        <ele>1239</ele>
        <time>2016-12-09T17:34:28Z</time>
      </trkpt>
      <trkpt lat="42.97158" lon="-0.0263">
        <ele>1219</ele>
        <time>2016-12-09T17:36:28Z</time>
      </trkpt>
      <trkpt lat="42.97166" lon="-0.02726">
        <ele>1212</ele>
        <time>2016-12-09T17:38:28Z</time>
      </trkpt>
      <trkpt lat="42.9716" lon="-0.02807">
        <ele>1201</ele>
        <time>2016-12-09T17:40:28Z</time>
      </trkpt>
      <trkpt lat="42.97156" lon="-0.02753">
        <ele>1210</ele>
        <time>2016-12-09T17:42:28Z</time>
      </trkpt>
      <trkpt lat="42.97118" lon="-0.02653">
        <ele>1213</ele>
        <time>2016-12-09T17:44:28Z</time>
      </trkpt>
      <trkpt lat="42.97056" lon="-0.02659">
        <ele>1200</ele>
        <time>2016-12-09T17:46:28Z</time>
      </trkpt>
      <trkpt lat="42.97024" lon="-0.02613">
        <ele>1201</ele>
        <time>2016-12-09T17:48:28Z</time>
      </trkpt>
      <trkpt lat="42.9696" lon="-0.0264">
        <ele>1190</ele>
        <time>2016-12-09T17:50:28Z</time>
      </trkpt>
      <trkpt lat="42.96911" lon="-0.0256">
        <ele>1199</ele>
        <time>2016-12-09T17:52:28Z</time>
      </trkpt>
      <trkpt lat="42.96923" lon="-0.02645">
        <ele>1187</ele>
        <time>2016-12-09T17:54:28Z</time>
      </trkpt>
      <trkpt lat="42.96922" lon="-0.02755">
        <ele>1171</ele>
        <time>2016-12-09T17:56:28Z</time>
      </trkpt>
      <trkpt lat="42.96922" lon="-0.02877">
        <ele>1155</ele>
        <time>2016-12-09T17:58:28Z</time>
      </trkpt>
      <trkpt lat="42.96999" lon="-0.0291">
        <ele>1153</ele>
        <time>2016-12-09T18:00:28Z</time>
      </trkpt>
      <trkpt lat="42.97081" lon="-0.02936">
        <ele>1147</ele>
        <time>2016-12-09T18:02:28Z</time>
      </trkpt>
      <trkpt lat="42.97147" lon="-0.02938">
        <ele>1148</ele>
        <time>2016-12-09T18:04:28Z</time>
      </trkpt>
      <trkpt lat="42.97222" lon="-0.03079">
        <ele>1128</ele>
        <time>2016-12-09T18:06:28Z</time>
      </trkpt>
      <trkpt lat="42.97302" lon="-0.03103">
        <ele>1116</ele>
        <time>2016-12-09T18:08:28Z</time>
      </trkpt>
      <trkpt lat="42.97381" lon="-0.03141">
        <ele>1113</ele>
        <time>2016-12-09T18:10:28Z</time>
      </trkpt>
      <trkpt lat="42.97321" lon="-0.03151">
        <ele>1108</ele>
        <time>2016-12-09T18:12:28Z</time>
      </trkpt>
      <trkpt lat="42.97243" lon="-0.03157">
        <ele>1100</ele>
        <time>2016-12-09T18:14:28Z</time>
      </trkpt>
      <trkpt lat="42.97269" lon="-0.03185">
        <ele>1091</ele>
        <time>2016-12-09T18:16:28Z</time>
      </trkpt>
      <trkpt lat="42.97328" lon="-0.03219">
        <ele>1087</ele>
        <time>2016-12-09T18:18:28Z</time>
      </trkpt>
      <trkpt lat="42.9727" lon="-0.03229">
        <ele>1084</ele>
        <time>2016-12-09T18:20:28Z</time>
      </trkpt>
      <trkpt lat="42.97302" lon="-0.03273">
        <ele>1074</ele>
        <time>2016-12-09T18:22:28Z</time>
      </trkpt>
      <trkpt lat="42.97322" lon="-0.03317">
        <ele>1070</ele>
        <time>2016-12-09T18:24:28Z</time>
      </trkpt>
      <trkpt lat="42.97282" lon="-0.03315">
        <ele>1070</ele>
        <time>2016-12-09T18:26:28Z</time>
      </trkpt>
      <trkpt lat="42.97167" lon="-0.03407">
        <ele>1052</ele>
        <time>2016-12-09T18:28:28Z</time>
      </trkpt>
      <trkpt lat="42.97071" lon="-0.03339">
        <ele>1048</ele>
        <time>2016-12-09T18:30:28Z</time>
      </trkpt>
      <trkpt lat="42.96981" lon="-0.03367">
        <ele>1048</ele>
        <time>2016-12-09T18:32:28Z</time>
      </trkpt>
      <trkpt lat="42.96937" lon="-0.03378">
        <ele>1050</ele>
        <time>2016-12-09T18:34:28Z</time>
      </trkpt>
      <trkpt lat="42.9683" lon="-0.03505">
        <ele>1061</ele>
        <time>2016-12-09T18:36:28Z</time>
      </trkpt>
      <trkpt lat="42.96806" lon="-0.03709">
        <ele>1052</ele>
        <time>2016-12-09T18:38:28Z</time>
      </trkpt>
      <trkpt lat="42.9678" lon="-0.03902">
        <ele>1048</ele>
        <time>2016-12-09T18:40:28Z</time>
      </trkpt>
      <trkpt lat="42.96847" lon="-0.03984">
        <ele>1008</ele>
        <time>2016-12-09T18:42:28Z</time>
      </trkpt>
      <trkpt lat="42.96933" lon="-0.0395">
        <ele>979</ele>
        <time>2016-12-09T18:44:28Z</time>
      </trkpt>
      <trkpt lat="42.96885" lon="-0.041">
        <ele>961</ele>
        <time>2016-12-09T18:46:28Z</time>
      </trkpt>
      <trkpt lat="42.96873" lon="-0.04262">
        <ele>938</ele>
        <time>2016-12-09T18:48:28Z</time>
      </trkpt>
      <trkpt lat="42.96861" lon="-0.0437">
        <ele>926</ele>
        <time>2016-12-09T18:50:28Z</time>
      </trkpt>
      <trkpt lat="42.96876" lon="-0.04483">
        <ele>907</ele>
        <time>2016-12-09T18:52:28Z</time>
      </trkpt>
      <trkpt lat="42.96884" lon="-0.04609">
        <ele>891</ele>
        <time>2016-12-09T18:54:28Z</time>
      </trkpt>
      <trkpt lat="42.9685" lon="-0.04728">
        <ele>882</ele>
        <time>2016-12-09T18:56:28Z</time>
      </trkpt>
      <trkpt lat="42.96878" lon="-0.04691">
        <ele>879</ele>
        <time>2016-12-09T18:58:28Z</time>
      </trkpt>
      <trkpt lat="42.96861" lon="-0.04775">
        <ele>869</ele>
        <time>2016-12-09T19:00:28Z</time>
      </trkpt>
      <trkpt lat="42.96867" lon="-0.04822">
        <ele>864</ele>
        <time>2016-12-09T19:02:28Z</time>
      </trkpt>
      <trkpt lat="42.96845" lon="-0.04901">
        <ele>849</ele>
        <time>2016-12-09T19:04:28Z</time>
      </trkpt>
      <trkpt lat="42.96792" lon="-0.04965">
        <ele>849</ele>
        <time>2016-12-09T19:06:28Z</time>
      </trkpt>
      <trkpt lat="42.96707" lon="-0.05035">
        <ele>842</ele>
        <time>2016-12-09T19:08:28Z</time>
      </trkpt>
      <trkpt lat="42.96677" lon="-0.05099">
        <ele>822</ele>
        <time>2016-12-09T19:10:28Z</time>
      </trkpt>
      <trkpt lat="42.96592" lon="-0.05131">
        <ele>815</ele>
        <time>2016-12-09T19:12:28Z</time>
      </trkpt>
      <trkpt lat="42.9665" lon="-0.05132">
        <ele>816</ele>
        <time>2016-12-09T19:14:28Z</time>
      </trkpt>
      <trkpt lat="42.96781" lon="-0.05154">
        <ele>801</ele>
        <time>2016-12-09T19:16:28Z</time>
      </trkpt>
      <trkpt lat="42.96774" lon="-0.05201">
        <ele>785</ele>
        <time>2016-12-09T19:18:28Z</time>
      </trkpt>
      <trkpt lat="42.96839" lon="-0.05146">
        <ele>786</ele>
        <time>2016-12-09T19:20:28Z</time>
      </trkpt>
      <trkpt lat="42.96827" lon="-0.05197">
        <ele>782</ele>
        <time>2016-12-09T19:22:28Z</time>
      </trkpt>
      <trkpt lat="42.96818" lon="-0.0524">
        <ele>774</ele>
        <time>2016-12-09T19:24:28Z</time>
      </trkpt>
      <trkpt lat="42.96792" lon="-0.05262">
        <ele>760</ele>
        <time>2016-12-09T19:26:28Z</time>
      </trkpt>
      <trkpt lat="42.9672" lon="-0.05265">
        <ele>766</ele>
        <time>2016-12-09T19:28:28Z</time>
      </trkpt>
      <trkpt lat="42.96608" lon="-0.053">
        <ele>758</ele>
        <time>2016-12-09T19:30:28Z</time>
      </trkpt>
      <trkpt lat="42.96517" lon="-0.05269">
        <ele>743</ele>
        <time>2016-12-09T19:32:28Z</time>
      </trkpt>
      <trkpt lat="42.9648" lon="-0.0524">
        <ele>740</ele>
        <time>2016-12-09T19:34:28Z</time>
      </trkpt>
      <trkpt lat="42.96424" lon="-0.05234">
        <ele>725</ele>
        <time>2016-12-09T19:36:28Z</time>
      </trkpt>
      <trkpt lat="42.96328" lon="-0.05191">
        <ele>703</ele>
        <time>2016-12-09T19:38:28Z</time>
      </trkpt>
      <trkpt lat="42.96269" lon="-0.0514">
        <ele>729</ele>
        <time>2016-12-09T19:40:28Z</time>
      </trkpt>
      <trkpt lat="42.9622" lon="-0.05189">
        <ele>711</ele>
        <time>2016-12-09T19:42:28Z</time>
      </trkpt>
      <trkpt lat="42.96199" lon="-0.05234">
        <ele>708</ele>
        <time>2016-12-09T19:44:28Z</time>
      </trkpt>
      <trkpt lat="42.96147" lon="-0.05244">
        <ele>739</ele>
        <time>2016-12-09T19:46:28Z</time>
      </trkpt>
      <trkpt lat="42.96134" lon="-0.0529">
        <ele>726</ele>
        <time>2016-12-09T19:48:28Z</time>
      </trkpt>
      <trkpt lat="42.96122" lon="-0.05396">
        <ele>694</ele>
        <time>2016-12-09T19:50:28Z</time>
      </trkpt>
      <trkpt lat="42.9609" lon="-0.05476">
        <ele>672</ele>
        <time>2016-12-09T19:52:28Z</time>
      </trkpt>
      <trkpt lat="42.96054" lon="-0.05536">
        <ele>652</ele>
        <time>2016-12-09T19:54:28Z</time>
      </trkpt>
      <trkpt lat="42.96005" lon="-0.05577">
        <ele>638</ele>
        <time>2016-12-09T19:56:28Z</time>
      </trkpt>
      <trkpt lat="42.95981" lon="-0.05549">
        <ele>632</ele>
        <time>2016-12-09T19:58:28Z</time>
      </trkpt>
      <trkpt lat="42.95976" lon="-0.05502">
        <ele>643</ele>
        <time>2016-12-09T20:00:28Z</time>
      </trkpt>
      <trkpt lat="42.95931" lon="-0.05471">
        <ele>655</ele>
        <time>2016-12-09T20:02:28Z</time>
      </trkpt>
      <trkpt lat="42.95898" lon="-0.05451">
        <ele>629</ele>
        <time>2016-12-09T20:04:28Z</time>
      </trkpt>
      <trkpt lat="42.95875" lon="-0.05453">
        <ele>622</ele>
        <time>2016-12-09T20:06:28Z</time>
      </trkpt>
      <trkpt lat="42.95747" lon="-0.05365">
        <ele>591</ele>
        <time>2016-12-09T20:08:28Z</time>
      </trkpt>
      <trkpt lat="42.95657" lon="-0.05318">
        <ele>584</ele>
        <time>2016-12-09T20:10:28Z</time>
      </trkpt>
      <trkpt lat="42.95588" lon="-0.05373">
        <ele>557</ele>
        <time>2016-12-09T20:12:28Z</time>
      </trkpt>
      <trkpt lat="42.95567" lon="-0.05485">
        <ele>535</ele>
        <time>2016-12-09T20:14:28Z</time>
      </trkpt>
      <trkpt lat="42.95516" lon="-0.05562">
        <ele>530</ele>
        <time>2016-12-09T20:16:28Z</time>
      </trkpt>
      <trkpt lat="42.95441" lon="-0.05615">
        <ele>534</ele>
        <time>2016-12-09T20:18:28Z</time>
      </trkpt>
      <trkpt lat="42.95454" lon="-0.05659">
        <ele>530</ele>
        <time>2016-12-09T20:20:28Z</time>
      </trkpt>
      <trkpt lat="42.95431" lon="-0.05764">
        <ele>525</ele>
        <time>2016-12-09T20:22:28Z</time>
      </trkpt>
      <trkpt lat="42.95406" lon="-0.05813">
        <ele>527</ele>
        <time>2016-12-09T20:24:28Z</time>
      </trkpt>
      <trkpt lat="42.95359" lon="-0.05884">
        <ele>525</ele>
        <time>2016-12-09T20:26:28Z</time>
      </trkpt>
      <trkpt lat="42.95346" lon="-0.05982">
        <ele>520</ele>
        <time>2016-12-09T20:28:28Z</time>
      </trkpt>
      <trkpt lat="42.95337" lon="-0.06073">
        <ele>516</ele>
        <time>2016-12-09T20:30:28Z</time>
      </trkpt>
      <trkpt lat="42.9536" lon="-0.0615">
        <ele>511</ele>
        <time>2016-12-09T20:32:28Z</time>
      </trkpt>
      <trkpt lat="42.95341" lon="-0.06205">
        <ele>507</ele>
        <time>2016-12-09T20:34:28Z</time>
      </trkpt>
      <trkpt lat="42.95328" lon="-0.06262">
        <ele>503</ele>
        <time>2016-12-09T20:36:28Z</time>
      </trkpt>
      <trkpt lat="42.95328" lon="-0.06374">
        <ele>494</ele>
        <time>2016-12-09T20:38:28Z</time>
      </trkpt>
      <trkpt lat="42.95329" lon="-0.06482">
        <ele>487</ele>
        <time>2016-12-09T20:40:28Z</time>
      </trkpt>
      <trkpt lat="42.953" lon="-0.06577">
        <ele>480</ele>
        <time>2016-12-09T20:42:28Z</time>
      </trkpt>
      <trkpt lat="42.95218" lon="-0.06591">
        <ele>481</ele>
        <time>2016-12-09T20:44:28Z</time>
      </trkpt>
      <trkpt lat="42.95112" lon="-0.0672">
        <ele>480</ele>
        <time>2016-12-09T20:46:28Z</time>
      </trkpt>
      <trkpt lat="42.95117" lon="-0.06745">
        <ele>480</ele>
        <time>2016-12-09T20:48:28Z</time>
      </trkpt>
      <trkpt lat="42.95094" lon="-0.06803">
        <ele>483</ele>
        <time>2016-12-09T20:50:28Z</time>
      </trkpt>
      <trkpt lat="42.95132" lon="-0.06868">
        <ele>490</ele>
        <time>2016-12-09T20:52:28Z</time>
      </trkpt>
      <trkpt lat="42.95149" lon="-0.06938">
        <ele>508</ele>
        <time>2016-12-09T20:54:28Z</time>
      </trkpt>
      <trkpt lat="42.95183" lon="-0.06989">
        <ele>504</ele>
        <time>2016-12-09T20:56:28Z</time>
      </trkpt>
      <trkpt lat="42.95158" lon="-0.06977">
        <ele>516</ele>
        <time>2016-12-09T20:58:28Z</time>
      </trkpt>
      <trkpt lat="42.9516" lon="-0.06994">
        <ele>517</ele>
        <time>2016-12-09T21:00:28Z</time>
      </trkpt>
      <trkpt lat="42.95145" lon="-0.0699">
        <ele>519</ele>
        <time>2016-12-09T21:02:28Z</time>
      </trkpt>
      <trkpt lat="42.95151" lon="-0.07007">
        <ele>537</ele>
        <time>2016-12-09T21:04:28Z</time>
      </trkpt>
      <trkpt lat="42.95127" lon="-0.0701">
        <ele>550</ele>
        <time>2016-12-09T21:06:28Z</time>
      </trkpt>
      <trkpt lat="42.9521" lon="-0.07059">
        <ele>530</ele>
        <time>2016-12-09T21:08:28Z</time>
      </trkpt>
      <trkpt lat="42.95315" lon="-0.07124">
        <ele>533</ele>
        <time>2016-12-09T21:10:28Z</time>
      </trkpt>
      <trkpt lat="42.95418" lon="-0.07253">
        <ele>521</ele>
        <time>2016-12-09T21:12:28Z</time>
      </trkpt>
      <trkpt lat="42.95473" lon="-0.07369">
        <ele>523</ele>
        <time>2016-12-09T21:14:28Z</time>
      </trkpt>
      <trkpt lat="42.95521" lon="-0.07405">
        <ele>507</ele>
        <time>2016-12-09T21:16:28Z</time>
      </trkpt>
      <trkpt lat="42.95553" lon="-0.07475">
        <ele>516</ele>
        <time>2016-12-09T21:18:28Z</time>
      </trkpt>
      <trkpt lat="42.95615" lon="-0.07489">
        <ele>505</ele>
        <time>2016-12-09T21:20:28Z</time>
      </trkpt>
      <trkpt lat="42.9566" lon="-0.07455">
        <ele>501</ele>
        <time>2016-12-09T21:22:28Z</time>
      </trkpt>
      <trkpt lat="42.95683" lon="-0.07499">
        <ele>498</ele>
        <time>2016-12-09T21:24:28Z</time>
      </trkpt>
      <trkpt lat="42.95749" lon="-0.07517">
        <ele>496</ele>
        <time>2016-12-09T21:26:28Z</time>
      </trkpt>
      <trkpt lat="42.95912" lon="-0.07455">
        <ele>490</ele>
        <time>2016-12-09T21:28:28Z</time>
      </trkpt>
      <trkpt lat="42.9593" lon="-0.07498">
        <ele>489</ele>
        <time>2016-12-09T21:30:28Z</time>
      </trkpt>
      <trkpt lat="42.9593" lon="-0.07688">
        <ele>496</ele>
        <time>2016-12-09T21:32:28Z</time>
      </trkpt>
      <trkpt lat="42.96021" lon="-0.0774">
        <ele>501</ele>
        <time>2016-12-09T21:34:28Z</time>
      </trkpt>
      <trkpt lat="42.96096" lon="-0.07792">
        <ele>513</ele>
        <time>2016-12-09T21:36:28Z</time>
      </trkpt>
      <trkpt lat="42.96152" lon="-0.07808">
        <ele>514</ele>
        <time>2016-12-09T21:38:28Z</time>
      </trkpt>
      <trkpt lat="42.96195" lon="-0.07816">
        <ele>513</ele>
        <time>2016-12-09T21:40:28Z</time>
      </trkpt>
      <trkpt lat="42.96233" lon="-0.07817">
        <ele>514</ele>
        <time>2016-12-09T21:42:28Z</time>
      </trkpt>
      <trkpt lat="42.96262" lon="-0.07813">
        <ele>514</ele>
        <time>2016-12-09T21:44:28Z</time>
      </trkpt>
      <trkpt lat="42.96299" lon="-0.07831">
        <ele>514</ele>
        <time>2016-12-09T21:46:28Z</time>
      </trkpt>
      <trkpt lat="42.9631" lon="-0.07884">
        <ele>527</ele>
        <time>2016-12-09T21:48:28Z</time>
      </trkpt>
      <trkpt lat="42.96276" lon="-0.07928">
        <ele>539</ele>
        <time>2016-12-09T21:50:28Z</time>
      </trkpt>
      <trkpt lat="42.96164" lon="-0.07962">
        <ele>551</ele>
        <time>2016-12-09T21:52:28Z</time>
      </trkpt>
      <trkpt lat="42.96184" lon="-0.08024">
        <ele>564</ele>
        <time>2016-12-09T21:54:28Z</time>
      </trkpt>
      <trkpt lat="42.96146" lon="-0.07999">
        <ele>557</ele>
        <time>2016-12-09T21:56:28Z</time>
      </trkpt>
      <trkpt lat="42.96117" lon="-0.0805">
        <ele>585</ele>
        <time>2016-12-09T21:58:28Z</time>
      </trkpt>
      <trkpt lat="42.9605" lon="-0.08008">
        <ele>597</ele>
        <time>2016-12-09T22:00:28Z</time>
      </trkpt>
      <trkpt lat="42.96053" lon="-0.08047">
        <ele>602</ele>
        <time>2016-12-09T22:02:28Z</time>
      </trkpt>
      <trkpt lat="42.96106" lon="-0.08115">
        <ele>612</ele>
        <time>2016-12-09T22:04:28Z</time>
      </trkpt>
      <trkpt lat="42.9602" lon="-0.08116">
        <ele>624</ele>
        <time>2016-12-09T22:06:28Z</time>
      </trkpt>
      <trkpt lat="42.95974" lon="-0.08133">
        <ele>632</ele>
        <time>2016-12-09T22:08:28Z</time>
      </trkpt>
      <trkpt lat="42.95983" lon="-0.08209">
        <ele>656</ele>
        <time>2016-12-09T22:10:28Z</time>
      </trkpt>
      <trkpt lat="42.95933" lon="-0.08193">
        <ele>654</ele>
        <time>2016-12-09T22:12:28Z</time>
      </trkpt>
      <trkpt lat="42.95905" lon="-0.08169">
        <ele>652</ele>
        <time>2016-12-09T22:14:28Z</time>
      </trkpt>
      <trkpt lat="42.95874" lon="-0.08179">
        <ele>660</ele>
        <time>2016-12-09T22:16:28Z</time>
      </trkpt>
      <trkpt lat="42.95896" lon="-0.08238">
        <ele>670</ele>
        <time>2016-12-09T22:18:28Z</time>
      </trkpt>
      <trkpt lat="42.95843" lon="-0.08237">
        <ele>675</ele>
        <time>2016-12-09T22:20:28Z</time>
      </trkpt>
      <trkpt lat="42.95864" lon="-0.08276">
        <ele>698</ele>
        <time>2016-12-09T22:22:28Z</time>
      </trkpt>
      <trkpt lat="42.95844" lon="-0.08293">
        <ele>703</ele>
        <time>2016-12-09T22:24:28Z</time>
      </trkpt>
      <trkpt lat="42.9588" lon="-0.08328">
        <ele>708</ele>
        <time>2016-12-09T22:26:28Z</time>
      </trkpt>
      <trkpt lat="42.95854" lon="-0.08341">
        <ele>734</ele>
        <time>2016-12-09T22:28:28Z</time>
      </trkpt>
      <trkpt lat="42.95888" lon="-0.08365">
        <ele>737</ele>
        <time>2016-12-09T22:30:28Z</time>
      </trkpt>
      <trkpt lat="42.95929" lon="-0.08402">
        <ele>742</ele>
        <time>2016-12-09T22:32:28Z</time>
      </trkpt>
      <trkpt lat="42.95982" lon="-0.08441">
        <ele>760</ele>
        <time>2016-12-09T22:34:28Z</time>
      </trkpt>
      <trkpt lat="42.96082" lon="-0.08509">
        <ele>774</ele>
        <time>2016-12-09T22:36:28Z</time>
      </trkpt>
      <trkpt lat="42.95998" lon="-0.08516">
        <ele>787</ele>
        <time>2016-12-09T22:38:28Z</time>
      </trkpt>
      <trkpt lat="42.95931" lon="-0.08541">
        <ele>795</ele>
        <time>2016-12-09T22:40:28Z</time>
      </trkpt>
      <trkpt lat="42.95979" lon="-0.08574">
        <ele>801</ele>
        <time>2016-12-09T22:42:28Z</time>
      </trkpt>
      <trkpt lat="42.96024" lon="-0.0859">
        <ele>811</ele>
        <time>2016-12-09T22:44:28Z</time>
      </trkpt>
      <trkpt lat="42.96089" lon="-0.08653">
        <ele>810</ele>
        <time>2016-12-09T22:46:28Z</time>
      </trkpt>
      <trkpt lat="42.9601" lon="-0.08652">
        <ele>826</ele>
        <time>2016-12-09T22:48:28Z</time>
      </trkpt>
      <trkpt lat="42.95893" lon="-0.08638">
        <ele>844</ele>
        <time>2016-12-09T22:50:28Z</time>
      </trkpt>
      <trkpt lat="42.95821" lon="-0.08651">
        <ele>861</ele>
        <time>2016-12-09T22:52:28Z</time>
      </trkpt>
      <trkpt lat="42.95721" lon="-0.08619">
        <ele>864</ele>
        <time>2016-12-09T22:54:28Z</time>
      </trkpt>
      <trkpt lat="42.95564" lon="-0.08603">
        <ele>885</ele>
        <time>2016-12-09T22:56:28Z</time>
      </trkpt>
      <trkpt lat="42.95512" lon="-0.08628">
        <ele>893</ele>
        <time>2016-12-09T22:58:28Z</time>
      </trkpt>
      <trkpt lat="42.95436" lon="-0.08672">
        <ele>915</ele>
        <time>2016-12-09T23:00:28Z</time>
      </trkpt>
      <trkpt lat="42.95454" lon="-0.08697">
        <ele>921</ele>
        <time>2016-12-09T23:02:28Z</time>
      </trkpt>
      <trkpt lat="42.9542" lon="-0.08688">
        <ele>916</ele>
        <time>2016-12-09T23:04:28Z</time>
      </trkpt>
      <trkpt lat="42.95385" lon="-0.08759">
        <ele>933</ele>
        <time>2016-12-09T23:06:28Z</time>
      </trkpt>
      <trkpt lat="42.95426" lon="-0.08761">
        <ele>942</ele>
        <time>2016-12-09T23:08:28Z</time>
      </trkpt>
      <trkpt lat="42.95398" lon="-0.08802">
        <ele>940</ele>
        <time>2016-12-09T23:10:28Z</time>
      </trkpt>
      <trkpt lat="42.95418" lon="-0.0881">
        <ele>955</ele>
        <time>2016-12-09T23:12:28Z</time>
      </trkpt>
      <trkpt lat="42.95433" lon="-0.0886">
        <ele>969</ele>
        <time>2016-12-09T23:14:28Z</time>
      </trkpt>
      <trkpt lat="42.95455" lon="-0.08925">
        <ele>982</ele>
        <time>2016-12-09T23:16:28Z</time>
      </trkpt>
      <trkpt lat="42.9545" lon="-0.09051">
        <ele>993</ele>
        <time>2016-12-09T23:18:28Z</time>
      </trkpt>
      <trkpt lat="42.95415" lon="-0.09092">
        <ele>985</ele>
        <time>2016-12-09T23:20:28Z</time>
      </trkpt>
      <trkpt lat="42.95399" lon="-0.09152">
        <ele>983</ele>
        <time>2016-12-09T23:22:28Z</time>
      </trkpt>
      <trkpt lat="42.95412" lon="-0.09236">
        <ele>986</ele>
        <time>2016-12-09T23:24:28Z</time>
      </trkpt>
      <trkpt lat="42.95429" lon="-0.09338">
        <ele>1007</ele>
        <time>2016-12-09T23:26:28Z</time>
      </trkpt>
      <trkpt lat="42.95372" lon="-0.09553">
        <ele>1015</ele>
        <time>2016-12-09T23:28:28Z</time>
      </trkpt>
      <trkpt lat="42.95379" lon="-0.09623">
        <ele>1024</ele>
        <time>2016-12-09T23:30:28Z</time>
      </trkpt>
      <trkpt lat="42.95396" lon="-0.09677">
        <ele>1042</ele>
        <time>2016-12-09T23:32:28Z</time>
      </trkpt>
      <trkpt lat="42.95383" lon="-0.0973">
        <ele>1049</ele>
        <time>2016-12-09T23:34:28Z</time>
      </trkpt>
      <trkpt lat="42.95322" lon="-0.09758">
        <ele>1068</ele>
        <time>2016-12-09T23:36:28Z</time>
      </trkpt>
      <trkpt lat="42.95244" lon="-0.09774">
        <ele>1067</ele>
        <time>2016-12-09T23:38:28Z</time>
      </trkpt>
      <trkpt lat="42.9516" lon="-0.09789">
        <ele>1057</ele>
        <time>2016-12-09T23:40:28Z</time>
      </trkpt>
      <trkpt lat="42.95153" lon="-0.09867">
        <ele>1075</ele>
        <time>2016-12-09T23:42:28Z</time>
      </trkpt>
      <trkpt lat="42.95161" lon="-0.09933">
        <ele>1088</ele>
        <time>2016-12-09T23:44:28Z</time>
      </trkpt>
      <trkpt lat="42.95175" lon="-0.10006">
        <ele>1109</ele>
        <time>2016-12-09T23:46:28Z</time>
      </trkpt>
      <trkpt lat="42.95161" lon="-0.1008">
        <ele>1115</ele>
        <time>2016-12-09T23:48:28Z</time>
      </trkpt>
      <trkpt lat="42.95102" lon="-0.10128">
        <ele>1119</ele>
        <time>2016-12-09T23:50:28Z</time>
      </trkpt>
      <trkpt lat="42.95039" lon="-0.10159">
        <ele>1111</ele>
        <time>2016-12-09T23:52:28Z</time>
      </trkpt>
      <trkpt lat="42.9499" lon="-0.10198">
        <ele>1116</ele>
        <time>2016-12-09T23:54:28Z</time>
      </trkpt>
      <trkpt lat="42.95046" lon="-0.10288">
        <ele>1145</ele>
        <time>2016-12-09T23:56:28Z</time>
      </trkpt>
      <trkpt lat="42.95123" lon="-0.10356">
        <ele>1173</ele>
        <time>2016-12-09T23:58:28Z</time>
      </trkpt>
      <trkpt lat="42.95136" lon="-0.10416">
        <ele>1180</ele>
        <time>2016-12-10T00:00:28Z</time>
      </trkpt>
      <trkpt lat="42.95186" lon="-0.10402">
        <ele>1195</ele>
        <time>2016-12-10T00:02:28Z</time>
      </trkpt>
      <trkpt lat="42.95126" lon="-0.10517">
        <ele>1207</ele>
        <time>2016-12-10T00:04:28Z</time>
      </trkpt>
      <trkpt lat="42.95126" lon="-0.10566">
        <ele>1213</ele>
        <time>2016-12-10T00:06:28Z</time>
      </trkpt>
      <trkpt lat="42.95151" lon="-0.10515">
        <ele>1212</ele>
        <time>2016-12-10T00:08:28Z</time>
      </trkpt>
      <trkpt lat="42.95235" lon="-0.1046">
        <ele>1223</ele>
        <time>2016-12-10T00:10:28Z</time>
      </trkpt>
      <trkpt lat="42.95296" lon="-0.10452">
        <ele>1243</ele>
        <time>2016-12-10T00:12:28Z</time>
      </trkpt>
      <trkpt lat="42.95366" lon="-0.10409">
        <ele>1244</ele>
        <time>2016-12-10T00:14:28Z</time>
      </trkpt>
      <trkpt lat="42.95423" lon="-0.10357">
        <ele>1262</ele>
        <time>2016-12-10T00:16:28Z</time>
      </trkpt>
      <trkpt lat="42.95466" lon="-0.10315">
        <ele>1257</ele>
        <time>2016-12-10T00:18:28Z</time>
      </trkpt>
      <trkpt lat="42.95499" lon="-0.10293">
        <ele>1260</ele>
        <time>2016-12-10T00:20:28Z</time>
      </trkpt>
      <trkpt lat="42.95457" lon="-0.104">
        <ele>1275</ele>
        <time>2016-12-10T00:22:28Z</time>
      </trkpt>
      <trkpt lat="42.95408" lon="-0.10477">
        <ele>1277</ele>
        <time>2016-12-10T00:24:28Z</time>
      </trkpt>
      <trkpt lat="42.95347" lon="-0.10554">
        <ele>1292</ele>
        <time>2016-12-10T00:26:28Z</time>
      </trkpt>
      <trkpt lat="42.95283" lon="-0.10618">
        <ele>1295</ele>
        <time>2016-12-10T00:28:28Z</time>
      </trkpt>
      <trkpt lat="42.95287" lon="-0.10659">
        <ele>1299</ele>
        <time>2016-12-10T00:30:28Z</time>
      </trkpt>
      <trkpt lat="42.95331" lon="-0.10708">
        <ele>1315</ele>
        <time>2016-12-10T00:32:28Z</time>
      </trkpt>
      <trkpt lat="42.9531" lon="-0.10794">
        <ele>1326</ele>
        <time>2016-12-10T00:34:28Z</time>
      </trkpt>
      <trkpt lat="42.95313" lon="-0.10969">
        <ele>1342</ele>
        <time>2016-12-10T00:36:28Z</time>
      </trkpt>
      <trkpt lat="42.95338" lon="-0.11067">
        <ele>1359</ele>
        <time>2016-12-10T00:38:28Z</time>
      </trkpt>
      <trkpt lat="42.95353" lon="-0.11028">
        <ele>1362</ele>
        <time>2016-12-10T00:40:28Z</time>
      </trkpt>
      <trkpt lat="42.95378" lon="-0.10978">
        <ele>1363</ele>
        <time>2016-12-10T00:42:28Z</time>
      </trkpt>
      <trkpt lat="42.95402" lon="-0.10964">
        <ele>1365</ele>
        <time>2016-12-10T00:44:28Z</time>
      </trkpt>
      <trkpt lat="42.95484" lon="-0.10907">
        <ele>1376</ele>
        <time>2016-12-10T00:46:28Z</time>
      </trkpt>
      <trkpt lat="42.95539" lon="-0.10906">
        <ele>1374</ele>
        <time>2016-12-10T00:48:28Z</time>
      </trkpt>
      <trkpt lat="42.95503" lon="-0.10972">
        <ele>1394</ele>
        <time>2016-12-10T00:50:28Z</time>
      </trkpt>
      <trkpt lat="42.95499" lon="-0.11045">
        <ele>1393</ele>
        <time>2016-12-10T00:52:28Z</time>
      </trkpt>
      <trkpt lat="42.9551" lon="-0.11128">
        <ele>1411</ele>
        <time>2016-12-10T00:54:28Z</time>
      </trkpt>
      <trkpt lat="42.95544" lon="-0.11199">
        <ele>1419</ele>
        <time>2016-12-10T00:56:28Z</time>
      </trkpt>
      <trkpt lat="42.95569" lon="-0.11257">
        <ele>1429</ele>
        <time>2016-12-10T00:58:28Z</time>
      </trkpt>
      <trkpt lat="42.95579" lon="-0.11315">
        <ele>1433</ele>
        <time>2016-12-10T01:00:28Z</time>
      </trkpt>
      <trkpt lat="42.95528" lon="-0.11336">
        <ele>1437</ele>
        <time>2016-12-10T01:02:28Z</time>
      </trkpt>
      <trkpt lat="42.9548" lon="-0.11417">
        <ele>1446</ele>
        <time>2016-12-10T01:04:28Z</time>
      </trkpt>
      <trkpt lat="42.95416" lon="-0.11489">
        <ele>1444</ele>
        <time>2016-12-10T01:06:28Z</time>
      </trkpt>
      <trkpt lat="42.95455" lon="-0.1162">
        <ele>1460</ele>
        <time>2016-12-10T01:08:28Z</time>
      </trkpt>
      <trkpt lat="42.95531" lon="-0.11815">
        <ele>1484</ele>
        <time>2016-12-10T01:10:28Z</time>
      </trkpt>
      <trkpt lat="42.95453" lon="-0.11943">
        <ele>1475</ele>
        <time>2016-12-10T01:12:28Z</time>
      </trkpt>
      <trkpt lat="42.9546" lon="-0.12035">
        <ele>1484</ele>
        <time>2016-12-10T01:14:28Z</time>
      </trkpt>
      <trkpt lat="42.95553" lon="-0.12146">
        <ele>1509</ele>
        <time>2016-12-10T01:16:28Z</time>
      </trkpt>
      <trkpt lat="42.95672" lon="-0.12191">
        <ele>1531</ele>
        <time>2016-12-10T01:18:28Z</time>
      </trkpt>
      <trkpt lat="42.95737" lon="-0.1224">
        <ele>1539</ele>
        <time>2016-12-10T01:20:28Z</time>
      </trkpt>
      <trkpt lat="42.95825" lon="-0.12258">
        <ele>1549</ele>
        <time>2016-12-10T01:22:28Z</time>
      </trkpt>
      <trkpt lat="42.95858" lon="-0.12422">
        <ele>1545</ele>
        <time>2016-12-10T01:24:28Z</time>
      </trkpt>
      <trkpt lat="42.95903" lon="-0.12545">
        <ele>1550</ele>
        <time>2016-12-10T01:26:28Z</time>
      </trkpt>
      <trkpt lat="42.95928" lon="-0.12622">
        <ele>1533</ele>
        <time>2016-12-10T01:28:28Z</time>
      </trkpt>
      <trkpt lat="42.95964" lon="-0.12744">
        <ele>1537</ele>
        <time>2016-12-10T01:30:28Z</time>
      </trkpt>
      <trkpt lat="42.96016" lon="-0.12851">
        <ele>1529</ele>
        <time>2016-12-10T01:32:28Z</time>
      </trkpt>
      <trkpt lat="42.96054" lon="-0.12931">
        <ele>1527</ele>
        <time>2016-12-10T01:34:28Z</time>
      </trkpt>
      <trkpt lat="42.96106" lon="-0.13012">
        <ele>1512</ele>
        <time>2016-12-10T01:36:28Z</time>
      </trkpt>
      <trkpt lat="42.96122" lon="-0.13109">
        <ele>1506</ele>
        <time>2016-12-10T01:38:28Z</time>
      </trkpt>
      <trkpt lat="42.96065" lon="-0.13188">
        <ele>1510</ele>
        <time>2016-12-10T01:40:28Z</time>
      </trkpt>
      <trkpt lat="42.96128" lon="-0.13167">
        <ele>1496</ele>
        <time>2016-12-10T01:42:28Z</time>
      </trkpt>
      <trkpt lat="42.96181" lon="-0.13083">
        <ele>1490</ele>
        <time>2016-12-10T01:44:28Z</time>
      </trkpt>
      <trkpt lat="42.96156" lon="-0.13199">
        <ele>1491</ele>
        <time>2016-12-10T01:46:28Z</time>
      </trkpt>
      <trkpt lat="42.96122" lon="-0.1327">
        <ele>1481</ele>
        <time>2016-12-10T01:48:28Z</time>
      </trkpt>
      <trkpt lat="42.96068" lon="-0.13345">
        <ele>1479</ele>
        <time>2016-12-10T01:50:28Z</time>
      </trkpt>
      <trkpt lat="42.95977" lon="-0.13304">
        <ele>1509</ele>
        <time>2016-12-10T01:52:28Z</time>
      </trkpt>
      <trkpt lat="42.96008" lon="-0.13411">
        <ele>1488</ele>
        <time>2016-12-10T01:54:28Z</time>
      </trkpt>
      <trkpt lat="42.95968" lon="-0.13508">
        <ele>1510</ele>
        <time>2016-12-10T01:56:28Z</time>
      </trkpt>
      <trkpt lat="42.96027" lon="-0.13566">
        <ele>1496</ele>
        <time>2016-12-10T01:58:28Z</time>
      </trkpt>
      <trkpt lat="42.96052" lon="-0.13609">
        <ele>1507</ele>
        <time>2016-12-10T02:00:28Z</time>
      </trkpt>
      <trkpt lat="42.96109" lon="-0.13639">
        <ele>1497</ele>
        <time>2016-12-10T02:02:28Z</time>
      </trkpt>
      <trkpt lat="42.96162" lon="-0.13673">
        <ele>1499</ele>
        <time>2016-12-10T02:04:28Z</time>
      </trkpt>
      <trkpt lat="42.96167" lon="-0.13639">
        <ele>1485</ele>
        <time>2016-12-10T02:06:28Z</time>
      </trkpt>
      <trkpt lat="42.96203" lon="-0.13667">
        <ele>1485</ele>
        <time>2016-12-10T02:08:28Z</time>
      </trkpt>
      <trkpt lat="42.96238" lon="-0.1362">
        <ele>1476</ele>
        <time>2016-12-10T02:10:28Z</time>
      </trkpt>
      <trkpt lat="42.96296" lon="-0.13735">
        <ele>1455</ele>
        <time>2016-12-10T02:12:28Z</time>
      </trkpt>
      <trkpt lat="42.96297" lon="-0.13802">
        <ele>1446</ele>
        <time>2016-12-10T02:14:28Z</time>
      </trkpt>
      <trkpt lat="42.96365" lon="-0.13714">
        <ele>1428</ele>
        <time>2016-12-10T02:16:28Z</time>
      </trkpt>
      <trkpt lat="42.96392" lon="-0.13791">
        <ele>1416</ele>
        <time>2016-12-10T02:18:28Z</time>
      </trkpt>
      <trkpt lat="42.96483" lon="-0.13701">
        <ele>1392</ele>
        <time>2016-12-10T02:20:28Z</time>
      </trkpt>
      <trkpt lat="42.96489" lon="-0.13806">
        <ele>1386</ele>
        <time>2016-12-10T02:22:28Z</time>
      </trkpt>
      <trkpt lat="42.96448" lon="-0.13903">
        <ele>1376</ele>
        <time>2016-12-10T02:24:28Z</time>
      </trkpt>
      <trkpt lat="42.96514" lon="-0.1386">
        <ele>1355</ele>
        <time>2016-12-10T02:26:28Z</time>
      </trkpt>
      <trkpt lat="42.96569" lon="-0.13813">
        <ele>1354</ele>
        <time>2016-12-10T02:28:28Z</time>
      </trkpt>
      <trkpt lat="42.96673" lon="-0.13744">
        <ele>1319</ele>
        <time>2016-12-10T02:30:28Z</time>
      </trkpt>
      <trkpt lat="42.96627" lon="-0.13832">
        <ele>1330</ele>
        <time>2016-12-10T02:32:28Z</time>
      </trkpt>
      <trkpt lat="42.96586" lon="-0.13905">
        <ele>1316</ele>
        <time>2016-12-10T02:34:28Z</time>
      </trkpt>
      <trkpt lat="42.96544" lon="-0.13978">
        <ele>1319</ele>
        <time>2016-12-10T02:36:28Z</time>
      </trkpt>
      <trkpt lat="42.96508" lon="-0.14068">
        <ele>1298</ele>
        <time>2016-12-10T02:38:28Z</time>
      </trkpt>
      <trkpt lat="42.96475" lon="-0.14165">
        <ele>1306</ele>
        <time>2016-12-10T02:40:28Z</time>
      </trkpt>
      <trkpt lat="42.96476" lon="-0.1427">
        <ele>1286</ele>
        <time>2016-12-10T02:42:28Z</time>
      </trkpt>
      <trkpt lat="42.96483" lon="-0.14371">
        <ele>1272</ele>
        <time>2016-12-10T02:44:28Z</time>
      </trkpt>
      <trkpt lat="42.96448" lon="-0.14452">
        <ele>1260</ele>
        <time>2016-12-10T02:46:28Z</time>
      </trkpt>
      <trkpt lat="42.96399" lon="-0.14435">
        <ele>1265</ele>
        <time>2016-12-10T02:48:28Z</time>
      </trkpt>
      <trkpt lat="42.96338" lon="-0.14422">
        <ele>1267</ele>
        <time>2016-12-10T02:50:28Z</time>
      </trkpt>
      <trkpt lat="42.96258" lon="-0.14394">
        <ele>1271</ele>
        <time>2016-12-10T02:52:28Z</time>
      </trkpt>
      <trkpt lat="42.96191" lon="-0.1436">
        <ele>1265</ele>
        <time>2016-12-10T02:54:28Z</time>
      </trkpt>
      <trkpt lat="42.96122" lon="-0.14341">
        <ele>1274</ele>
        <time>2016-12-10T02:56:28Z</time>
      </trkpt>
      <trkpt lat="42.96186" lon="-0.14388">
        <ele>1258</ele>
        <time>2016-12-10T02:58:28Z</time>
      </trkpt>
      <trkpt lat="42.96257" lon="-0.14452">
        <ele>1243</ele>
        <time>2016-12-10T03:00:28Z</time>
      </trkpt>
      <trkpt lat="42.96332" lon="-0.14506">
        <ele>1227</ele>
        <time>2016-12-10T03:02:28Z</time>
      </trkpt>
      <trkpt lat="42.9637" lon="-0.14572">
        <ele>1218</ele>
        <time>2016-12-10T03:04:28Z</time>
      </trkpt>
      <trkpt lat="42.96423" lon="-0.14658">
        <ele>1195</ele>
        <time>2016-12-10T03:06:28Z</time>
      </trkpt>
      <trkpt lat="42.96481" lon="-0.14755">
        <ele>1157</ele>
        <time>2016-12-10T03:08:28Z</time>
      </trkpt>
      <trkpt lat="42.96401" lon="-0.14744">
        <ele>1157</ele>
        <time>2016-12-10T03:10:28Z</time>
      </trkpt>
      <trkpt lat="42.96351" lon="-0.14772">
        <ele>1128</ele>
        <time>2016-12-10T03:12:28Z</time>
      </trkpt>
      <trkpt lat="42.96288" lon="-0.14774">
        <ele>1109</ele>
        <time>2016-12-10T03:14:28Z</time>
      </trkpt>
      <trkpt lat="42.96219" lon="-0.14791">
        <ele>1112</ele>
        <time>2016-12-10T03:16:28Z</time>
      </trkpt>
      <trkpt lat="42.96269" lon="-0.14905">
        <ele>1070</ele>
        <time>2016-12-10T03:18:28Z</time>
      </trkpt>
      <trkpt lat="42.96301" lon="-0.1498">
        <ele>1050</ele>
        <time>2016-12-10T03:20:28Z</time>
      </trkpt>
      <trkpt lat="42.96315" lon="-0.15027">
        <ele>1032</ele>
        <time>2016-12-10T03:22:28Z</time>
      </trkpt>
      <trkpt lat="42.96403" lon="-0.15092">
        <ele>1008</ele>
        <time>2016-12-10T03:24:28Z</time>
      </trkpt>
      <trkpt lat="42.96352" lon="-0.15085">
        <ele>1005</ele>
        <time>2016-12-10T03:26:28Z</time>
      </trkpt>
      <trkpt lat="42.96398" lon="-0.15156">
        <ele>996</ele>
        <time>2016-12-10T03:28:28Z</time>
      </trkpt>
      <trkpt lat="42.96356" lon="-0.15142">
        <ele>999</ele>
        <time>2016-12-10T03:30:28Z</time>
      </trkpt>
      <trkpt lat="42.96353" lon="-0.15202">
        <ele>984</ele>
        <time>2016-12-10T03:32:28Z</time>
      </trkpt>
      <trkpt lat="42.96293" lon="-0.15253">
        <ele>983</ele>
        <time>2016-12-10T03:34:28Z</time>
      </trkpt>
      <trkpt lat="42.96212" lon="-0.15318">
        <ele>994</ele>
        <time>2016-12-10T03:36:28Z</time>
      </trkpt>
      <trkpt lat="42.96114" lon="-0.15442">
        <ele>988</ele>
        <time>2016-12-10T03:38:28Z</time>
      </trkpt>
      <trkpt lat="42.96036" lon="-0.15524">
        <ele>988</ele>
        <time>2016-12-10T03:40:28Z</time>
      </trkpt>
      <trkpt lat="42.95951" lon="-0.15592">
        <ele>986</ele>
        <time>2016-12-10T03:42:28Z</time>
      </trkpt>
      <trkpt lat="42.95863" lon="-0.15636">
        <ele>1005</ele>
        <time>2016-12-10T03:44:28Z</time>
      </trkpt>
      <trkpt lat="42.95767" lon="-0.15727">
        <ele>1008</ele>
        <time>2016-12-10T03:46:28Z</time>
      </trkpt>
      <trkpt lat="42.95654" lon="-0.15795">
        <ele>1034</ele>
        <time>2016-12-10T03:48:28Z</time>
      </trkpt>
      <trkpt lat="42.95557" lon="-0.15939">
        <ele>1022</ele>
        <time>2016-12-10T03:50:28Z</time>
      </trkpt>
      <trkpt lat="42.95462" lon="-0.16045">
        <ele>1017</ele>
        <time>2016-12-10T03:52:28Z</time>
      </trkpt>
      <trkpt lat="42.95342" lon="-0.16167">
        <ele>1000</ele>
        <time>2016-12-10T03:54:28Z</time>
      </trkpt>
      <trkpt lat="42.95208" lon="-0.16223">
        <ele>1005</ele>
        <time>2016-12-10T03:56:28Z</time>
      </trkpt>
      <trkpt lat="42.95082" lon="-0.16137">
        <ele>1038</ele>
        <time>2016-12-10T03:58:28Z</time>
      </trkpt>
      <trkpt lat="42.95069" lon="-0.16249">
        <ele>1030</ele>
        <time>2016-12-10T04:00:28Z</time>
      </trkpt>
      <trkpt lat="42.95038" lon="-0.16339">
        <ele>1032</ele>
        <time>2016-12-10T04:02:28Z</time>
      </trkpt>
      <trkpt lat="42.95006" lon="-0.16429">
        <ele>1037</ele>
        <time>2016-12-10T04:04:28Z</time>
      </trkpt>
      <trkpt lat="42.94991" lon="-0.16609">
        <ele>1022</ele>
        <time>2016-12-10T04:06:28Z</time>
      </trkpt>
      <trkpt lat="42.95035" lon="-0.16644">
        <ele>987</ele>
        <time>2016-12-10T04:08:28Z</time>
      </trkpt>
      <trkpt lat="42.94937" lon="-0.16764">
        <ele>969</ele>
        <time>2016-12-10T04:10:28Z</time>
      </trkpt>
      <trkpt lat="42.94834" lon="-0.1691">
        <ele>948</ele>
        <time>2016-12-10T04:12:28Z</time>
      </trkpt>
      <trkpt lat="42.94658" lon="-0.16991">
        <ele>989</ele>
        <time>2016-12-10T04:14:28Z</time>
      </trkpt>
      <trkpt lat="42.94567" lon="-0.17064">
        <ele>999</ele>
        <time>2016-12-10T04:16:28Z</time>
      </trkpt>
      <trkpt lat="42.94551" lon="-0.17179">
        <ele>989</ele>
        <time>2016-12-10T04:18:28Z</time>
      </trkpt>
      <trkpt lat="42.94124" lon="-0.17656">
        <ele>986</ele>
        <time>2016-12-10T04:20:28Z</time>
      </trkpt>
      <trkpt lat="42.93947" lon="-0.17734">
        <ele>991</ele>
        <time>2016-12-10T04:22:28Z</time>
      </trkpt>
      <trkpt lat="42.93953" lon="-0.17836">
        <ele>996</ele>
        <time>2016-12-10T04:24:28Z</time>
      </trkpt>
      <trkpt lat="42.9394" lon="-0.17829">
        <ele>987</ele>
        <time>2016-12-10T04:26:28Z</time>
      </trkpt>
      <trkpt lat="42.93857" lon="-0.17844">
        <ele>990</ele>
        <time>2016-12-10T04:28:28Z</time>
      </trkpt>
      <trkpt lat="42.9369" lon="-0.17824">
        <ele>1003</ele>
        <time>2016-12-10T04:30:28Z</time>
      </trkpt>
      <trkpt lat="42.93563" lon="-0.17852">
        <ele>1001</ele>
        <time>2016-12-10T04:32:28Z</time>
      </trkpt>
      <trkpt lat="42.93462" lon="-0.17951">
        <ele>1011</ele>
        <time>2016-12-10T04:34:28Z</time>
      </trkpt>
      <trkpt lat="42.93392" lon="-0.17925">
        <ele>1007</ele>
        <time>2016-12-10T04:36:28Z</time>
      </trkpt>
      <trkpt lat="42.93297" lon="-0.17998">
        <ele>1011</ele>
        <time>2016-12-10T04:38:28Z</time>
      </trkpt>
      <trkpt lat="42.93243" lon="-0.17998">
        <ele>1015</ele>
        <time>2016-12-10T04:40:28Z</time>
      </trkpt>
      <trkpt lat="42.93193" lon="-0.1804">
        <ele>1019</ele>
        <time>2016-12-10T04:42:28Z</time>
      </trkpt>
      <trkpt lat="42.93103" lon="-0.18064">
        <ele>1017</ele>
        <time>2016-12-10T04:44:28Z</time>
      </trkpt>
      <trkpt lat="42.93042" lon="-0.18108">
        <ele>1020</ele>
        <time>2016-12-10T04:46:28Z</time>
      </trkpt>
      <trkpt lat="42.92986" lon="-0.18048">
        <ele>1024</ele>
        <time>2016-12-10T04:48:28Z</time>
      </trkpt>
      <trkpt lat="42.92827" lon="-0.18085">
        <ele>1032</ele>
        <time>2016-12-10T04:50:28Z</time>
      </trkpt>
      <trkpt lat="42.92741" lon="-0.18202">
        <ele>1039</ele>
        <time>2016-12-10T04:52:28Z</time>
      </trkpt>
      <trkpt lat="42.92628" lon="-0.18301">
        <ele>1043</ele>
        <time>2016-12-10T04:54:28Z</time>
      </trkpt>
      <trkpt lat="42.9257" lon="-0.18398">
        <ele>1044</ele>
        <time>2016-12-10T04:56:28Z</time>
      </trkpt>
      <trkpt lat="42.92466" lon="-0.18351">
        <ele>1051</ele>
        <time>2016-12-10T04:58:28Z</time>
      </trkpt>
      <trkpt lat="42.92349" lon="-0.184">
        <ele>1055</ele>
        <time>2016-12-10T05:00:28Z</time>
      </trkpt>
      <trkpt lat="42.92254" lon="-0.18458">
        <ele>1056</ele>
        <time>2016-12-10T05:02:28Z</time>
      </trkpt>
      <trkpt lat="42.92211" lon="-0.18458">
        <ele>1061</ele>
        <time>2016-12-10T05:04:28Z</time>
      </trkpt>
      <trkpt lat="42.92168" lon="-0.18476">
        <ele>1063</ele>
        <time>2016-12-10T05:06:28Z</time>
      </trkpt>
      <trkpt lat="42.92119" lon="-0.18541">
        <ele>1071</ele>
        <time>2016-12-10T05:08:28Z</time>
      </trkpt>
      <trkpt lat="42.91971" lon="-0.1868">
        <ele>1080</ele>
        <time>2016-12-10T05:10:28Z</time>
      </trkpt>
      <trkpt lat="42.91878" lon="-0.18675">
        <ele>1082</ele>
        <time>2016-12-10T05:12:28Z</time>
      </trkpt>
      <trkpt lat="42.91793" lon="-0.18808">
        <ele>1084</ele>
        <time>2016-12-10T05:14:28Z</time>
      </trkpt>
      <trkpt lat="42.91734" lon="-0.18904">
        <ele>1090</ele>
        <time>2016-12-10T05:16:28Z</time>
      </trkpt>
      <trkpt lat="42.91729" lon="-0.19058">
        <ele>1109</ele>
        <time>2016-12-10T05:18:28Z</time>
      </trkpt>
      <trkpt lat="42.9151" lon="-0.19392">
        <ele>1134</ele>
        <time>2016-12-10T05:20:28Z</time>
      </trkpt>
      <trkpt lat="42.91321" lon="-0.19672">
        <ele>1160</ele>
        <time>2016-12-10T05:22:28Z</time>
      </trkpt>
      <trkpt lat="42.91256" lon="-0.19719">
        <ele>1164</ele>
        <time>2016-12-10T05:24:28Z</time>
      </trkpt>
      <trkpt lat="42.91208" lon="-0.19685">
        <ele>1146</ele>
        <time>2016-12-10T05:26:28Z</time>
      </trkpt>
      <trkpt lat="42.91165" lon="-0.19692">
        <ele>1145</ele>
        <time>2016-12-10T05:28:28Z</time>
      </trkpt>
      <trkpt lat="42.91129" lon="-0.19672">
        <ele>1147</ele>
        <time>2016-12-10T05:30:28Z</time>
      </trkpt>
      <trkpt lat="42.91069" lon="-0.19846">
        <ele>1171</ele>
        <time>2016-12-10T05:32:28Z</time>
      </trkpt>
      <trkpt lat="42.91071" lon="-0.19909">
        <ele>1172</ele>
        <time>2016-12-10T05:34:28Z</time>
      </trkpt>
      <trkpt lat="42.91046" lon="-0.19951">
        <ele>1179</ele>
        <time>2016-12-10T05:36:28Z</time>
      </trkpt>
      <trkpt lat="42.91055" lon="-0.2011">
        <ele>1180</ele>
        <time>2016-12-10T05:38:28Z</time>
      </trkpt>
      <trkpt lat="42.9098" lon="-0.20274">
        <ele>1175</ele>
        <time>2016-12-10T05:40:28Z</time>
      </trkpt>
      <trkpt lat="42.90868" lon="-0.20379">
        <ele>1173</ele>
        <time>2016-12-10T05:42:28Z</time>
      </trkpt>
      <trkpt lat="42.90656" lon="-0.20449">
        <ele>1188</ele>
        <time>2016-12-10T05:44:28Z</time>
      </trkpt>
      <trkpt lat="42.90618" lon="-0.20556">
        <ele>1193</ele>
        <time>2016-12-10T05:46:28Z</time>
      </trkpt>
      <trkpt lat="42.90573" lon="-0.20632">
        <ele>1210</ele>
        <time>2016-12-10T05:48:28Z</time>
      </trkpt>
      <trkpt lat="42.90501" lon="-0.20731">
        <ele>1219</ele>
        <time>2016-12-10T05:50:28Z</time>
      </trkpt>
      <trkpt lat="42.90433" lon="-0.20723">
        <ele>1249</ele>
        <time>2016-12-10T05:52:28Z</time>
      </trkpt>
      <trkpt lat="42.90385" lon="-0.20768">
        <ele>1263</ele>
        <time>2016-12-10T05:54:28Z</time>
      </trkpt>
      <trkpt lat="42.90347" lon="-0.20726">
        <ele>1277</ele>
        <time>2016-12-10T05:56:28Z</time>
      </trkpt>
      <trkpt lat="42.90311" lon="-0.20755">
        <ele>1287</ele>
        <time>2016-12-10T05:58:28Z</time>
      </trkpt>
      <trkpt lat="42.90288" lon="-0.20755">
        <ele>1292</ele>
        <time>2016-12-10T06:00:28Z</time>
      </trkpt>
      <trkpt lat="42.90231" lon="-0.2076">
        <ele>1307</ele>
        <time>2016-12-10T06:02:28Z</time>
      </trkpt>
      <trkpt lat="42.90204" lon="-0.2065">
        <ele>1339</ele>
        <time>2016-12-10T06:04:28Z</time>
      </trkpt>
      <trkpt lat="42.90187" lon="-0.20609">
        <ele>1346</ele>
        <time>2016-12-10T06:06:28Z</time>
      </trkpt>
      <trkpt lat="42.90149" lon="-0.20588">
        <ele>1360</ele>
        <time>2016-12-10T06:08:28Z</time>
      </trkpt>
      <trkpt lat="42.9012" lon="-0.20543">
        <ele>1381</ele>
        <time>2016-12-10T06:10:28Z</time>
      </trkpt>
      <trkpt lat="42.90046" lon="-0.20549">
        <ele>1391</ele>
        <time>2016-12-10T06:12:28Z</time>
      </trkpt>
      <trkpt lat="42.90003" lon="-0.20543">
        <ele>1394</ele>
        <time>2016-12-10T06:14:28Z</time>
      </trkpt>
      <trkpt lat="42.89967" lon="-0.20515">
        <ele>1405</ele>
        <time>2016-12-10T06:16:28Z</time>
      </trkpt>
      <trkpt lat="42.89849" lon="-0.20457">
        <ele>1439</ele>
        <time>2016-12-10T06:18:28Z</time>
      </trkpt>
      <trkpt lat="42.89813" lon="-0.20559">
        <ele>1447</ele>
        <time>2016-12-10T06:20:28Z</time>
      </trkpt>
      <trkpt lat="42.89798" lon="-0.20656">
        <ele>1442</ele>
        <time>2016-12-10T06:22:28Z</time>
      </trkpt>
      <trkpt lat="42.89772" lon="-0.20627">
        <ele>1446</ele>
        <time>2016-12-10T06:24:28Z</time>
      </trkpt>
      <trkpt lat="42.89677" lon="-0.20483">
        <ele>1489</ele>
        <time>2016-12-10T06:26:28Z</time>
      </trkpt>
      <trkpt lat="42.89634" lon="-0.20457">
        <ele>1500</ele>
        <time>2016-12-10T06:28:28Z</time>
      </trkpt>
      <trkpt lat="42.89539" lon="-0.20376">
        <ele>1524</ele>
        <time>2016-12-10T06:30:28Z</time>
      </trkpt>
      <trkpt lat="42.89316" lon="-0.20217">
        <ele>1580</ele>
        <time>2016-12-10T06:32:28Z</time>
      </trkpt>
      <trkpt lat="42.89156" lon="-0.20157">
        <ele>1590</ele>
        <time>2016-12-10T06:34:28Z</time>
      </trkpt>
      <trkpt lat="42.89049" lon="-0.20058">
        <ele>1612</ele>
        <time>2016-12-10T06:36:28Z</time>
      </trkpt>
      <trkpt lat="42.88948" lon="-0.19953">
        <ele>1638</ele>
        <time>2016-12-10T06:38:28Z</time>
      </trkpt>
      <trkpt lat="42.88829" lon="-0.19896">
        <ele>1651</ele>
        <time>2016-12-10T06:40:28Z</time>
      </trkpt>
      <trkpt lat="42.88758" lon="-0.19852">
        <ele>1663</ele>
        <time>2016-12-10T06:42:28Z</time>
      </trkpt>
      <trkpt lat="42.88738" lon="-0.19862">
        <ele>1666</ele>
        <time>2016-12-10T06:44:28Z</time>
      </trkpt>
      <trkpt lat="42.88704" lon="-0.19805">
        <ele>1683</ele>
        <time>2016-12-10T06:46:28Z</time>
      </trkpt>
      <trkpt lat="42.88652" lon="-0.19776">
        <ele>1696</ele>
        <time>2016-12-10T06:48:28Z</time>
      </trkpt>
      <trkpt lat="42.88582" lon="-0.19742">
        <ele>1718</ele>
        <time>2016-12-10T06:50:28Z</time>
      </trkpt>
      <trkpt lat="42.88511" lon="-0.19654">
        <ele>1748</ele>
        <time>2016-12-10T06:52:28Z</time>
      </trkpt>
      <trkpt lat="42.88476" lon="-0.19675">
        <ele>1752</ele>
        <time>2016-12-10T06:54:28Z</time>
      </trkpt>
      <trkpt lat="42.88454" lon="-0.19656">
        <ele>1772</ele>
        <time>2016-12-10T06:56:28Z</time>
      </trkpt>
      <trkpt lat="42.88434" lon="-0.19625">
        <ele>1779</ele>
        <time>2016-12-10T06:58:28Z</time>
      </trkpt>
      <trkpt lat="42.88352" lon="-0.19643">
        <ele>1809</ele>
        <time>2016-12-10T07:00:28Z</time>
      </trkpt>
      <trkpt lat="42.88379" lon="-0.196">
        <ele>1808</ele>
        <time>2016-12-10T07:02:28Z</time>
      </trkpt>
      <trkpt lat="42.88357" lon="-0.19607">
        <ele>1813</ele>
        <time>2016-12-10T07:04:28Z</time>
      </trkpt>
      <trkpt lat="42.88301" lon="-0.19601">
        <ele>1839</ele>
        <time>2016-12-10T07:06:28Z</time>
      </trkpt>
      <trkpt lat="42.88233" lon="-0.19635">
        <ele>1861</ele>
        <time>2016-12-10T07:08:28Z</time>
      </trkpt>
      <trkpt lat="42.88199" lon="-0.19614">
        <ele>1868</ele>
        <time>2016-12-10T07:10:28Z</time>
      </trkpt>
      <trkpt lat="42.88243" lon="-0.19526">
        <ele>1882</ele>
        <time>2016-12-10T07:12:28Z</time>
      </trkpt>
      <trkpt lat="42.88243" lon="-0.19427">
        <ele>1900</ele>
        <time>2016-12-10T07:14:28Z</time>
      </trkpt>
      <trkpt lat="42.88324" lon="-0.19325">
        <ele>1912</ele>
        <time>2016-12-10T07:16:28Z</time>
      </trkpt>
      <trkpt lat="42.88324" lon="-0.19273">
        <ele>1931</ele>
        <time>2016-12-10T07:18:28Z</time>
      </trkpt>
      <trkpt lat="42.88297" lon="-0.19288">
        <ele>1929</ele>
        <time>2016-12-10T07:20:28Z</time>
      </trkpt>
      <trkpt lat="42.88209" lon="-0.19223">
        <ele>1979</ele>
        <time>2016-12-10T07:22:28Z</time>
      </trkpt>
      <trkpt lat="42.88211" lon="-0.19155">
        <ele>2007</ele>
        <time>2016-12-10T07:24:28Z</time>
      </trkpt>
      <trkpt lat="42.88197" lon="-0.19106">
        <ele>2017</ele>
        <time>2016-12-10T07:26:28Z</time>
      </trkpt>
      <trkpt lat="42.88154" lon="-0.19126">
        <ele>2026</ele>
        <time>2016-12-10T07:28:28Z</time>
      </trkpt>
      <trkpt lat="42.88164" lon="-0.1904">
        <ele>2062</ele>
        <time>2016-12-10T07:30:28Z</time>
      </trkpt>
      <trkpt lat="42.88024" lon="-0.19048">
        <ele>2090</ele>
        <time>2016-12-10T07:32:28Z</time>
      </trkpt>
      <trkpt lat="42.88015" lon="-0.19038">
        <ele>2094</ele>
        <time>2016-12-10T07:34:28Z</time>
      </trkpt>
      <trkpt lat="42.87985" lon="-0.19045">
        <ele>2116</ele>
        <time>2016-12-10T07:36:28Z</time>
      </trkpt>
      <trkpt lat="42.87988" lon="-0.19025">
        <ele>2119</ele>
        <time>2016-12-10T07:38:28Z</time>
      </trkpt>
      <trkpt lat="42.87951" lon="-0.19017">
        <ele>2127</ele>
        <time>2016-12-10T07:40:28Z</time>
      </trkpt>
      <trkpt lat="42.87931" lon="-0.18978">
        <ele>2144</ele>
        <time>2016-12-10T07:42:28Z</time>
      </trkpt>
      <trkpt lat="42.87911" lon="-0.18983">
        <ele>2162</ele>
        <time>2016-12-10T07:44:28Z</time>
      </trkpt>
      <trkpt lat="42.87891" lon="-0.18949">
        <ele>2175</ele>
        <time>2016-12-10T07:46:28Z</time>
      </trkpt>
      <trkpt lat="42.87891" lon="-0.18837">
        <ele>2192</ele>
        <time>2016-12-10T07:48:28Z</time>
      </trkpt>
      <trkpt lat="42.8787" lon="-0.18834">
        <ele>2195</ele>
        <time>2016-12-10T07:50:28Z</time>
      </trkpt>
      <trkpt lat="42.87872" lon="-0.18813">
        <ele>2211</ele>
        <time>2016-12-10T07:52:28Z</time>
      </trkpt>
      <trkpt lat="42.8781" lon="-0.18816">
        <ele>2226</ele>
        <time>2016-12-10T07:54:28Z</time>
      </trkpt>
      <trkpt lat="42.87807" lon="-0.18766">
        <ele>2233</ele>
        <time>2016-12-10T07:56:28Z</time>
      </trkpt>
      <trkpt lat="42.87777" lon="-0.18758">
        <ele>2237</ele>
        <time>2016-12-10T07:58:28Z</time>
      </trkpt>
      <trkpt lat="42.87759" lon="-0.18731">
        <ele>2246</ele>
        <time>2016-12-10T08:00:28Z</time>
      </trkpt>
      <trkpt lat="42.87767" lon="-0.18567">
        <ele>2258</ele>
        <time>2016-12-10T08:02:28Z</time>
      </trkpt>
      <trkpt lat="42.87814" lon="-0.1847">
        <ele>2253</ele>
        <time>2016-12-10T08:04:28Z</time>
      </trkpt>
      <trkpt lat="42.8792" lon="-0.18238">
        <ele>2245</ele>
        <time>2016-12-10T08:06:28Z</time>
      </trkpt>
      <trkpt lat="42.8787" lon="-0.18128">
        <ele>2217</ele>
        <time>2016-12-10T08:08:28Z</time>
      </trkpt>
      <trkpt lat="42.87821" lon="-0.17993">
        <ele>2187</ele>
        <time>2016-12-10T08:10:28Z</time>
      </trkpt>
      <trkpt lat="42.87841" lon="-0.17938">
        <ele>2189</ele>
        <time>2016-12-10T08:12:28Z</time>
      </trkpt>
      <trkpt lat="42.87848" lon="-0.17763">
        <ele>2164</ele>
        <time>2016-12-10T08:14:28Z</time>
      </trkpt>
      <trkpt lat="42.8787" lon="-0.177">
        <ele>2157</ele>
        <time>2016-12-10T08:16:28Z</time>
      </trkpt>
      <trkpt lat="42.87843" lon="-0.17627">
        <ele>2147</ele>
        <time>2016-12-10T08:18:28Z</time>
      </trkpt>
      <trkpt lat="42.87809" lon="-0.17523">
        <ele>2130</ele>
        <time>2016-12-10T08:20:28Z</time>
      </trkpt>
      <trkpt lat="42.87746" lon="-0.17489">
        <ele>2118</ele>
        <time>2016-12-10T08:22:28Z</time>
      </trkpt>
      <trkpt lat="42.87771" lon="-0.17455">
        <ele>2116</ele>
        <time>2016-12-10T08:24:28Z</time>
      </trkpt>
      <trkpt lat="42.87759" lon="-0.17413">
        <ele>2101</ele>
        <time>2016-12-10T08:26:28Z</time>
      </trkpt>
      <trkpt lat="42.87679" lon="-0.17358">
        <ele>2087</ele>
        <time>2016-12-10T08:28:28Z</time>
      </trkpt>
      <trkpt lat="42.87611" lon="-0.17252">
        <ele>2070</ele>
        <time>2016-12-10T08:30:28Z</time>
      </trkpt>
      <trkpt lat="42.87591" lon="-0.17286">
        <ele>2067</ele>
        <time>2016-12-10T08:32:28Z</time>
      </trkpt>
      <trkpt lat="42.87559" lon="-0.17273">
        <ele>2057</ele>
        <time>2016-12-10T08:34:28Z</time>
      </trkpt>
      <trkpt lat="42.8758" lon="-0.1733">
        <ele>2057</ele>
        <time>2016-12-10T08:36:28Z</time>
      </trkpt>
      <trkpt lat="42.87542" lon="-0.17385">
        <ele>2063</ele>
        <time>2016-12-10T08:38:28Z</time>
      </trkpt>
      <trkpt lat="42.87498" lon="-0.17369">
        <ele>2056</ele>
        <time>2016-12-10T08:40:28Z</time>
      </trkpt>
      <trkpt lat="42.87392" lon="-0.17456">
        <ele>2070</ele>
        <time>2016-12-10T08:42:28Z</time>
      </trkpt>
      <trkpt lat="42.87219" lon="-0.17401">
        <ele>2051</ele>
        <time>2016-12-10T08:44:28Z</time>
      </trkpt>
      <trkpt lat="42.87095" lon="-0.1739">
        <ele>2037</ele>
        <time>2016-12-10T08:46:28Z</time>
      </trkpt>
      <trkpt lat="42.86991" lon="-0.17367">
        <ele>2029</ele>
        <time>2016-12-10T08:48:28Z</time>
      </trkpt>
      <trkpt lat="42.86946" lon="-0.17372">
        <ele>2028</ele>
        <time>2016-12-10T08:50:28Z</time>
      </trkpt>
      <trkpt lat="42.86818" lon="-0.17419">
        <ele>2016</ele>
        <time>2016-12-10T08:52:28Z</time>
      </trkpt>
      <trkpt lat="42.86653" lon="-0.17437">
        <ele>1985</ele>
        <time>2016-12-10T08:54:28Z</time>
      </trkpt>
      <trkpt lat="42.86648" lon="-0.17377">
        <ele>1979</ele>
        <time>2016-12-10T08:56:28Z</time>
      </trkpt>
      <trkpt lat="42.86576" lon="-0.17356">
        <ele>1983</ele>
        <time>2016-12-10T08:58:28Z</time>
      </trkpt>
      <trkpt lat="42.86549" lon="-0.17242">
        <ele>1982</ele>
        <time>2016-12-10T09:00:28Z</time>
      </trkpt>
      <trkpt lat="42.86576" lon="-0.17161">
        <ele>1976</ele>
        <time>2016-12-10T09:02:28Z</time>
      </trkpt>
      <trkpt lat="42.86671" lon="-0.17004">
        <ele>1954</ele>
        <time>2016-12-10T09:04:28Z</time>
      </trkpt>
      <trkpt lat="42.86732" lon="-0.16973">
        <ele>1943</ele>
        <time>2016-12-10T09:06:28Z</time>
      </trkpt>
      <trkpt lat="42.86875" lon="-0.16874">
        <ele>1914</ele>
        <time>2016-12-10T09:08:28Z</time>
      </trkpt>
      <trkpt lat="42.869" lon="-0.16914">
        <ele>1904</ele>
        <time>2016-12-10T09:10:28Z</time>
      </trkpt>
      <trkpt lat="42.86943" lon="-0.17052">
        <ele>1893</ele>
        <time>2016-12-10T09:12:28Z</time>
      </trkpt>
      <trkpt lat="42.87004" lon="-0.17096">
        <ele>1893</ele>
        <time>2016-12-10T09:14:28Z</time>
      </trkpt>
      <trkpt lat="42.87038" lon="-0.17073">
        <ele>1887</ele>
        <time>2016-12-10T09:16:28Z</time>
      </trkpt>
      <trkpt lat="42.87159" lon="-0.16801">
        <ele>1866</ele>
        <time>2016-12-10T09:18:28Z</time>
      </trkpt>
      <trkpt lat="42.87232" lon="-0.16689">
        <ele>1856</ele>
        <time>2016-12-10T09:20:28Z</time>
      </trkpt>
      <trkpt lat="42.87204" lon="-0.16673">
        <ele>1852</ele>
        <time>2016-12-10T09:22:28Z</time>
      </trkpt>
      <trkpt lat="42.87247" lon="-0.16619">
        <ele>1833</ele>
        <time>2016-12-10T09:24:28Z</time>
      </trkpt>
      <trkpt lat="42.87159" lon="-0.1664">
        <ele>1830</ele>
        <time>2016-12-10T09:26:28Z</time>
      </trkpt>
      <trkpt lat="42.87003" lon="-0.1654">
        <ele>1827</ele>
        <time>2016-12-10T09:28:28Z</time>
      </trkpt>
      <trkpt lat="42.87015" lon="-0.16501">
        <ele>1826</ele>
        <time>2016-12-10T09:30:28Z</time>
      </trkpt>
      <trkpt lat="42.86985" lon="-0.16446">
        <ele>1828</ele>
        <time>2016-12-10T09:32:28Z</time>
      </trkpt>
      <trkpt lat="42.87006" lon="-0.16381">
        <ele>1767</ele>
        <time>2016-12-10T09:34:28Z</time>
      </trkpt>
      <trkpt lat="42.86994" lon="-0.16222">
        <ele>1784</ele>
        <time>2016-12-10T09:36:28Z</time>
      </trkpt>
      <trkpt lat="42.87107" lon="-0.16462">
        <ele>1756</ele>
        <time>2016-12-10T09:38:28Z</time>
      </trkpt>
      <trkpt lat="42.8718" lon="-0.1648">
        <ele>1747</ele>
        <time>2016-12-10T09:40:28Z</time>
      </trkpt>
      <trkpt lat="42.87114" lon="-0.16405">
        <ele>1728</ele>
        <time>2016-12-10T09:42:28Z</time>
      </trkpt>
      <trkpt lat="42.87128" lon="-0.16248">
        <ele>1689</ele>
        <time>2016-12-10T09:44:28Z</time>
      </trkpt>
      <trkpt lat="42.87132" lon="-0.16144">
        <ele>1677</ele>
        <time>2016-12-10T09:46:28Z</time>
      </trkpt>
      <trkpt lat="42.87119" lon="-0.15992">
        <ele>1643</ele>
        <time>2016-12-10T09:48:28Z</time>
      </trkpt>
      <trkpt lat="42.8706" lon="-0.15828">
        <ele>1635</ele>
        <time>2016-12-10T09:50:28Z</time>
      </trkpt>
      <trkpt lat="42.87051" lon="-0.15586">
        <ele>1607</ele>
        <time>2016-12-10T09:52:28Z</time>
      </trkpt>
      <trkpt lat="42.87125" lon="-0.15354">
        <ele>1574</ele>
        <time>2016-12-10T09:54:28Z</time>
      </trkpt>
      <trkpt lat="42.87116" lon="-0.15176">
        <ele>1553</ele>
        <time>2016-12-10T09:56:28Z</time>
      </trkpt>
      <trkpt lat="42.87143" lon="-0.15069">
        <ele>1547</ele>
        <time>2016-12-10T09:58:28Z</time>
      </trkpt>
      <trkpt lat="42.87159" lon="-0.14962">
        <ele>1549</ele>
        <time>2016-12-10T10:00:28Z</time>
      </trkpt>
      <trkpt lat="42.87227" lon="-0.14879">
        <ele>1524</ele>
        <time>2016-12-10T10:02:28Z</time>
      </trkpt>
      <trkpt lat="42.87342" lon="-0.14785">
        <ele>1511</ele>
        <time>2016-12-10T10:04:28Z</time>
      </trkpt>
      <trkpt lat="42.87432" lon="-0.14722">
        <ele>1481</ele>
        <time>2016-12-10T10:06:28Z</time>
      </trkpt>
      <trkpt lat="42.87605" lon="-0.14725">
        <ele>1460</ele>
        <time>2016-12-10T10:08:28Z</time>
      </trkpt>
      <trkpt lat="42.87799" lon="-0.1462">
        <ele>1431</ele>
        <time>2016-12-10T10:10:28Z</time>
      </trkpt>
      <trkpt lat="42.87849" lon="-0.14592">
        <ele>1426</ele>
        <time>2016-12-10T10:12:28Z</time>
      </trkpt>
      <trkpt lat="42.88005" lon="-0.14456">
        <ele>1394</ele>
        <time>2016-12-10T10:14:28Z</time>
      </trkpt>
      <trkpt lat="42.88145" lon="-0.14435">
        <ele>1387</ele>
        <time>2016-12-10T10:16:28Z</time>
      </trkpt>
      <trkpt lat="42.8826" lon="-0.14361">
        <ele>1370</ele>
        <time>2016-12-10T10:18:28Z</time>
      </trkpt>
      <trkpt lat="42.88331" lon="-0.1437">
        <ele>1373</ele>
        <time>2016-12-10T10:20:28Z</time>
      </trkpt>
      <trkpt lat="42.88362" lon="-0.14158">
        <ele>1362</ele>
        <time>2016-12-10T10:22:28Z</time>
      </trkpt>
      <trkpt lat="42.88436" lon="-0.13926">
        <ele>1347</ele>
        <time>2016-12-10T10:24:28Z</time>
      </trkpt>
      <trkpt lat="42.88524" lon="-0.13783">
        <ele>1340</ele>
        <time>2016-12-10T10:26:28Z</time>
      </trkpt>
      <trkpt lat="42.88599" lon="-0.13534">
        <ele>1317</ele>
        <time>2016-12-10T10:28:28Z</time>
      </trkpt>
      <trkpt lat="42.88592" lon="-0.13416">
        <ele>1304</ele>
        <time>2016-12-10T10:30:28Z</time>
      </trkpt>
      <trkpt lat="42.88657" lon="-0.13248">
        <ele>1289</ele>
        <time>2016-12-10T10:32:28Z</time>
      </trkpt>
      <trkpt lat="42.88684" lon="-0.13147">
        <ele>1286</ele>
        <time>2016-12-10T10:34:28Z</time>
      </trkpt>
      <trkpt lat="42.8873" lon="-0.13078">
        <ele>1280</ele>
        <time>2016-12-10T10:36:28Z</time>
      </trkpt>
      <trkpt lat="42.88751" lon="-0.12969">
        <ele>1273</ele>
        <time>2016-12-10T10:38:28Z</time>
      </trkpt>
      <trkpt lat="42.88833" lon="-0.12828">
        <ele>1249</ele>
        <time>2016-12-10T10:40:28Z</time>
      </trkpt>
      <trkpt lat="42.88828" lon="-0.12789">
        <ele>1255</ele>
        <time>2016-12-10T10:42:28Z</time>
      </trkpt>
      <trkpt lat="42.88853" lon="-0.12695">
        <ele>1234</ele>
        <time>2016-12-10T10:44:28Z</time>
      </trkpt>
      <trkpt lat="42.88889" lon="-0.12711">
        <ele>1228</ele>
        <time>2016-12-10T10:46:28Z</time>
      </trkpt>
      <trkpt lat="42.88918" lon="-0.1262">
        <ele>1198</ele>
        <time>2016-12-10T10:48:28Z</time>
      </trkpt>
      <trkpt lat="42.88945" lon="-0.12648">
        <ele>1198</ele>
        <time>2016-12-10T10:50:28Z</time>
      </trkpt>
      <trkpt lat="42.88956" lon="-0.12549">
        <ele>1182</ele>
        <time>2016-12-10T10:52:28Z</time>
      </trkpt>
      <trkpt lat="42.88986" lon="-0.12578">
        <ele>1175</ele>
        <time>2016-12-10T10:54:28Z</time>
      </trkpt>
      <trkpt lat="42.89013" lon="-0.1256">
        <ele>1170</ele>
        <time>2016-12-10T10:56:28Z</time>
      </trkpt>
      <trkpt lat="42.88995" lon="-0.12426">
        <ele>1145</ele>
        <time>2016-12-10T10:58:28Z</time>
      </trkpt>
      <trkpt lat="42.88995" lon="-0.12325">
        <ele>1127</ele>
        <time>2016-12-10T11:00:28Z</time>
      </trkpt>
      <trkpt lat="42.89008" lon="-0.12178">
        <ele>1097</ele>
        <time>2016-12-10T11:02:28Z</time>
      </trkpt>
      <trkpt lat="42.88984" lon="-0.12087">
        <ele>1084</ele>
        <time>2016-12-10T11:04:28Z</time>
      </trkpt>
      <trkpt lat="42.89033" lon="-0.12066">
        <ele>1048</ele>
        <time>2016-12-10T11:06:28Z</time>
      </trkpt>
      <trkpt lat="42.89019" lon="-0.11949">
        <ele>1013</ele>
        <time>2016-12-10T11:08:28Z</time>
      </trkpt>
      <trkpt lat="42.89085" lon="-0.11931">
        <ele>996</ele>
        <time>2016-12-10T11:10:28Z</time>
      </trkpt>
      <trkpt lat="42.89062" lon="-0.11818">
        <ele>961</ele>
        <time>2016-12-10T11:12:28Z</time>
      </trkpt>
      <trkpt lat="42.89054" lon="-0.11714">
        <ele>943</ele>
        <time>2016-12-10T11:14:28Z</time>
      </trkpt>
      <trkpt lat="42.88913" lon="-0.11696">
        <ele>954</ele>
        <time>2016-12-10T11:16:28Z</time>
      </trkpt>
      <trkpt lat="42.88817" lon="-0.11623">
        <ele>950</ele>
        <time>2016-12-10T11:18:28Z</time>
      </trkpt>
      <trkpt lat="42.88739" lon="-0.11596">
        <ele>957</ele>
        <time>2016-12-10T11:20:28Z</time>
      </trkpt>
      <trkpt lat="42.88761" lon="-0.1149">
        <ele>934</ele>
        <time>2016-12-10T11:22:28Z</time>
      </trkpt>
      <trkpt lat="42.88849" lon="-0.11516">
        <ele>932</ele>
        <time>2016-12-10T11:24:28Z</time>
      </trkpt>
      <trkpt lat="42.88857" lon="-0.11267">
        <ele>940</ele>
        <time>2016-12-10T11:26:28Z</time>
      </trkpt>
      <trkpt lat="42.88951" lon="-0.11211">
        <ele>944</ele>
        <time>2016-12-10T11:28:28Z</time>
      </trkpt>
      <trkpt lat="42.88819" lon="-0.11215">
        <ele>961</ele>
        <time>2016-12-10T11:30:28Z</time>
      </trkpt>
      <trkpt lat="42.88846" lon="-0.11178">
        <ele>964</ele>
        <time>2016-12-10T11:32:28Z</time>
      </trkpt>
      <trkpt lat="42.88799" lon="-0.11166">
        <ele>989</ele>
        <time>2016-12-10T11:34:28Z</time>
      </trkpt>
      <trkpt lat="42.88849" lon="-0.11093">
        <ele>999</ele>
        <time>2016-12-10T11:36:28Z</time>
      </trkpt>
      <trkpt lat="42.88752" lon="-0.11071">
        <ele>1032</ele>
        <time>2016-12-10T11:38:28Z</time>
      </trkpt>
      <trkpt lat="42.88796" lon="-0.1102">
        <ele>1050</ele>
        <time>2016-12-10T11:40:28Z</time>
      </trkpt>
      <trkpt lat="42.88739" lon="-0.11011">
        <ele>1070</ele>
        <time>2016-12-10T11:42:28Z</time>
      </trkpt>
      <trkpt lat="42.88766" lon="-0.10932">
        <ele>1105</ele>
        <time>2016-12-10T11:44:28Z</time>
      </trkpt>
      <trkpt lat="42.8865" lon="-0.10988">
        <ele>1108</ele>
        <time>2016-12-10T11:46:28Z</time>
      </trkpt>
      <trkpt lat="42.88395" lon="-0.10979">
        <ele>1057</ele>
        <time>2016-12-10T11:48:28Z</time>
      </trkpt>
      <trkpt lat="42.88279" lon="-0.10928">
        <ele>1070</ele>
        <time>2016-12-10T11:50:28Z</time>
      </trkpt>
      <trkpt lat="42.88071" lon="-0.10829">
        <ele>1110</ele>
        <time>2016-12-10T11:52:28Z</time>
      </trkpt>
      <trkpt lat="42.87873" lon="-0.10782">
        <ele>1105</ele>
        <time>2016-12-10T11:54:28Z</time>
      </trkpt>
      <trkpt lat="42.87738" lon="-0.10691">
        <ele>1123</ele>
        <time>2016-12-10T11:56:28Z</time>
      </trkpt>
      <trkpt lat="42.8765" lon="-0.10593">
        <ele>1156</ele>
        <time>2016-12-10T11:58:28Z</time>
      </trkpt>
      <trkpt lat="42.87514" lon="-0.1061">
        <ele>1149</ele>
        <time>2016-12-10T12:00:28Z</time>
      </trkpt>
      <trkpt lat="42.87351" lon="-0.10558">
        <ele>1171</ele>
        <time>2016-12-10T12:02:28Z</time>
      </trkpt>
      <trkpt lat="42.87181" lon="-0.10503">
        <ele>1197</ele>
        <time>2016-12-10T12:04:28Z</time>
      </trkpt>
      <trkpt lat="42.87017" lon="-0.10404">
        <ele>1251</ele>
        <time>2016-12-10T12:06:28Z</time>
      </trkpt>
      <trkpt lat="42.86838" lon="-0.10284">
        <ele>1274</ele>
        <time>2016-12-10T12:08:28Z</time>
      </trkpt>
      <trkpt lat="42.86657" lon="-0.10258">
        <ele>1290</ele>
        <time>2016-12-10T12:10:28Z</time>
      </trkpt>
      <trkpt lat="42.86568" lon="-0.10194">
        <ele>1307</ele>
        <time>2016-12-10T12:12:28Z</time>
      </trkpt>
      <trkpt lat="42.86373" lon="-0.10146">
        <ele>1327</ele>
        <time>2016-12-10T12:14:28Z</time>
      </trkpt>
      <trkpt lat="42.86288" lon="-0.10112">
        <ele>1330</ele>
        <time>2016-12-10T12:16:28Z</time>
      </trkpt>
      <trkpt lat="42.86223" lon="-0.10028">
        <ele>1336</ele>
        <time>2016-12-10T12:18:28Z</time>
      </trkpt>
      <trkpt lat="42.86046" lon="-0.10056">
        <ele>1345</ele>
        <time>2016-12-10T12:20:28Z</time>
      </trkpt>
      <trkpt lat="42.85869" lon="-0.09996">
        <ele>1346</ele>
        <time>2016-12-10T12:22:28Z</time>
      </trkpt>
      <trkpt lat="42.85747" lon="-0.09923">
        <ele>1353</ele>
        <time>2016-12-10T12:24:28Z</time>
      </trkpt>
      <trkpt lat="42.85583" lon="-0.0982">
        <ele>1372</ele>
        <time>2016-12-10T12:26:28Z</time>
      </trkpt>
      <trkpt lat="42.85432" lon="-0.0976">
        <ele>1372</ele>
        <time>2016-12-10T12:28:28Z</time>
      </trkpt>
      <trkpt lat="42.85268" lon="-0.09773">
        <ele>1374</ele>
        <time>2016-12-10T12:30:28Z</time>
      </trkpt>
      <trkpt lat="42.85089" lon="-0.09786">
        <ele>1379</ele>
        <time>2016-12-10T12:32:28Z</time>
      </trkpt>
      <trkpt lat="42.84922" lon="-0.0973">
        <ele>1390</ele>
        <time>2016-12-10T12:34:28Z</time>
      </trkpt>
      <trkpt lat="42.84759" lon="-0.09653">
        <ele>1404</ele>
        <time>2016-12-10T12:36:28Z</time>
      </trkpt>
      <trkpt lat="42.84573" lon="-0.09627">
        <ele>1419</ele>
        <time>2016-12-10T12:38:28Z</time>
      </trkpt>
      <trkpt lat="42.84406" lon="-0.0967">
        <ele>1435</ele>
        <time>2016-12-10T12:40:28Z</time>
      </trkpt>
      <trkpt lat="42.84221" lon="-0.0967">
        <ele>1448</ele>
        <time>2016-12-10T12:42:28Z</time>
      </trkpt>
      <trkpt lat="42.8417" lon="-0.09752">
        <ele>1448</ele>
        <time>2016-12-10T12:44:28Z</time>
      </trkpt>
      <trkpt lat="42.84075" lon="-0.09668">
        <ele>1469</ele>
        <time>2016-12-10T12:46:28Z</time>
      </trkpt>
      <trkpt lat="42.83919" lon="-0.09623">
        <ele>1476</ele>
        <time>2016-12-10T12:48:28Z</time>
      </trkpt>
      <trkpt lat="42.83821" lon="-0.09612">
        <ele>1476</ele>
        <time>2016-12-10T12:50:28Z</time>
      </trkpt>
      <trkpt lat="42.83657" lon="-0.09674">
        <ele>1482</ele>
        <time>2016-12-10T12:52:28Z</time>
      </trkpt>
      <trkpt lat="42.83513" lon="-0.09636">
        <ele>1493</ele>
        <time>2016-12-10T12:54:28Z</time>
      </trkpt>
      <trkpt lat="42.83362" lon="-0.09597">
        <ele>1502</ele>
        <time>2016-12-10T12:56:28Z</time>
      </trkpt>
      <trkpt lat="42.83163" lon="-0.09576">
        <ele>1526</ele>
        <time>2016-12-10T12:58:28Z</time>
      </trkpt>
      <trkpt lat="42.83006" lon="-0.09653">
        <ele>1528</ele>
        <time>2016-12-10T13:00:28Z</time>
      </trkpt>
      <trkpt lat="42.82836" lon="-0.09636">
        <ele>1543</ele>
        <time>2016-12-10T13:02:28Z</time>
      </trkpt>
      <trkpt lat="42.82707" lon="-0.09571">
        <ele>1555</ele>
        <time>2016-12-10T13:04:28Z</time>
      </trkpt>
      <trkpt lat="42.82587" lon="-0.09626">
        <ele>1552</ele>
        <time>2016-12-10T13:06:28Z</time>
      </trkpt>
      <trkpt lat="42.8239" lon="-0.09636">
        <ele>1562</ele>
        <time>2016-12-10T13:08:28Z</time>
      </trkpt>
      <trkpt lat="42.82348" lon="-0.09696">
        <ele>1563</ele>
        <time>2016-12-10T13:10:28Z</time>
      </trkpt>
      <trkpt lat="42.82229" lon="-0.09739">
        <ele>1569</ele>
        <time>2016-12-10T13:12:28Z</time>
      </trkpt>
      <trkpt lat="42.82134" lon="-0.09799">
        <ele>1582</ele>
        <time>2016-12-10T13:14:28Z</time>
      </trkpt>
      <trkpt lat="42.82008" lon="-0.09799">
        <ele>1596</ele>
        <time>2016-12-10T13:16:28Z</time>
      </trkpt>
      <trkpt lat="42.81914" lon="-0.09842">
        <ele>1612</ele>
        <time>2016-12-10T13:18:28Z</time>
      </trkpt>
      <trkpt lat="42.81848" lon="-0.09795">
        <ele>1613</ele>
        <time>2016-12-10T13:20:28Z</time>
      </trkpt>
      <trkpt lat="42.81709" lon="-0.09842">
        <ele>1630</ele>
        <time>2016-12-10T13:22:28Z</time>
      </trkpt>
      <trkpt lat="42.81583" lon="-0.09885">
        <ele>1660</ele>
        <time>2016-12-10T13:24:28Z</time>
      </trkpt>
      <trkpt lat="42.81495" lon="-0.09846">
        <ele>1686</ele>
        <time>2016-12-10T13:26:28Z</time>
      </trkpt>
      <trkpt lat="42.81407" lon="-0.09898">
        <ele>1719</ele>
        <time>2016-12-10T13:28:28Z</time>
      </trkpt>
      <trkpt lat="42.81313" lon="-0.09876">
        <ele>1728</ele>
        <time>2016-12-10T13:30:28Z</time>
      </trkpt>
      <trkpt lat="42.81136" lon="-0.09979">
        <ele>1767</ele>
        <time>2016-12-10T13:32:28Z</time>
      </trkpt>
      <trkpt lat="42.81042" lon="-0.09949">
        <ele>1774</ele>
        <time>2016-12-10T13:34:28Z</time>
      </trkpt>
      <trkpt lat="42.80941" lon="-0.10022">
        <ele>1800</ele>
        <time>2016-12-10T13:36:28Z</time>
      </trkpt>
      <trkpt lat="42.80802" lon="-0.09923">
        <ele>1807</ele>
        <time>2016-12-10T13:38:28Z</time>
      </trkpt>
      <trkpt lat="42.80752" lon="-0.10052">
        <ele>1820</ele>
        <time>2016-12-10T13:40:28Z</time>
      </trkpt>
      <trkpt lat="42.80714" lon="-0.10155">
        <ele>1832</ele>
        <time>2016-12-10T13:42:28Z</time>
      </trkpt>
      <trkpt lat="42.8071" lon="-0.10249">
        <ele>1855</ele>
        <time>2016-12-10T13:44:28Z</time>
      </trkpt>
      <trkpt lat="42.80607" lon="-0.10373">
        <ele>1902</ele>
        <time>2016-12-10T13:46:28Z</time>
      </trkpt>
      <trkpt lat="42.80481" lon="-0.10452">
        <ele>1915</ele>
        <time>2016-12-10T13:48:28Z</time>
      </trkpt>
      <trkpt lat="42.8034" lon="-0.10477">
        <ele>1916</ele>
        <time>2016-12-10T13:50:28Z</time>
      </trkpt>
      <trkpt lat="42.80373" lon="-0.10499">
        <ele>1916</ele>
        <time>2016-12-10T13:52:28Z</time>
      </trkpt>
      <trkpt lat="42.80323" lon="-0.10523">
        <ele>1940</ele>
        <time>2016-12-10T13:54:28Z</time>
      </trkpt>
      <trkpt lat="42.80364" lon="-0.10548">
        <ele>1951</ele>
        <time>2016-12-10T13:56:28Z</time>
      </trkpt>
      <trkpt lat="42.80287" lon="-0.10602">
        <ele>1978</ele>
        <time>2016-12-10T13:58:28Z</time>
      </trkpt>
      <trkpt lat="42.80207" lon="-0.10686">
        <ele>2012</ele>
        <time>2016-12-10T14:00:28Z</time>
      </trkpt>
      <trkpt lat="42.80106" lon="-0.10746">
        <ele>2002</ele>
        <time>2016-12-10T14:02:28Z</time>
      </trkpt>
      <trkpt lat="42.79988" lon="-0.10864">
        <ele>2031</ele>
        <time>2016-12-10T14:04:28Z</time>
      </trkpt>
      <trkpt lat="42.79914" lon="-0.10855">
        <ele>1992</ele>
        <time>2016-12-10T14:06:28Z</time>
      </trkpt>
      <trkpt lat="42.79846" lon="-0.10993">
        <ele>2050</ele>
        <time>2016-12-10T14:08:28Z</time>
      </trkpt>
      <trkpt lat="42.79767" lon="-0.11091">
        <ele>2079</ele>
        <time>2016-12-10T14:10:28Z</time>
      </trkpt>
      <trkpt lat="42.79678" lon="-0.11252">
        <ele>2116</ele>
        <time>2016-12-10T14:12:28Z</time>
      </trkpt>
      <trkpt lat="42.79735" lon="-0.11234">
        <ele>2114</ele>
        <time>2016-12-10T14:14:28Z</time>
      </trkpt>
      <trkpt lat="42.79719" lon="-0.11272">
        <ele>2128</ele>
        <time>2016-12-10T14:16:28Z</time>
      </trkpt>
      <trkpt lat="42.79759" lon="-0.11264">
        <ele>2141</ele>
        <time>2016-12-10T14:18:28Z</time>
      </trkpt>
      <trkpt lat="42.79743" lon="-0.11298">
        <ele>2134</ele>
        <time>2016-12-10T14:20:28Z</time>
      </trkpt>
      <trkpt lat="42.79751" lon="-0.11388">
        <ele>2189</ele>
        <time>2016-12-10T14:22:28Z</time>
      </trkpt>
      <trkpt lat="42.79804" lon="-0.11373">
        <ele>2193</ele>
        <time>2016-12-10T14:24:28Z</time>
      </trkpt>
      <trkpt lat="42.79778" lon="-0.11425">
        <ele>2221</ele>
        <time>2016-12-10T14:26:28Z</time>
      </trkpt>
      <trkpt lat="42.7983" lon="-0.11412">
        <ele>2221</ele>
        <time>2016-12-10T14:28:28Z</time>
      </trkpt>
      <trkpt lat="42.79768" lon="-0.1153">
        <ele>2263</ele>
        <time>2016-12-10T14:30:28Z</time>
      </trkpt>
      <trkpt lat="42.7971" lon="-0.11654">
        <ele>2275</ele>
        <time>2016-12-10T14:32:28Z</time>
      </trkpt>
      <trkpt lat="42.79641" lon="-0.11781">
        <ele>2310</ele>
        <time>2016-12-10T14:34:28Z</time>
      </trkpt>
      <trkpt lat="42.79568" lon="-0.11858">
        <ele>2324</ele>
        <time>2016-12-10T14:36:28Z</time>
      </trkpt>
      <trkpt lat="42.79493" lon="-0.11931">
        <ele>2337</ele>
        <time>2016-12-10T14:38:28Z</time>
      </trkpt>
      <trkpt lat="42.79475" lon="-0.12012">
        <ele>2370</ele>
        <time>2016-12-10T14:40:28Z</time>
      </trkpt>
      <trkpt lat="42.79507" lon="-0.1201">
        <ele>2386</ele>
        <time>2016-12-10T14:42:28Z</time>
      </trkpt>
      <trkpt lat="42.79477" lon="-0.12088">
        <ele>2399</ele>
        <time>2016-12-10T14:44:28Z</time>
      </trkpt>
      <trkpt lat="42.79515" lon="-0.12077">
        <ele>2411</ele>
        <time>2016-12-10T14:46:28Z</time>
      </trkpt>
      <trkpt lat="42.79485" lon="-0.12212">
        <ele>2429</ele>
        <time>2016-12-10T14:48:28Z</time>
      </trkpt>
      <trkpt lat="42.79511" lon="-0.12167">
        <ele>2448</ele>
        <time>2016-12-10T14:50:28Z</time>
      </trkpt>
      <trkpt lat="42.79507" lon="-0.12229">
        <ele>2468</ele>
        <time>2016-12-10T14:52:28Z</time>
      </trkpt>
      <trkpt lat="42.79559" lon="-0.12167">
        <ele>2489</ele>
        <time>2016-12-10T14:54:28Z</time>
      </trkpt>
      <trkpt lat="42.79546" lon="-0.12298">
        <ele>2492</ele>
        <time>2016-12-10T14:56:28Z</time>
      </trkpt>
      <trkpt lat="42.79502" lon="-0.12394">
        <ele>2536</ele>
        <time>2016-12-10T14:58:28Z</time>
      </trkpt>
      <trkpt lat="42.79455" lon="-0.1248">
        <ele>2520</ele>
        <time>2016-12-10T15:00:28Z</time>
      </trkpt>
      <trkpt lat="42.7939" lon="-0.12547">
        <ele>2528</ele>
        <time>2016-12-10T15:02:28Z</time>
      </trkpt>
      <trkpt lat="42.79363" lon="-0.12607">
        <ele>2547</ele>
        <time>2016-12-10T15:04:28Z</time>
      </trkpt>
      <trkpt lat="42.79282" lon="-0.12658">
        <ele>2548</ele>
        <time>2016-12-10T15:06:28Z</time>
      </trkpt>
      <trkpt lat="42.79242" lon="-0.12654">
        <ele>2549</ele>
        <time>2016-12-10T15:08:28Z</time>
      </trkpt>
      <trkpt lat="42.79227" lon="-0.12615">
        <ele>2549</ele>
        <time>2016-12-10T15:10:28Z</time>
      </trkpt>
      <trkpt lat="42.79197" lon="-0.12714">
        <ele>2592.9</ele>
        <time>2016-12-10T15:12:28Z</time>
      </trkpt>
      <trkpt lat="42.79162" lon="-0.12806">
        <ele>2564.1</ele>
        <time>2016-12-10T15:14:28Z</time>
      </trkpt>
      <trkpt lat="42.79151" lon="-0.1292">
        <ele>2538</ele>
        <time>2016-12-10T15:16:28Z</time>
      </trkpt>
      <trkpt lat="42.79156" lon="-0.13042">
        <ele>2508</ele>
        <time>2016-12-10T15:18:28Z</time>
      </trkpt>
      <trkpt lat="42.79126" lon="-0.13184">
        <ele>2462</ele>
        <time>2016-12-10T15:20:28Z</time>
      </trkpt>
      <trkpt lat="42.79124" lon="-0.13276">
        <ele>2445</ele>
        <time>2016-12-10T15:22:28Z</time>
      </trkpt>
      <trkpt lat="42.79101" lon="-0.13242">
        <ele>2456</ele>
        <time>2016-12-10T15:24:28Z</time>
      </trkpt>
      <trkpt lat="42.79056" lon="-0.13326">
        <ele>2441</ele>
        <time>2016-12-10T15:26:28Z</time>
      </trkpt>
      <trkpt lat="42.79062" lon="-0.13329">
        <ele>2439</ele>
        <time>2016-12-10T15:28:28Z</time>
      </trkpt>
      <trkpt lat="42.78982" lon="-0.13315">
        <ele>2459</ele>
        <time>2016-12-10T15:30:28Z</time>
      </trkpt>
      <trkpt lat="42.79014" lon="-0.13266">
        <ele>2455</ele>
        <time>2016-12-10T15:32:28Z</time>
      </trkpt>
      <trkpt lat="42.7897" lon="-0.13266">
        <ele>2469</ele>
        <time>2016-12-10T15:34:28Z</time>
      </trkpt>
      <trkpt lat="42.7894" lon="-0.13253">
        <ele>2476</ele>
        <time>2016-12-10T15:36:28Z</time>
      </trkpt>
      <trkpt lat="42.78901" lon="-0.13266">
        <ele>2490</ele>
        <time>2016-12-10T15:38:28Z</time>
      </trkpt>
      <trkpt lat="42.78875" lon="-0.13323">
        <ele>2488</ele>
        <time>2016-12-10T15:40:28Z</time>
      </trkpt>
      <trkpt lat="42.78841" lon="-0.13304">
        <ele>2493</ele>
        <time>2016-12-10T15:42:28Z</time>
      </trkpt>
      <trkpt lat="42.78806" lon="-0.1327">
        <ele>2508</ele>
        <time>2016-12-10T15:44:28Z</time>
      </trkpt>
      <trkpt lat="42.78786" lon="-0.1333">
        <ele>2507</ele>
        <time>2016-12-10T15:46:28Z</time>
      </trkpt>
      <trkpt lat="42.78724" lon="-0.13317">
        <ele>2524</ele>
        <time>2016-12-10T15:48:28Z</time>
      </trkpt>
      <trkpt lat="42.78658" lon="-0.1333">
        <ele>2536</ele>
        <time>2016-12-10T15:50:28Z</time>
      </trkpt>
      <trkpt lat="42.78592" lon="-0.13356">
        <ele>2540</ele>
        <time>2016-12-10T15:52:28Z</time>
      </trkpt>
      <trkpt lat="42.78557" lon="-0.13403">
        <ele>2538</ele>
        <time>2016-12-10T15:54:28Z</time>
      </trkpt>
      <trkpt lat="42.78507" lon="-0.1345">
        <ele>2522</ele>
        <time>2016-12-10T15:56:28Z</time>
      </trkpt>
      <trkpt lat="42.78479" lon="-0.1342">
        <ele>2533</ele>
        <time>2016-12-10T15:58:28Z</time>
      </trkpt>
      <trkpt lat="42.78455" lon="-0.13459">
        <ele>2533</ele>
        <time>2016-12-10T16:00:28Z</time>
      </trkpt>
      <trkpt lat="42.78422" lon="-0.13448">
        <ele>2533</ele>
        <time>2016-12-10T16:02:28Z</time>
      </trkpt>
      <trkpt lat="42.7837" lon="-0.13476">
        <ele>2579.8</ele>
        <time>2016-12-10T16:04:28Z</time>
      </trkpt>
      <trkpt lat="42.78353" lon="-0.13437">
        <ele>2595.7</ele>
        <time>2016-12-10T16:06:28Z</time>
      </trkpt>
      <trkpt lat="42.78312" lon="-0.13472">
        <ele>2594.9</ele>
        <time>2016-12-10T16:08:28Z</time>
      </trkpt>
      <trkpt lat="42.78274" lon="-0.1345">
        <ele>2604.3</ele>
        <time>2016-12-10T16:10:28Z</time>
      </trkpt>
      <trkpt lat="42.78222" lon="-0.13448">
        <ele>2613</ele>
        <time>2016-12-10T16:12:28Z</time>
      </trkpt>
      <trkpt lat="42.78156" lon="-0.1342">
        <ele>2553</ele>
        <time>2016-12-10T16:14:28Z</time>
      </trkpt>
      <trkpt lat="42.7813" lon="-0.13364">
        <ele>2640.9</ele>
        <time>2016-12-10T16:16:28Z</time>
      </trkpt>
      <trkpt lat="42.78097" lon="-0.13336">
        <ele>2650.2</ele>
        <time>2016-12-10T16:18:28Z</time>
      </trkpt>
      <trkpt lat="42.78135" lon="-0.13326">
        <ele>2656.8</ele>
        <time>2016-12-10T16:20:28Z</time>
      </trkpt>
      <trkpt lat="42.7809" lon="-0.13304">
        <ele>2663.2</ele>
        <time>2016-12-10T16:22:28Z</time>
      </trkpt>
      <trkpt lat="42.78039" lon="-0.13276">
        <ele>2671.6</ele>
        <time>2016-12-10T16:24:28Z</time>
      </trkpt>
      <trkpt lat="42.77986" lon="-0.13242">
        <ele>2688.6</ele>
        <time>2016-12-10T16:26:28Z</time>
      </trkpt>
      <trkpt lat="42.77945" lon="-0.13199">
        <ele>2704.3</ele>
        <time>2016-12-10T16:28:28Z</time>
      </trkpt>
      <trkpt lat="42.77975" lon="-0.1319">
        <ele>2715.2</ele>
        <time>2016-12-10T16:30:28Z</time>
      </trkpt>
      <trkpt lat="42.7793" lon="-0.13133">
        <ele>2732.1</ele>
        <time>2016-12-10T16:32:28Z</time>
      </trkpt>
      <trkpt lat="42.77992" lon="-0.13004">
        <ele>2728.6</ele>
        <time>2016-12-10T16:34:28Z</time>
      </trkpt>
      <trkpt lat="42.78001" lon="-0.12944">
        <ele>2721.6</ele>
        <time>2016-12-10T16:36:28Z</time>
      </trkpt>
      <trkpt lat="42.78012" lon="-0.12866">
        <ele>2714.6</ele>
        <time>2016-12-10T16:38:28Z</time>
      </trkpt>
      <trkpt lat="42.77995" lon="-0.12909">
        <ele>2711.6</ele>
        <time>2016-12-10T16:40:28Z</time>
      </trkpt>
      <trkpt lat="42.77992" lon="-0.12841">
        <ele>2698.8</ele>
        <time>2016-12-10T16:42:28Z</time>
      </trkpt>
      <trkpt lat="42.78008" lon="-0.12763">
        <ele>2687.3</ele>
        <time>2016-12-10T16:44:28Z</time>
      </trkpt>
      <trkpt lat="42.77976" lon="-0.12785">
        <ele>2680.6</ele>
        <time>2016-12-10T16:46:28Z</time>
      </trkpt>
      <trkpt lat="42.78008" lon="-0.12673">
        <ele>2661.2</ele>
        <time>2016-12-10T16:48:28Z</time>
      </trkpt>
      <trkpt lat="42.77956" lon="-0.12686">
        <ele>2651.2</ele>
        <time>2016-12-10T16:50:28Z</time>
      </trkpt>
      <trkpt lat="42.77951" lon="-0.12581">
        <ele>2642.4</ele>
        <time>2016-12-10T16:52:28Z</time>
      </trkpt>
      <trkpt lat="42.77926" lon="-0.12536">
        <ele>2640.9</ele>
        <time>2016-12-10T16:54:28Z</time>
      </trkpt>
      <trkpt lat="42.77901" lon="-0.12459">
        <ele>2637.1</ele>
        <time>2016-12-10T16:56:28Z</time>
      </trkpt>
      <trkpt lat="42.77871" lon="-0.12401">
        <ele>2623.6</ele>
        <time>2016-12-10T16:58:28Z</time>
      </trkpt>
      <trkpt lat="42.77853" lon="-0.1233">
        <ele>2610.3</ele>
        <time>2016-12-10T17:00:28Z</time>
      </trkpt>
      <trkpt lat="42.77855" lon="-0.12274">
        <ele>2602.1</ele>
        <time>2016-12-10T17:02:28Z</time>
      </trkpt>
      <trkpt lat="42.77839" lon="-0.12283">
        <ele>2598.4</ele>
        <time>2016-12-10T17:04:28Z</time>
      </trkpt>
      <trkpt lat="42.77833" lon="-0.12236">
        <ele>2587.9</ele>
        <time>2016-12-10T17:06:28Z</time>
      </trkpt>
      <trkpt lat="42.77787" lon="-0.12214">
        <ele>2583.2</ele>
        <time>2016-12-10T17:08:28Z</time>
      </trkpt>
      <trkpt lat="42.77765" lon="-0.12154">
        <ele>2552</ele>
        <time>2016-12-10T17:10:28Z</time>
      </trkpt>
      <trkpt lat="42.77741" lon="-0.12098">
        <ele>2539</ele>
        <time>2016-12-10T17:12:28Z</time>
      </trkpt>
      <trkpt lat="42.77749" lon="-0.12038">
        <ele>2523</ele>
        <time>2016-12-10T17:14:28Z</time>
      </trkpt>
      <trkpt lat="42.77719" lon="-0.1206">
        <ele>2521</ele>
        <time>2016-12-10T17:16:28Z</time>
      </trkpt>
      <trkpt lat="42.77678" lon="-0.12115">
        <ele>2517</ele>
        <time>2016-12-10T17:18:28Z</time>
      </trkpt>
      <trkpt lat="42.77682" lon="-0.12053">
        <ele>2508</ele>
        <time>2016-12-10T17:20:28Z</time>
      </trkpt>
      <trkpt lat="42.7765" lon="-0.12139">
        <ele>2493</ele>
        <time>2016-12-10T17:22:28Z</time>
      </trkpt>
      <trkpt lat="42.77628" lon="-0.12186">
        <ele>2502</ele>
        <time>2016-12-10T17:24:28Z</time>
      </trkpt>
      <trkpt lat="42.7759" lon="-0.12225">
        <ele>2494</ele>
        <time>2016-12-10T17:26:28Z</time>
      </trkpt>
      <trkpt lat="42.7754" lon="-0.12287">
        <ele>2477</ele>
        <time>2016-12-10T17:28:28Z</time>
      </trkpt>
      <trkpt lat="42.77534" lon="-0.12238">
        <ele>2455</ele>
        <time>2016-12-10T17:30:28Z</time>
      </trkpt>
      <trkpt lat="42.77549" lon="-0.1215">
        <ele>2437</ele>
        <time>2016-12-10T17:32:28Z</time>
      </trkpt>
      <trkpt lat="42.77556" lon="-0.12053">
        <ele>2410</ele>
        <time>2016-12-10T17:34:28Z</time>
      </trkpt>
      <trkpt lat="42.77557" lon="-0.11963">
        <ele>2384</ele>
        <time>2016-12-10T17:36:28Z</time>
      </trkpt>
      <trkpt lat="42.77571" lon="-0.11821">
        <ele>2356</ele>
        <time>2016-12-10T17:38:28Z</time>
      </trkpt>
      <trkpt lat="42.77552" lon="-0.11779">
        <ele>2339</ele>
        <time>2016-12-10T17:40:28Z</time>
      </trkpt>
      <trkpt lat="42.77584" lon="-0.11757">
        <ele>2356</ele>
        <time>2016-12-10T17:42:28Z</time>
      </trkpt>
      <trkpt lat="42.77535" lon="-0.11706">
        <ele>2315</ele>
        <time>2016-12-10T17:44:28Z</time>
      </trkpt>
      <trkpt lat="42.77505" lon="-0.11648">
        <ele>2295</ele>
        <time>2016-12-10T17:46:28Z</time>
      </trkpt>
      <trkpt lat="42.77467" lon="-0.11663">
        <ele>2275</ele>
        <time>2016-12-10T17:48:28Z</time>
      </trkpt>
      <trkpt lat="42.77426" lon="-0.11729">
        <ele>2272</ele>
        <time>2016-12-10T17:50:28Z</time>
      </trkpt>
      <trkpt lat="42.77423" lon="-0.11658">
        <ele>2262</ele>
        <time>2016-12-10T17:52:28Z</time>
      </trkpt>
      <trkpt lat="42.77376" lon="-0.11703">
        <ele>2239</ele>
        <time>2016-12-10T17:54:28Z</time>
      </trkpt>
      <trkpt lat="42.7736" lon="-0.11671">
        <ele>2233</ele>
        <time>2016-12-10T17:56:28Z</time>
      </trkpt>
      <trkpt lat="42.77368" lon="-0.11761">
        <ele>2233</ele>
        <time>2016-12-10T17:58:28Z</time>
      </trkpt>
      <trkpt lat="42.77367" lon="-0.11843">
        <ele>2236</ele>
        <time>2016-12-10T18:00:28Z</time>
      </trkpt>
      <trkpt lat="42.773" lon="-0.11905">
        <ele>2222</ele>
        <time>2016-12-10T18:02:28Z</time>
      </trkpt>
      <trkpt lat="42.77247" lon="-0.1192">
        <ele>2226</ele>
        <time>2016-12-10T18:04:28Z</time>
      </trkpt>
      <trkpt lat="42.77209" lon="-0.11875">
        <ele>2208</ele>
        <time>2016-12-10T18:06:28Z</time>
      </trkpt>
      <trkpt lat="42.7717" lon="-0.11828">
        <ele>2186</ele>
        <time>2016-12-10T18:08:28Z</time>
      </trkpt>
      <trkpt lat="42.77099" lon="-0.11804">
        <ele>2177</ele>
        <time>2016-12-10T18:10:28Z</time>
      </trkpt>
      <trkpt lat="42.77036" lon="-0.11834">
        <ele>2183</ele>
        <time>2016-12-10T18:12:28Z</time>
      </trkpt>
      <trkpt lat="42.77055" lon="-0.11791">
        <ele>2169</ele>
        <time>2016-12-10T18:14:28Z</time>
      </trkpt>
      <trkpt lat="42.77011" lon="-0.11806">
        <ele>2169</ele>
        <time>2016-12-10T18:16:28Z</time>
      </trkpt>
      <trkpt lat="42.76998" lon="-0.11871">
        <ele>2160</ele>
        <time>2016-12-10T18:18:28Z</time>
      </trkpt>
      <trkpt lat="42.76976" lon="-0.11761">
        <ele>2135</ele>
        <time>2016-12-10T18:20:28Z</time>
      </trkpt>
      <trkpt lat="42.76932" lon="-0.11847">
        <ele>2134</ele>
        <time>2016-12-10T18:22:28Z</time>
      </trkpt>
      <trkpt lat="42.76897" lon="-0.11882">
        <ele>2111</ele>
        <time>2016-12-10T18:24:28Z</time>
      </trkpt>
      <trkpt lat="42.76841" lon="-0.11869">
        <ele>2101</ele>
        <time>2016-12-10T18:26:28Z</time>
      </trkpt>
      <trkpt lat="42.76781" lon="-0.11851">
        <ele>2093</ele>
        <time>2016-12-10T18:28:28Z</time>
      </trkpt>
      <trkpt lat="42.76792" lon="-0.11824">
        <ele>2076</ele>
        <time>2016-12-10T18:30:28Z</time>
      </trkpt>
      <trkpt lat="42.76746" lon="-0.11806">
        <ele>2089</ele>
        <time>2016-12-10T18:32:28Z</time>
      </trkpt>
      <trkpt lat="42.76724" lon="-0.1171">
        <ele>2073</ele>
        <time>2016-12-10T18:34:28Z</time>
      </trkpt>
      <trkpt lat="42.76718" lon="-0.11652">
        <ele>2056</ele>
        <time>2016-12-10T18:36:28Z</time>
      </trkpt>
      <trkpt lat="42.76733" lon="-0.11603">
        <ele>2050</ele>
        <time>2016-12-10T18:38:28Z</time>
      </trkpt>
      <trkpt lat="42.76721" lon="-0.11553">
        <ele>2039</ele>
        <time>2016-12-10T18:40:28Z</time>
      </trkpt>
      <trkpt lat="42.76689" lon="-0.11545">
        <ele>2040</ele>
        <time>2016-12-10T18:42:28Z</time>
      </trkpt>
      <trkpt lat="42.76642" lon="-0.11465">
        <ele>2033</ele>
        <time>2016-12-10T18:44:28Z</time>
      </trkpt>
      <trkpt lat="42.76593" lon="-0.11412">
        <ele>2022</ele>
        <time>2016-12-10T18:46:28Z</time>
      </trkpt>
      <trkpt lat="42.76555" lon="-0.11326">
        <ele>2001</ele>
        <time>2016-12-10T18:48:28Z</time>
      </trkpt>
      <trkpt lat="42.76582" lon="-0.11334">
        <ele>2003</ele>
        <time>2016-12-10T18:50:28Z</time>
      </trkpt>
      <trkpt lat="42.7657" lon="-0.11266">
        <ele>1998</ele>
        <time>2016-12-10T18:52:28Z</time>
      </trkpt>
      <trkpt lat="42.76494" lon="-0.11251">
        <ele>1981</ele>
        <time>2016-12-10T18:54:28Z</time>
      </trkpt>
      <trkpt lat="42.76445" lon="-0.11266">
        <ele>1987</ele>
        <time>2016-12-10T18:56:28Z</time>
      </trkpt>
      <trkpt lat="42.76409" lon="-0.11304">
        <ele>1995</ele>
        <time>2016-12-10T18:58:28Z</time>
      </trkpt>
      <trkpt lat="42.76415" lon="-0.11261">
        <ele>1983</ele>
        <time>2016-12-10T19:00:28Z</time>
      </trkpt>
      <trkpt lat="42.76388" lon="-0.11257">
        <ele>1988</ele>
        <time>2016-12-10T19:02:28Z</time>
      </trkpt>
      <trkpt lat="42.76407" lon="-0.1121">
        <ele>1967</ele>
        <time>2016-12-10T19:04:28Z</time>
      </trkpt>
      <trkpt lat="42.76379" lon="-0.11208">
        <ele>1967</ele>
        <time>2016-12-10T19:06:28Z</time>
      </trkpt>
      <trkpt lat="42.76371" lon="-0.11161">
        <ele>1945</ele>
        <time>2016-12-10T19:08:28Z</time>
      </trkpt>
      <trkpt lat="42.76349" lon="-0.11165">
        <ele>1945</ele>
        <time>2016-12-10T19:10:28Z</time>
      </trkpt>
      <trkpt lat="42.76346" lon="-0.11098">
        <ele>1932</ele>
        <time>2016-12-10T19:12:28Z</time>
      </trkpt>
      <trkpt lat="42.76325" lon="-0.11051">
        <ele>1909</ele>
        <time>2016-12-10T19:14:28Z</time>
      </trkpt>
      <trkpt lat="42.76294" lon="-0.10978">
        <ele>1887</ele>
        <time>2016-12-10T19:16:28Z</time>
      </trkpt>
      <trkpt lat="42.76295" lon="-0.10905">
        <ele>1882</ele>
        <time>2016-12-10T19:18:28Z</time>
      </trkpt>
      <trkpt lat="42.76254" lon="-0.10858">
        <ele>1888</ele>
        <time>2016-12-10T19:20:28Z</time>
      </trkpt>
      <trkpt lat="42.76239" lon="-0.10772">
        <ele>1857</ele>
        <time>2016-12-10T19:22:28Z</time>
      </trkpt>
      <trkpt lat="42.76217" lon="-0.10684">
        <ele>1845</ele>
        <time>2016-12-10T19:24:28Z</time>
      </trkpt>
      <trkpt lat="42.76184" lon="-0.10624">
        <ele>1857</ele>
        <time>2016-12-10T19:26:28Z</time>
      </trkpt>
      <trkpt lat="42.76136" lon="-0.10504">
        <ele>1863</ele>
        <time>2016-12-10T19:28:28Z</time>
      </trkpt>
      <trkpt lat="42.76102" lon="-0.10399">
        <ele>1855</ele>
        <time>2016-12-10T19:30:28Z</time>
      </trkpt>
      <trkpt lat="42.76054" lon="-0.10287">
        <ele>1844</ele>
        <time>2016-12-10T19:32:28Z</time>
      </trkpt>
      <trkpt lat="42.76004" lon="-0.10197">
        <ele>1852</ele>
        <time>2016-12-10T19:34:28Z</time>
      </trkpt>
      <trkpt lat="42.75946" lon="-0.10128">
        <ele>1849</ele>
        <time>2016-12-10T19:36:28Z</time>
      </trkpt>
      <trkpt lat="42.75941" lon="-0.10062">
        <ele>1841</ele>
        <time>2016-12-10T19:38:28Z</time>
      </trkpt>
      <trkpt lat="42.75921" lon="-0.09978">
        <ele>1840</ele>
        <time>2016-12-10T19:40:28Z</time>
      </trkpt>
      <trkpt lat="42.75889" lon="-0.09886">
        <ele>1841</ele>
        <time>2016-12-10T19:42:28Z</time>
      </trkpt>
      <trkpt lat="42.75859" lon="-0.09785">
        <ele>1846</ele>
        <time>2016-12-10T19:44:28Z</time>
      </trkpt>
      <trkpt lat="42.75824" lon="-0.09701">
        <ele>1835</ele>
        <time>2016-12-10T19:46:28Z</time>
      </trkpt>
      <trkpt lat="42.75798" lon="-0.09603">
        <ele>1847</ele>
        <time>2016-12-10T19:48:28Z</time>
      </trkpt>
      <trkpt lat="42.75768" lon="-0.09521">
        <ele>1852</ele>
        <time>2016-12-10T19:50:28Z</time>
      </trkpt>
      <trkpt lat="42.75731" lon="-0.0945">
        <ele>1838</ele>
        <time>2016-12-10T19:52:28Z</time>
      </trkpt>
      <trkpt lat="42.75741" lon="-0.09375">
        <ele>1839</ele>
        <time>2016-12-10T19:54:28Z</time>
      </trkpt>
      <trkpt lat="42.757" lon="-0.09356">
        <ele>1835</ele>
        <time>2016-12-10T19:56:28Z</time>
      </trkpt>
      <trkpt lat="42.7569" lon="-0.09289">
        <ele>1831</ele>
        <time>2016-12-10T19:58:28Z</time>
      </trkpt>
      <trkpt lat="42.75689" lon="-0.09161">
        <ele>1825</ele>
        <time>2016-12-10T20:00:28Z</time>
      </trkpt>
      <trkpt lat="42.75669" lon="-0.0902">
        <ele>1811</ele>
        <time>2016-12-10T20:02:28Z</time>
      </trkpt>
      <trkpt lat="42.75751" lon="-0.08995">
        <ele>1825</ele>
        <time>2016-12-10T20:04:28Z</time>
      </trkpt>
      <trkpt lat="42.7572" lon="-0.08734">
        <ele>1801</ele>
        <time>2016-12-10T20:06:28Z</time>
      </trkpt>
      <trkpt lat="42.75626" lon="-0.08631">
        <ele>1772</ele>
        <time>2016-12-10T20:08:28Z</time>
      </trkpt>
      <trkpt lat="42.75519" lon="-0.08387">
        <ele>1765</ele>
        <time>2016-12-10T20:10:28Z</time>
      </trkpt>
      <trkpt lat="42.75427" lon="-0.08095">
        <ele>1737</ele>
        <time>2016-12-10T20:12:28Z</time>
      </trkpt>
      <trkpt lat="42.75329" lon="-0.07857">
        <ele>1712</ele>
        <time>2016-12-10T20:14:28Z</time>
      </trkpt>
      <trkpt lat="42.75395" lon="-0.0769">
        <ele>1724</ele>
        <time>2016-12-10T20:16:28Z</time>
      </trkpt>
      <trkpt lat="42.75282" lon="-0.07563">
        <ele>1718</ele>
        <time>2016-12-10T20:18:28Z</time>
      </trkpt>
      <trkpt lat="42.75169" lon="-0.07511">
        <ele>1689</ele>
        <time>2016-12-10T20:20:28Z</time>
      </trkpt>
      <trkpt lat="42.75112" lon="-0.07353">
        <ele>1702</ele>
        <time>2016-12-10T20:22:28Z</time>
      </trkpt>
      <trkpt lat="42.74969" lon="-0.07282">
        <ele>1681</ele>
        <time>2016-12-10T20:24:28Z</time>
      </trkpt>
      <trkpt lat="42.74896" lon="-0.07084">
        <ele>1682</ele>
        <time>2016-12-10T20:26:28Z</time>
      </trkpt>
      <trkpt lat="42.74846" lon="-0.06921">
        <ele>1686</ele>
        <time>2016-12-10T20:28:28Z</time>
      </trkpt>
      <trkpt lat="42.74746" lon="-0.06836">
        <ele>1677</ele>
        <time>2016-12-10T20:30:28Z</time>
      </trkpt>
      <trkpt lat="42.7471" lon="-0.06466">
        <ele>1695</ele>
        <time>2016-12-10T20:32:28Z</time>
      </trkpt>
      <trkpt lat="42.74733" lon="-0.06247">
        <ele>1689</ele>
        <time>2016-12-10T20:34:28Z</time>
      </trkpt>
      <trkpt lat="42.74714" lon="-0.06119">
        <ele>1680</ele>
        <time>2016-12-10T20:36:28Z</time>
      </trkpt>
      <trkpt lat="42.7479" lon="-0.05943">
        <ele>1687</ele>
        <time>2016-12-10T20:38:28Z</time>
      </trkpt>
      <trkpt lat="42.74778" lon="-0.05772">
        <ele>1670</ele>
        <time>2016-12-10T20:40:28Z</time>
      </trkpt>
      <trkpt lat="42.74789" lon="-0.05638">
        <ele>1666</ele>
        <time>2016-12-10T20:42:28Z</time>
      </trkpt>
      <trkpt lat="42.74777" lon="-0.05492">
        <ele>1677</ele>
        <time>2016-12-10T20:44:28Z</time>
      </trkpt>
      <trkpt lat="42.74692" lon="-0.05479">
        <ele>1656</ele>
        <time>2016-12-10T20:46:28Z</time>
      </trkpt>
      <trkpt lat="42.74673" lon="-0.05398">
        <ele>1662</ele>
        <time>2016-12-10T20:48:28Z</time>
      </trkpt>
      <trkpt lat="42.74641" lon="-0.05381">
        <ele>1664</ele>
        <time>2016-12-10T20:50:28Z</time>
      </trkpt>
      <trkpt lat="42.74566" lon="-0.05222">
        <ele>1664</ele>
        <time>2016-12-10T20:52:28Z</time>
      </trkpt>
      <trkpt lat="42.74613" lon="-0.05072">
        <ele>1648</ele>
        <time>2016-12-10T20:54:28Z</time>
      </trkpt>
      <trkpt lat="42.74584" lon="-0.04934">
        <ele>1637</ele>
        <time>2016-12-10T20:56:28Z</time>
      </trkpt>
      <trkpt lat="42.74644" lon="-0.04763">
        <ele>1642</ele>
        <time>2016-12-10T20:58:28Z</time>
      </trkpt>
      <trkpt lat="42.74647" lon="-0.04638">
        <ele>1665</ele>
        <time>2016-12-10T21:00:28Z</time>
      </trkpt>
      <trkpt lat="42.74654" lon="-0.04493">
        <ele>1661</ele>
        <time>2016-12-10T21:02:28Z</time>
      </trkpt>
      <trkpt lat="42.74601" lon="-0.04296">
        <ele>1660</ele>
        <time>2016-12-10T21:04:28Z</time>
      </trkpt>
      <trkpt lat="42.74623" lon="-0.0421">
        <ele>1648</ele>
        <time>2016-12-10T21:06:28Z</time>
      </trkpt>
      <trkpt lat="42.74591" lon="-0.04102">
        <ele>1645</ele>
        <time>2016-12-10T21:08:28Z</time>
      </trkpt>
      <trkpt lat="42.74639" lon="-0.03999">
        <ele>1603</ele>
        <time>2016-12-10T21:10:28Z</time>
      </trkpt>
      <trkpt lat="42.74632" lon="-0.03841">
        <ele>1570</ele>
        <time>2016-12-10T21:12:28Z</time>
      </trkpt>
      <trkpt lat="42.74594" lon="-0.0361">
        <ele>1517</ele>
        <time>2016-12-10T21:14:28Z</time>
      </trkpt>
      <trkpt lat="42.7454" lon="-0.03404">
        <ele>1511</ele>
        <time>2016-12-10T21:16:28Z</time>
      </trkpt>
      <trkpt lat="42.74525" lon="-0.0319">
        <ele>1496</ele>
        <time>2016-12-10T21:18:28Z</time>
      </trkpt>
      <trkpt lat="42.74474" lon="-0.03003">
        <ele>1486</ele>
        <time>2016-12-10T21:20:28Z</time>
      </trkpt>
      <trkpt lat="42.74418" lon="-0.02802">
        <ele>1457</ele>
        <time>2016-12-10T21:22:28Z</time>
      </trkpt>
      <trkpt lat="42.7435" lon="-0.02746">
        <ele>1466</ele>
        <time>2016-12-10T21:24:28Z</time>
      </trkpt>
      <trkpt lat="42.74264" lon="-0.02578">
        <ele>1491</ele>
        <time>2016-12-10T21:26:28Z</time>
      </trkpt>
      <trkpt lat="42.74156" lon="-0.0239">
        <ele>1512</ele>
        <time>2016-12-10T21:28:28Z</time>
      </trkpt>
      <trkpt lat="42.74043" lon="-0.02377">
        <ele>1510</ele>
        <time>2016-12-10T21:30:28Z</time>
      </trkpt>
      <trkpt lat="42.73955" lon="-0.02158">
        <ele>1495</ele>
        <time>2016-12-10T21:32:28Z</time>
      </trkpt>
      <trkpt lat="42.73915" lon="-0.01939">
        <ele>1482</ele>
        <time>2016-12-10T21:34:28Z</time>
      </trkpt>
      <trkpt lat="42.7381" lon="-0.01789">
        <ele>1467</ele>
        <time>2016-12-10T21:36:28Z</time>
      </trkpt>
      <trkpt lat="42.7375" lon="-0.01819">
        <ele>1474</ele>
        <time>2016-12-10T21:38:28Z</time>
      </trkpt>
      <trkpt lat="42.73748" lon="-0.01681">
        <ele>1457</ele>
        <time>2016-12-10T21:40:28Z</time>
      </trkpt>
      <trkpt lat="42.73703" lon="-0.01647">
        <ele>1458</ele>
        <time>2016-12-10T21:42:28Z</time>
      </trkpt>
      <trkpt lat="42.73649" lon="-0.01472">
        <ele>1441</ele>
        <time>2016-12-10T21:44:28Z</time>
      </trkpt>
      <trkpt lat="42.73198" lon="-0.01167">
        <ele>1434</ele>
        <time>2016-12-10T21:46:28Z</time>
      </trkpt>
      <trkpt lat="42.73034" lon="-0.01055">
        <ele>1412</ele>
        <time>2016-12-10T21:48:28Z</time>
      </trkpt>
      <trkpt lat="42.72914" lon="-0.01004">
        <ele>1420</ele>
        <time>2016-12-10T21:50:28Z</time>
      </trkpt>
      <trkpt lat="42.7292" lon="-0.00817">
        <ele>1384</ele>
        <time>2016-12-10T21:52:28Z</time>
      </trkpt>
      <trkpt lat="42.73083" lon="-0.00884">
        <ele>1379</ele>
        <time>2016-12-10T21:54:28Z</time>
      </trkpt>
      <trkpt lat="42.73175" lon="-0.00921">
        <ele>1377</ele>
        <time>2016-12-10T21:56:28Z</time>
      </trkpt>
      <trkpt lat="42.73195" lon="-0.00943">
        <ele>1378</ele>
        <time>2016-12-10T21:58:28Z</time>
      </trkpt>
      <trkpt lat="42.73225" lon="-0.00945">
        <ele>1377</ele>
        <time>2016-12-10T22:00:28Z</time>
      </trkpt>
      <trkpt lat="42.73301" lon="-0.00968">
        <ele>1381</ele>
        <time>2016-12-10T22:02:28Z</time>
      </trkpt>
      <trkpt lat="42.73391" lon="-0.00964">
        <ele>1381</ele>
        <time>2016-12-10T22:04:28Z</time>
      </trkpt>
      <trkpt lat="42.73493" lon="-0.01028">
        <ele>1380</ele>
        <time>2016-12-10T22:06:28Z</time>
      </trkpt>
      <trkpt lat="42.73533" lon="-0.01136">
        <ele>1380</ele>
        <time>2016-12-10T22:08:28Z</time>
      </trkpt>
      <trkpt lat="42.73569" lon="-0.01228">
        <ele>1385</ele>
        <time>2016-12-10T22:10:28Z</time>
      </trkpt>
      <trkpt lat="42.73657" lon="-0.01279">
        <ele>1384</ele>
        <time>2016-12-10T22:12:28Z</time>
      </trkpt>
      <trkpt lat="42.73741" lon="-0.01296">
        <ele>1378</ele>
        <time>2016-12-10T22:14:28Z</time>
      </trkpt>
      <trkpt lat="42.73785" lon="-0.01365">
        <ele>1384</ele>
        <time>2016-12-10T22:16:28Z</time>
      </trkpt>
      <trkpt lat="42.73831" lon="-0.01419">
        <ele>1386</ele>
        <time>2016-12-10T22:18:28Z</time>
      </trkpt>
      <trkpt lat="42.73876" lon="-0.01406">
        <ele>1375</ele>
        <time>2016-12-10T22:20:28Z</time>
      </trkpt>
      <trkpt lat="42.73908" lon="-0.01354">
        <ele>1368</ele>
        <time>2016-12-10T22:22:28Z</time>
      </trkpt>
      <trkpt lat="42.73908" lon="-0.01303">
        <ele>1358</ele>
        <time>2016-12-10T22:24:28Z</time>
      </trkpt>
      <trkpt lat="42.73955" lon="-0.0126">
        <ele>1357</ele>
        <time>2016-12-10T22:26:28Z</time>
      </trkpt>
      <trkpt lat="42.73955" lon="-0.01105">
        <ele>1328</ele>
        <time>2016-12-10T22:28:28Z</time>
      </trkpt>
      <trkpt lat="42.73944" lon="-0.01054">
        <ele>1319</ele>
        <time>2016-12-10T22:30:28Z</time>
      </trkpt>
      <trkpt lat="42.73971" lon="-0.01037">
        <ele>1320</ele>
        <time>2016-12-10T22:32:28Z</time>
      </trkpt>
      <trkpt lat="42.74031" lon="-0.01071">
        <ele>1342</ele>
        <time>2016-12-10T22:34:28Z</time>
      </trkpt>
      <trkpt lat="42.74056" lon="-0.01041">
        <ele>1346</ele>
        <time>2016-12-10T22:36:28Z</time>
      </trkpt>
      <trkpt lat="42.74091" lon="-0.0103">
        <ele>1374</ele>
        <time>2016-12-10T22:38:28Z</time>
      </trkpt>
      <trkpt lat="42.74108" lon="-0.00964">
        <ele>1354</ele>
        <time>2016-12-10T22:40:28Z</time>
      </trkpt>
      <trkpt lat="42.74141" lon="-0.00895">
        <ele>1332</ele>
        <time>2016-12-10T22:42:28Z</time>
      </trkpt>
      <trkpt lat="42.74154" lon="-0.00818">
        <ele>1313</ele>
        <time>2016-12-10T22:44:28Z</time>
      </trkpt>
      <trkpt lat="42.7419" lon="-0.00784">
        <ele>1309</ele>
        <time>2016-12-10T22:46:28Z</time>
      </trkpt>
      <trkpt lat="42.74248" lon="-0.00775">
        <ele>1308</ele>
        <time>2016-12-10T22:48:28Z</time>
      </trkpt>
      <trkpt lat="42.74318" lon="-0.00784">
        <ele>1304</ele>
        <time>2016-12-10T22:50:28Z</time>
      </trkpt>
      <trkpt lat="42.74379" lon="-0.00749">
        <ele>1290</ele>
        <time>2016-12-10T22:52:28Z</time>
      </trkpt>
      <trkpt lat="42.7444" lon="-0.00728">
        <ele>1289</ele>
        <time>2016-12-10T22:54:28Z</time>
      </trkpt>
      <trkpt lat="42.74483" lon="-0.00698">
        <ele>1290</ele>
        <time>2016-12-10T22:56:28Z</time>
      </trkpt>
      <trkpt lat="42.74529" lon="-0.00659">
        <ele>1292</ele>
        <time>2016-12-10T22:58:28Z</time>
      </trkpt>
      <trkpt lat="42.74568" lon="-0.00711">
        <ele>1299</ele>
        <time>2016-12-10T23:00:28Z</time>
      </trkpt>
      <trkpt lat="42.74611" lon="-0.00747">
        <ele>1311</ele>
        <time>2016-12-10T23:02:28Z</time>
      </trkpt>
      <trkpt lat="42.74647" lon="-0.00786">
        <ele>1323</ele>
        <time>2016-12-10T23:04:28Z</time>
      </trkpt>
      <trkpt lat="42.74672" lon="-0.00805">
        <ele>1340</ele>
        <time>2016-12-10T23:06:28Z</time>
      </trkpt>
      <trkpt lat="42.74669" lon="-0.00861">
        <ele>1359</ele>
        <time>2016-12-10T23:08:28Z</time>
      </trkpt>
      <trkpt lat="42.74732" lon="-0.00878">
        <ele>1370</ele>
        <time>2016-12-10T23:10:28Z</time>
      </trkpt>
      <trkpt lat="42.74797" lon="-0.00923">
        <ele>1411</ele>
        <time>2016-12-10T23:12:28Z</time>
      </trkpt>
      <trkpt lat="42.74762" lon="-0.00998">
        <ele>1424</ele>
        <time>2016-12-10T23:14:28Z</time>
      </trkpt>
      <trkpt lat="42.74836" lon="-0.01018">
        <ele>1449</ele>
        <time>2016-12-10T23:16:28Z</time>
      </trkpt>
      <trkpt lat="42.74809" lon="-0.01058">
        <ele>1454</ele>
        <time>2016-12-10T23:18:28Z</time>
      </trkpt>
      <trkpt lat="42.74784" lon="-0.01112">
        <ele>1479</ele>
        <time>2016-12-10T23:20:28Z</time>
      </trkpt>
      <trkpt lat="42.74734" lon="-0.0114">
        <ele>1483</ele>
        <time>2016-12-10T23:22:28Z</time>
      </trkpt>
      <trkpt lat="42.74663" lon="-0.01166">
        <ele>1497</ele>
        <time>2016-12-10T23:24:28Z</time>
      </trkpt>
      <trkpt lat="42.74729" lon="-0.01187">
        <ele>1511</ele>
        <time>2016-12-10T23:26:28Z</time>
      </trkpt>
      <trkpt lat="42.74801" lon="-0.01172">
        <ele>1513</ele>
        <time>2016-12-10T23:28:28Z</time>
      </trkpt>
      <trkpt lat="42.74867" lon="-0.01178">
        <ele>1518</ele>
        <time>2016-12-10T23:30:28Z</time>
      </trkpt>
      <trkpt lat="42.74934" lon="-0.01178">
        <ele>1526</ele>
        <time>2016-12-10T23:32:28Z</time>
      </trkpt>
      <trkpt lat="42.75011" lon="-0.01123">
        <ele>1524</ele>
        <time>2016-12-10T23:34:28Z</time>
      </trkpt>
      <trkpt lat="42.75077" lon="-0.01097">
        <ele>1524</ele>
        <time>2016-12-10T23:36:28Z</time>
      </trkpt>
      <trkpt lat="42.75129" lon="-0.01054">
        <ele>1519</ele>
        <time>2016-12-10T23:38:28Z</time>
      </trkpt>
      <trkpt lat="42.75178" lon="-0.01037">
        <ele>1532</ele>
        <time>2016-12-10T23:40:28Z</time>
      </trkpt>
      <trkpt lat="42.75249" lon="-0.00994">
        <ele>1538</ele>
        <time>2016-12-10T23:42:28Z</time>
      </trkpt>
      <trkpt lat="42.75277" lon="-0.01052">
        <ele>1555</ele>
        <time>2016-12-10T23:44:28Z</time>
      </trkpt>
      <trkpt lat="42.75359" lon="-0.01043">
        <ele>1579</ele>
        <time>2016-12-10T23:46:28Z</time>
      </trkpt>
      <trkpt lat="42.7537" lon="-0.01084">
        <ele>1586</ele>
        <time>2016-12-10T23:48:28Z</time>
      </trkpt>
      <trkpt lat="42.75446" lon="-0.01071">
        <ele>1601</ele>
        <time>2016-12-10T23:50:28Z</time>
      </trkpt>
      <trkpt lat="42.75509" lon="-0.01095">
        <ele>1621</ele>
        <time>2016-12-10T23:52:28Z</time>
      </trkpt>
      <trkpt lat="42.75572" lon="-0.01103">
        <ele>1631</ele>
        <time>2016-12-10T23:54:28Z</time>
      </trkpt>
      <trkpt lat="42.75602" lon="-0.01082">
        <ele>1632</ele>
        <time>2016-12-10T23:56:28Z</time>
      </trkpt>
      <trkpt lat="42.75608" lon="-0.0102">
        <ele>1630</ele>
        <time>2016-12-10T23:58:28Z</time>
      </trkpt>
      <trkpt lat="42.75681" lon="-0.01037">
        <ele>1645</ele>
        <time>2016-12-11T00:00:28Z</time>
      </trkpt>
      <trkpt lat="42.75699" lon="-0.01078">
        <ele>1648</ele>
        <time>2016-12-11T00:02:28Z</time>
      </trkpt>
      <trkpt lat="42.7575" lon="-0.01035">
        <ele>1656</ele>
        <time>2016-12-11T00:04:28Z</time>
      </trkpt>
      <trkpt lat="42.75783" lon="-0.01082">
        <ele>1660</ele>
        <time>2016-12-11T00:06:28Z</time>
      </trkpt>
      <trkpt lat="42.75841" lon="-0.0102">
        <ele>1664</ele>
        <time>2016-12-11T00:08:28Z</time>
      </trkpt>
      <trkpt lat="42.75903" lon="-0.00977">
        <ele>1659</ele>
        <time>2016-12-11T00:10:28Z</time>
      </trkpt>
      <trkpt lat="42.75963" lon="-0.00951">
        <ele>1663</ele>
        <time>2016-12-11T00:12:28Z</time>
      </trkpt>
      <trkpt lat="42.76026" lon="-0.00917">
        <ele>1665</ele>
        <time>2016-12-11T00:14:28Z</time>
      </trkpt>
      <trkpt lat="42.76093" lon="-0.00878">
        <ele>1658</ele>
        <time>2016-12-11T00:16:28Z</time>
      </trkpt>
      <trkpt lat="42.76167" lon="-0.00857">
        <ele>1655</ele>
        <time>2016-12-11T00:18:28Z</time>
      </trkpt>
      <trkpt lat="42.76218" lon="-0.00812">
        <ele>1644</ele>
        <time>2016-12-11T00:20:28Z</time>
      </trkpt>
      <trkpt lat="42.76213" lon="-0.00754">
        <ele>1640</ele>
        <time>2016-12-11T00:22:28Z</time>
      </trkpt>
      <trkpt lat="42.76256" lon="-0.00698">
        <ele>1635</ele>
        <time>2016-12-11T00:24:28Z</time>
      </trkpt>
      <trkpt lat="42.76319" lon="-0.00678">
        <ele>1635</ele>
        <time>2016-12-11T00:26:28Z</time>
      </trkpt>
      <trkpt lat="42.76378" lon="-0.00663">
        <ele>1627</ele>
        <time>2016-12-11T00:28:28Z</time>
      </trkpt>
      <trkpt lat="42.76443" lon="-0.00676">
        <ele>1632</ele>
        <time>2016-12-11T00:30:28Z</time>
      </trkpt>
      <trkpt lat="42.76523" lon="-0.00646">
        <ele>1632</ele>
        <time>2016-12-11T00:32:28Z</time>
      </trkpt>
      <trkpt lat="42.76597" lon="-0.00629">
        <ele>1638</ele>
        <time>2016-12-11T00:34:28Z</time>
      </trkpt>
      <trkpt lat="42.76664" lon="-0.00595">
        <ele>1637</ele>
        <time>2016-12-11T00:36:28Z</time>
      </trkpt>
      <trkpt lat="42.76733" lon="-0.00575">
        <ele>1628</ele>
        <time>2016-12-11T00:38:28Z</time>
      </trkpt>
      <trkpt lat="42.7681" lon="-0.00588">
        <ele>1625</ele>
        <time>2016-12-11T00:40:28Z</time>
      </trkpt>
      <trkpt lat="42.76889" lon="-0.00563">
        <ele>1612</ele>
        <time>2016-12-11T00:42:28Z</time>
      </trkpt>
      <trkpt lat="42.7696" lon="-0.00533">
        <ele>1603</ele>
        <time>2016-12-11T00:44:28Z</time>
      </trkpt>
      <trkpt lat="42.77032" lon="-0.00552">
        <ele>1595</ele>
        <time>2016-12-11T00:46:28Z</time>
      </trkpt>
      <trkpt lat="42.77092" lon="-0.00599">
        <ele>1585</ele>
        <time>2016-12-11T00:48:28Z</time>
      </trkpt>
      <trkpt lat="42.77139" lon="-0.00644">
        <ele>1581</ele>
        <time>2016-12-11T00:50:28Z</time>
      </trkpt>
      <trkpt lat="42.77142" lon="-0.00717">
        <ele>1588</ele>
        <time>2016-12-11T00:52:28Z</time>
      </trkpt>
      <trkpt lat="42.77185" lon="-0.00775">
        <ele>1576</ele>
        <time>2016-12-11T00:54:28Z</time>
      </trkpt>
      <trkpt lat="42.77235" lon="-0.0082">
        <ele>1569</ele>
        <time>2016-12-11T00:56:28Z</time>
      </trkpt>
      <trkpt lat="42.7725" lon="-0.00878">
        <ele>1559</ele>
        <time>2016-12-11T00:58:28Z</time>
      </trkpt>
      <trkpt lat="42.77257" lon="-0.00964">
        <ele>1562</ele>
        <time>2016-12-11T01:00:28Z</time>
      </trkpt>
      <trkpt lat="42.77276" lon="-0.00876">
        <ele>1557</ele>
        <time>2016-12-11T01:02:28Z</time>
      </trkpt>
      <trkpt lat="42.77302" lon="-0.00775">
        <ele>1548</ele>
        <time>2016-12-11T01:04:28Z</time>
      </trkpt>
      <trkpt lat="42.77344" lon="-0.00702">
        <ele>1539</ele>
        <time>2016-12-11T01:06:28Z</time>
      </trkpt>
      <trkpt lat="42.77368" lon="-0.00608">
        <ele>1534</ele>
        <time>2016-12-11T01:08:28Z</time>
      </trkpt>
      <trkpt lat="42.77355" lon="-0.00518">
        <ele>1522</ele>
        <time>2016-12-11T01:10:28Z</time>
      </trkpt>
      <trkpt lat="42.77342" lon="-0.00438">
        <ele>1510</ele>
        <time>2016-12-11T01:12:28Z</time>
      </trkpt>
      <trkpt lat="42.77305" lon="-0.0038">
        <ele>1510</ele>
        <time>2016-12-11T01:14:28Z</time>
      </trkpt>
      <trkpt lat="42.77253" lon="-0.00322">
        <ele>1509</ele>
        <time>2016-12-11T01:16:28Z</time>
      </trkpt>
      <trkpt lat="42.7729" lon="-0.00254">
        <ele>1497</ele>
        <time>2016-12-11T01:18:28Z</time>
      </trkpt>
      <trkpt lat="42.7733" lon="-0.00196">
        <ele>1481</ele>
        <time>2016-12-11T01:20:28Z</time>
      </trkpt>
      <trkpt lat="42.77322" lon="-0.00114">
        <ele>1470</ele>
        <time>2016-12-11T01:22:28Z</time>
      </trkpt>
      <trkpt lat="42.77319" lon="-0.00037">
        <ele>1456</ele>
        <time>2016-12-11T01:24:28Z</time>
      </trkpt>
      <trkpt lat="42.7732" lon="0.00051">
        <ele>1432</ele>
        <time>2016-12-11T01:26:28Z</time>
      </trkpt>
      <trkpt lat="42.77292" lon="0.00115">
        <ele>1417</ele>
        <time>2016-12-11T01:28:28Z</time>
      </trkpt>
      <trkpt lat="42.77283" lon="0.00199">
        <ele>1400</ele>
        <time>2016-12-11T01:30:28Z</time>
      </trkpt>
      <trkpt lat="42.77289" lon="0.00264">
        <ele>1386</ele>
        <time>2016-12-11T01:32:28Z</time>
      </trkpt>
      <trkpt lat="42.77335" lon="0.00315">
        <ele>1363</ele>
        <time>2016-12-11T01:34:28Z</time>
      </trkpt>
      <trkpt lat="42.77353" lon="0.00388">
        <ele>1338</ele>
        <time>2016-12-11T01:36:28Z</time>
      </trkpt>
      <trkpt lat="42.77391" lon="0.00427">
        <ele>1315</ele>
        <time>2016-12-11T01:38:28Z</time>
      </trkpt>
      <trkpt lat="42.77404" lon="0.0048">
        <ele>1307</ele>
        <time>2016-12-11T01:40:28Z</time>
      </trkpt>
      <trkpt lat="42.77435" lon="0.00454">
        <ele>1324</ele>
        <time>2016-12-11T01:42:28Z</time>
      </trkpt>
      <trkpt lat="42.77445" lon="0.00523">
        <ele>1306</ele>
        <time>2016-12-11T01:44:28Z</time>
      </trkpt>
      <trkpt lat="42.77502" lon="0.00588">
        <ele>1312</ele>
        <time>2016-12-11T01:46:28Z</time>
      </trkpt>
      <trkpt lat="42.77536" lon="0.00648">
        <ele>1309</ele>
        <time>2016-12-11T01:48:28Z</time>
      </trkpt>
      <trkpt lat="42.77568" lon="0.00669">
        <ele>1305</ele>
        <time>2016-12-11T01:50:28Z</time>
      </trkpt>
      <trkpt lat="42.77591" lon="0.00661">
        <ele>1325</ele>
        <time>2016-12-11T01:52:28Z</time>
      </trkpt>
      <trkpt lat="42.77635" lon="0.00736">
        <ele>1319</ele>
        <time>2016-12-11T01:54:28Z</time>
      </trkpt>
      <trkpt lat="42.77736" lon="0.00794">
        <ele>1324</ele>
        <time>2016-12-11T01:56:28Z</time>
      </trkpt>
      <trkpt lat="42.77781" lon="0.0092">
        <ele>1300</ele>
        <time>2016-12-11T01:58:28Z</time>
      </trkpt>
      <trkpt lat="42.77847" lon="0.00962">
        <ele>1301</ele>
        <time>2016-12-11T02:00:28Z</time>
      </trkpt>
      <trkpt lat="42.77862" lon="0.01004">
        <ele>1288</ele>
        <time>2016-12-11T02:02:28Z</time>
      </trkpt>
      <trkpt lat="42.77862" lon="0.01064">
        <ele>1281</ele>
        <time>2016-12-11T02:04:28Z</time>
      </trkpt>
      <trkpt lat="42.77909" lon="0.01083">
        <ele>1274</ele>
        <time>2016-12-11T02:06:28Z</time>
      </trkpt>
      <trkpt lat="42.77881" lon="0.01133">
        <ele>1256</ele>
        <time>2016-12-11T02:08:28Z</time>
      </trkpt>
      <trkpt lat="42.77908" lon="0.0118">
        <ele>1240</ele>
        <time>2016-12-11T02:10:28Z</time>
      </trkpt>
      <trkpt lat="42.77913" lon="0.0124">
        <ele>1230</ele>
        <time>2016-12-11T02:12:28Z</time>
      </trkpt>
      <trkpt lat="42.7787" lon="0.01216">
        <ele>1227</ele>
        <time>2016-12-11T02:14:28Z</time>
      </trkpt>
      <trkpt lat="42.77817" lon="0.01165">
        <ele>1237</ele>
        <time>2016-12-11T02:16:28Z</time>
      </trkpt>
      <trkpt lat="42.77846" lon="0.01272">
        <ele>1196</ele>
        <time>2016-12-11T02:18:28Z</time>
      </trkpt>
      <trkpt lat="42.77878" lon="0.01362">
        <ele>1161</ele>
        <time>2016-12-11T02:20:28Z</time>
      </trkpt>
      <trkpt lat="42.77917" lon="0.01431">
        <ele>1151</ele>
        <time>2016-12-11T02:22:28Z</time>
      </trkpt>
      <trkpt lat="42.77938" lon="0.01502">
        <ele>1124</ele>
        <time>2016-12-11T02:24:28Z</time>
      </trkpt>
      <trkpt lat="42.77909" lon="0.01538">
        <ele>1108</ele>
        <time>2016-12-11T02:26:28Z</time>
      </trkpt>
      <trkpt lat="42.77941" lon="0.01609">
        <ele>1096</ele>
        <time>2016-12-11T02:28:28Z</time>
      </trkpt>
      <trkpt lat="42.78001" lon="0.01587">
        <ele>1116</ele>
        <time>2016-12-11T02:30:28Z</time>
      </trkpt>
      <trkpt lat="42.78064" lon="0.01615">
        <ele>1105</ele>
        <time>2016-12-11T02:32:28Z</time>
      </trkpt>
      <trkpt lat="42.78124" lon="0.01663">
        <ele>1097</ele>
        <time>2016-12-11T02:34:28Z</time>
      </trkpt>
      <trkpt lat="42.78176" lon="0.01718">
        <ele>1071</ele>
        <time>2016-12-11T02:36:28Z</time>
      </trkpt>
      <trkpt lat="42.7824" lon="0.01725">
        <ele>1067</ele>
        <time>2016-12-11T02:38:28Z</time>
      </trkpt>
      <trkpt lat="42.78306" lon="0.0171">
        <ele>1060</ele>
        <time>2016-12-11T02:40:28Z</time>
      </trkpt>
      <trkpt lat="42.78356" lon="0.01688">
        <ele>1049</ele>
        <time>2016-12-11T02:42:28Z</time>
      </trkpt>
      <trkpt lat="42.78308" lon="0.01733">
        <ele>1055</ele>
        <time>2016-12-11T02:44:28Z</time>
      </trkpt>
      <trkpt lat="42.78302" lon="0.01797">
        <ele>1045</ele>
        <time>2016-12-11T02:46:28Z</time>
      </trkpt>
      <trkpt lat="42.78335" lon="0.01828">
        <ele>1034</ele>
        <time>2016-12-11T02:48:28Z</time>
      </trkpt>
      <trkpt lat="42.78356" lon="0.01877">
        <ele>1035</ele>
        <time>2016-12-11T02:50:28Z</time>
      </trkpt>
      <trkpt lat="42.78394" lon="0.01929">
        <ele>1038</ele>
        <time>2016-12-11T02:52:28Z</time>
      </trkpt>
      <trkpt lat="42.78506" lon="0.02023">
        <ele>1025</ele>
        <time>2016-12-11T02:54:28Z</time>
      </trkpt>
      <trkpt lat="42.78566" lon="0.02012">
        <ele>1020</ele>
        <time>2016-12-11T02:56:28Z</time>
      </trkpt>
      <trkpt lat="42.78619" lon="0.02032">
        <ele>1013</ele>
        <time>2016-12-11T02:58:28Z</time>
      </trkpt>
      <trkpt lat="42.78669" lon="0.02113">
        <ele>1018</ele>
        <time>2016-12-11T03:00:28Z</time>
      </trkpt>
      <trkpt lat="42.78699" lon="0.02123">
        <ele>1019</ele>
        <time>2016-12-11T03:02:28Z</time>
      </trkpt>
      <trkpt lat="42.78724" lon="0.0207">
        <ele>1011</ele>
        <time>2016-12-11T03:04:28Z</time>
      </trkpt>
      <trkpt lat="42.78746" lon="0.01984">
        <ele>1004</ele>
        <time>2016-12-11T03:06:28Z</time>
      </trkpt>
      <trkpt lat="42.78824" lon="0.01935">
        <ele>1006</ele>
        <time>2016-12-11T03:08:28Z</time>
      </trkpt>
      <trkpt lat="42.78875" lon="0.01948">
        <ele>1013</ele>
        <time>2016-12-11T03:10:28Z</time>
      </trkpt>
      <trkpt lat="42.78957" lon="0.01913">
        <ele>1009</ele>
        <time>2016-12-11T03:12:28Z</time>
      </trkpt>
      <trkpt lat="42.79015" lon="0.01812">
        <ele>1002</ele>
        <time>2016-12-11T03:14:28Z</time>
      </trkpt>
      <trkpt lat="42.79074" lon="0.0177">
        <ele>999</ele>
        <time>2016-12-11T03:16:28Z</time>
      </trkpt>
      <trkpt lat="42.79124" lon="0.01772">
        <ele>996</ele>
        <time>2016-12-11T03:18:28Z</time>
      </trkpt>
      <trkpt lat="42.79105" lon="0.01745">
        <ele>1000</ele>
        <time>2016-12-11T03:20:28Z</time>
      </trkpt>
      <trkpt lat="42.79125" lon="0.01749">
        <ele>1000</ele>
        <time>2016-12-11T03:22:28Z</time>
      </trkpt>
      <trkpt lat="42.79135" lon="0.0171">
        <ele>1003</ele>
        <time>2016-12-11T03:24:28Z</time>
      </trkpt>
      <trkpt lat="42.79179" lon="0.01731">
        <ele>993</ele>
        <time>2016-12-11T03:26:28Z</time>
      </trkpt>
      <trkpt lat="42.79267" lon="0.01723">
        <ele>991</ele>
        <time>2016-12-11T03:28:28Z</time>
      </trkpt>
      <trkpt lat="42.79338" lon="0.01649">
        <ele>1015</ele>
        <time>2016-12-11T03:30:28Z</time>
      </trkpt>
      <trkpt lat="42.79405" lon="0.01671">
        <ele>998</ele>
        <time>2016-12-11T03:32:28Z</time>
      </trkpt>
      <trkpt lat="42.79478" lon="0.01697">
        <ele>985</ele>
        <time>2016-12-11T03:34:28Z</time>
      </trkpt>
      <trkpt lat="42.79527" lon="0.0165">
        <ele>987</ele>
        <time>2016-12-11T03:36:28Z</time>
      </trkpt>
      <trkpt lat="42.79544" lon="0.01577">
        <ele>997</ele>
        <time>2016-12-11T03:38:28Z</time>
      </trkpt>
      <trkpt lat="42.7958" lon="0.01491">
        <ele>1000</ele>
        <time>2016-12-11T03:40:28Z</time>
      </trkpt>
      <trkpt lat="42.79646" lon="0.01427">
        <ele>984</ele>
        <time>2016-12-11T03:42:28Z</time>
      </trkpt>
      <trkpt lat="42.79676" lon="0.01356">
        <ele>994</ele>
        <time>2016-12-11T03:44:28Z</time>
      </trkpt>
      <trkpt lat="42.79694" lon="0.01285">
        <ele>1023</ele>
        <time>2016-12-11T03:46:28Z</time>
      </trkpt>
      <trkpt lat="42.79798" lon="0.01229">
        <ele>1030</ele>
        <time>2016-12-11T03:48:28Z</time>
      </trkpt>
      <trkpt lat="42.79851" lon="0.01246">
        <ele>1012</ele>
        <time>2016-12-11T03:50:28Z</time>
      </trkpt>
      <trkpt lat="42.79892" lon="0.01225">
        <ele>1015</ele>
        <time>2016-12-11T03:52:28Z</time>
      </trkpt>
      <trkpt lat="42.80021" lon="0.01225">
        <ele>998</ele>
        <time>2016-12-11T03:54:28Z</time>
      </trkpt>
      <trkpt lat="42.80111" lon="0.01221">
        <ele>996</ele>
        <time>2016-12-11T03:56:28Z</time>
      </trkpt>
      <trkpt lat="42.80179" lon="0.01208">
        <ele>1000</ele>
        <time>2016-12-11T03:58:28Z</time>
      </trkpt>
      <trkpt lat="42.80275" lon="0.01186">
        <ele>1012</ele>
        <time>2016-12-11T04:00:28Z</time>
      </trkpt>
      <trkpt lat="42.80352" lon="0.01201">
        <ele>998</ele>
        <time>2016-12-11T04:02:28Z</time>
      </trkpt>
      <trkpt lat="42.80429" lon="0.01154">
        <ele>998</ele>
        <time>2016-12-11T04:04:28Z</time>
      </trkpt>
      <trkpt lat="42.80478" lon="0.01085">
        <ele>1002</ele>
        <time>2016-12-11T04:06:28Z</time>
      </trkpt>
      <trkpt lat="42.80522" lon="0.01051">
        <ele>993</ele>
        <time>2016-12-11T04:08:28Z</time>
      </trkpt>
      <trkpt lat="42.80578" lon="0.01042">
        <ele>983</ele>
        <time>2016-12-11T04:10:28Z</time>
      </trkpt>
      <trkpt lat="42.80586" lon="0.01008">
        <ele>971</ele>
        <time>2016-12-11T04:12:28Z</time>
      </trkpt>
      <trkpt lat="42.80572" lon="0.00957">
        <ele>987</ele>
        <time>2016-12-11T04:14:28Z</time>
      </trkpt>
      <trkpt lat="42.80492" lon="0.00929">
        <ele>1016</ele>
        <time>2016-12-11T04:16:28Z</time>
      </trkpt>
      <trkpt lat="42.80475" lon="0.00879">
        <ele>1018</ele>
        <time>2016-12-11T04:18:28Z</time>
      </trkpt>
      <trkpt lat="42.80523" lon="0.008">
        <ele>1003</ele>
        <time>2016-12-11T04:20:28Z</time>
      </trkpt>
      <trkpt lat="42.80528" lon="0.00701">
        <ele>1016</ele>
        <time>2016-12-11T04:22:28Z</time>
      </trkpt>
      <trkpt lat="42.80556" lon="0.00618">
        <ele>1021</ele>
        <time>2016-12-11T04:24:28Z</time>
      </trkpt>
      <trkpt lat="42.80583" lon="0.0054">
        <ele>1029</ele>
        <time>2016-12-11T04:26:28Z</time>
      </trkpt>
      <trkpt lat="42.80634" lon="0.00489">
        <ele>1022</ele>
        <time>2016-12-11T04:28:28Z</time>
      </trkpt>
      <trkpt lat="42.80628" lon="0.00472">
        <ele>1024</ele>
        <time>2016-12-11T04:30:28Z</time>
      </trkpt>
      <trkpt lat="42.80647" lon="0.00468">
        <ele>1023</ele>
        <time>2016-12-11T04:32:28Z</time>
      </trkpt>
      <trkpt lat="42.80621" lon="0.00343">
        <ele>1054</ele>
        <time>2016-12-11T04:34:28Z</time>
      </trkpt>
      <trkpt lat="42.80596" lon="0.00287">
        <ele>1074</ele>
        <time>2016-12-11T04:36:28Z</time>
      </trkpt>
      <trkpt lat="42.80754" lon="0.00305">
        <ele>1114</ele>
        <time>2016-12-11T04:38:28Z</time>
      </trkpt>
      <trkpt lat="42.80923" lon="0.0025">
        <ele>1131</ele>
        <time>2016-12-11T04:40:28Z</time>
      </trkpt>
      <trkpt lat="42.80971" lon="0.00181">
        <ele>1140</ele>
        <time>2016-12-11T04:42:28Z</time>
      </trkpt>
      <trkpt lat="42.81052" lon="-0.00024">
        <ele>1184</ele>
        <time>2016-12-11T04:44:28Z</time>
      </trkpt>
      <trkpt lat="42.81055" lon="-0.00024">
        <ele>1183</ele>
        <time>2016-12-11T04:46:28Z</time>
      </trkpt>
      <trkpt lat="42.81057" lon="-0.00027">
        <ele>1183</ele>
        <time>2016-12-11T04:48:28Z</time>
      </trkpt>
      <trkpt lat="42.81125" lon="-0.00109">
        <ele>1219</ele>
        <time>2016-12-11T04:50:28Z</time>
      </trkpt>
      <trkpt lat="42.81283" lon="-0.00162">
        <ele>1240</ele>
        <time>2016-12-11T04:52:28Z</time>
      </trkpt>
      <trkpt lat="42.81363" lon="-0.00201">
        <ele>1278</ele>
        <time>2016-12-11T04:54:28Z</time>
      </trkpt>
      <trkpt lat="42.81415" lon="-0.00176">
        <ele>1269</ele>
        <time>2016-12-11T04:56:28Z</time>
      </trkpt>
      <trkpt lat="42.81501" lon="-0.00131">
        <ele>1286</ele>
        <time>2016-12-11T04:58:28Z</time>
      </trkpt>
      <trkpt lat="42.81559" lon="-0.00084">
        <ele>1282</ele>
        <time>2016-12-11T05:00:28Z</time>
      </trkpt>
      <trkpt lat="42.81639" lon="-0.00112">
        <ele>1314</ele>
        <time>2016-12-11T05:02:28Z</time>
      </trkpt>
      <trkpt lat="42.81738" lon="-0.00098">
        <ele>1334</ele>
        <time>2016-12-11T05:04:28Z</time>
      </trkpt>
      <trkpt lat="42.81823" lon="-0.00028">
        <ele>1344</ele>
        <time>2016-12-11T05:06:28Z</time>
      </trkpt>
      <trkpt lat="42.81891" lon="-6.0E-5">
        <ele>1377</ele>
        <time>2016-12-11T05:08:28Z</time>
      </trkpt>
      <trkpt lat="42.8194" lon="4.0E-5">
        <ele>1370</ele>
        <time>2016-12-11T05:10:28Z</time>
      </trkpt>
      <trkpt lat="42.82071" lon="8.0E-5">
        <ele>1398</ele>
        <time>2016-12-11T05:12:28Z</time>
      </trkpt>
      <trkpt lat="42.82092" lon="0.00044">
        <ele>1401</ele>
        <time>2016-12-11T05:14:28Z</time>
      </trkpt>
      <trkpt lat="42.82156" lon="0.00021">
        <ele>1407</ele>
        <time>2016-12-11T05:16:28Z</time>
      </trkpt>
      <trkpt lat="42.82171" lon="0.0006">
        <ele>1405</ele>
        <time>2016-12-11T05:18:28Z</time>
      </trkpt>
      <trkpt lat="42.82172" lon="0.00103">
        <ele>1396</ele>
        <time>2016-12-11T05:20:28Z</time>
      </trkpt>
      <trkpt lat="42.82195" lon="0.00191">
        <ele>1372</ele>
        <time>2016-12-11T05:22:28Z</time>
      </trkpt>
      <trkpt lat="42.82312" lon="0.00252">
        <ele>1331</ele>
        <time>2016-12-11T05:24:28Z</time>
      </trkpt>
      <trkpt lat="42.82459" lon="0.00206">
        <ele>1285</ele>
        <time>2016-12-11T05:26:28Z</time>
      </trkpt>
      <trkpt lat="42.82461" lon="0.00203">
        <ele>1285</ele>
        <time>2016-12-11T05:28:28Z</time>
      </trkpt>
      <trkpt lat="42.82464" lon="0.00203">
        <ele>1284</ele>
        <time>2016-12-11T05:30:28Z</time>
      </trkpt>
      <trkpt lat="42.82521" lon="0.00166">
        <ele>1258</ele>
        <time>2016-12-11T05:32:28Z</time>
      </trkpt>
      <trkpt lat="42.82632" lon="0.00096">
        <ele>1199</ele>
        <time>2016-12-11T05:34:28Z</time>
      </trkpt>
      <trkpt lat="42.82832" lon="-0.00072">
        <ele>1137</ele>
        <time>2016-12-11T05:36:28Z</time>
      </trkpt>
      <trkpt lat="42.82929" lon="-0.0017">
        <ele>1112</ele>
        <time>2016-12-11T05:38:28Z</time>
      </trkpt>
      <trkpt lat="42.83004" lon="-0.00231">
        <ele>1081</ele>
        <time>2016-12-11T05:40:28Z</time>
      </trkpt>
      <trkpt lat="42.83053" lon="-0.00245">
        <ele>1072</ele>
        <time>2016-12-11T05:42:28Z</time>
      </trkpt>
      <trkpt lat="42.83106" lon="-0.00328">
        <ele>1057</ele>
        <time>2016-12-11T05:44:28Z</time>
      </trkpt>
      <trkpt lat="42.83134" lon="-0.00284">
        <ele>1045</ele>
        <time>2016-12-11T05:46:28Z</time>
      </trkpt>
      <trkpt lat="42.83164" lon="-0.00312">
        <ele>1039</ele>
        <time>2016-12-11T05:48:28Z</time>
      </trkpt>
      <trkpt lat="42.83179" lon="-0.00273">
        <ele>1010</ele>
        <time>2016-12-11T05:50:28Z</time>
      </trkpt>
      <trkpt lat="42.83224" lon="-0.00342">
        <ele>1014</ele>
        <time>2016-12-11T05:52:28Z</time>
      </trkpt>
      <trkpt lat="42.83313" lon="-0.00312">
        <ele>957</ele>
        <time>2016-12-11T05:54:28Z</time>
      </trkpt>
      <trkpt lat="42.8337" lon="-0.00363">
        <ele>955</ele>
        <time>2016-12-11T05:56:28Z</time>
      </trkpt>
      <trkpt lat="42.83377" lon="-0.0035">
        <ele>951</ele>
        <time>2016-12-11T05:58:28Z</time>
      </trkpt>
      <trkpt lat="42.83455" lon="-0.00381">
        <ele>922</ele>
        <time>2016-12-11T06:00:28Z</time>
      </trkpt>
      <trkpt lat="42.83493" lon="-0.0037">
        <ele>912</ele>
        <time>2016-12-11T06:02:28Z</time>
      </trkpt>
      <trkpt lat="42.83527" lon="-0.00371">
        <ele>888</ele>
        <time>2016-12-11T06:04:28Z</time>
      </trkpt>
      <trkpt lat="42.83558" lon="-0.00402">
        <ele>886</ele>
        <time>2016-12-11T06:06:28Z</time>
      </trkpt>
      <trkpt lat="42.8361" lon="-0.00388">
        <ele>862</ele>
        <time>2016-12-11T06:08:28Z</time>
      </trkpt>
      <trkpt lat="42.83659" lon="-0.00377">
        <ele>853</ele>
        <time>2016-12-11T06:10:28Z</time>
      </trkpt>
      <trkpt lat="42.83695" lon="-0.00413">
        <ele>840</ele>
        <time>2016-12-11T06:12:28Z</time>
      </trkpt>
      <trkpt lat="42.83702" lon="-0.00468">
        <ele>853</ele>
        <time>2016-12-11T06:14:28Z</time>
      </trkpt>
      <trkpt lat="42.83713" lon="-0.00502">
        <ele>870</ele>
        <time>2016-12-11T06:16:28Z</time>
      </trkpt>
      <trkpt lat="42.83734" lon="-0.00538">
        <ele>871</ele>
        <time>2016-12-11T06:18:28Z</time>
      </trkpt>
      <trkpt lat="42.83768" lon="-0.00569">
        <ele>856</ele>
        <time>2016-12-11T06:20:28Z</time>
      </trkpt>
      <trkpt lat="42.83798" lon="-0.00591">
        <ele>867</ele>
        <time>2016-12-11T06:22:28Z</time>
      </trkpt>
      <trkpt lat="42.83852" lon="-0.00604">
        <ele>845</ele>
        <time>2016-12-11T06:24:28Z</time>
      </trkpt>
      <trkpt lat="42.8388" lon="-0.00648">
        <ele>846</ele>
        <time>2016-12-11T06:26:28Z</time>
      </trkpt>
      <trkpt lat="42.83906" lon="-0.00692">
        <ele>858</ele>
        <time>2016-12-11T06:28:28Z</time>
      </trkpt>
      <trkpt lat="42.83928" lon="-0.00742">
        <ele>852</ele>
        <time>2016-12-11T06:30:28Z</time>
      </trkpt>
      <trkpt lat="42.83958" lon="-0.00773">
        <ele>862</ele>
        <time>2016-12-11T06:32:28Z</time>
      </trkpt>
      <trkpt lat="42.84001" lon="-0.0079">
        <ele>846</ele>
        <time>2016-12-11T06:34:28Z</time>
      </trkpt>
      <trkpt lat="42.84039" lon="-0.00809">
        <ele>846</ele>
        <time>2016-12-11T06:36:28Z</time>
      </trkpt>
      <trkpt lat="42.84074" lon="-0.00848">
        <ele>862</ele>
        <time>2016-12-11T06:38:28Z</time>
      </trkpt>
      <trkpt lat="42.84107" lon="-0.00874">
        <ele>859</ele>
        <time>2016-12-11T06:40:28Z</time>
      </trkpt>
      <trkpt lat="42.84115" lon="-0.00906">
        <ele>863</ele>
        <time>2016-12-11T06:42:28Z</time>
      </trkpt>
      <trkpt lat="42.84145" lon="-0.00958">
        <ele>883</ele>
        <time>2016-12-11T06:44:28Z</time>
      </trkpt>
      <trkpt lat="42.84139" lon="-0.0102">
        <ele>908</ele>
        <time>2016-12-11T06:46:28Z</time>
      </trkpt>
      <trkpt lat="42.84209" lon="-0.01025">
        <ele>912</ele>
        <time>2016-12-11T06:48:28Z</time>
      </trkpt>
      <trkpt lat="42.84251" lon="-0.01043">
        <ele>920</ele>
        <time>2016-12-11T06:50:28Z</time>
      </trkpt>
      <trkpt lat="42.84303" lon="-0.01039">
        <ele>920</ele>
        <time>2016-12-11T06:52:28Z</time>
      </trkpt>
      <trkpt lat="42.8435" lon="-0.01038">
        <ele>925</ele>
        <time>2016-12-11T06:54:28Z</time>
      </trkpt>
      <trkpt lat="42.84393" lon="-0.0104">
        <ele>929</ele>
        <time>2016-12-11T06:56:28Z</time>
      </trkpt>
      <trkpt lat="42.8444" lon="-0.01025">
        <ele>928</ele>
        <time>2016-12-11T06:58:28Z</time>
      </trkpt>
      <trkpt lat="42.84455" lon="-0.01085">
        <ele>964</ele>
        <time>2016-12-11T07:00:28Z</time>
      </trkpt>
      <trkpt lat="42.84524" lon="-0.01106">
        <ele>972</ele>
        <time>2016-12-11T07:02:28Z</time>
      </trkpt>
      <trkpt lat="42.84567" lon="-0.01073">
        <ele>949</ele>
        <time>2016-12-11T07:04:28Z</time>
      </trkpt>
      <trkpt lat="42.84614" lon="-0.01087">
        <ele>987</ele>
        <time>2016-12-11T07:06:28Z</time>
      </trkpt>
      <trkpt lat="42.84653" lon="-0.0105">
        <ele>964</ele>
        <time>2016-12-11T07:08:28Z</time>
      </trkpt>
      <trkpt lat="42.84699" lon="-0.01022">
        <ele>971</ele>
        <time>2016-12-11T07:10:28Z</time>
      </trkpt>
      <trkpt lat="42.84733" lon="-0.0102">
        <ele>973</ele>
        <time>2016-12-11T07:12:28Z</time>
      </trkpt>
      <trkpt lat="42.84773" lon="-0.01029">
        <ele>974</ele>
        <time>2016-12-11T07:14:28Z</time>
      </trkpt>
      <trkpt lat="42.84813" lon="-0.01052">
        <ele>976</ele>
        <time>2016-12-11T07:16:28Z</time>
      </trkpt>
      <trkpt lat="42.84855" lon="-0.01072">
        <ele>975</ele>
        <time>2016-12-11T07:18:28Z</time>
      </trkpt>
      <trkpt lat="42.84904" lon="-0.01085">
        <ele>1002</ele>
        <time>2016-12-11T07:20:28Z</time>
      </trkpt>
      <trkpt lat="42.84946" lon="-0.01105">
        <ele>1017</ele>
        <time>2016-12-11T07:22:28Z</time>
      </trkpt>
      <trkpt lat="42.84996" lon="-0.01098">
        <ele>1010</ele>
        <time>2016-12-11T07:24:28Z</time>
      </trkpt>
      <trkpt lat="42.85036" lon="-0.01115">
        <ele>1022</ele>
        <time>2016-12-11T07:26:28Z</time>
      </trkpt>
      <trkpt lat="42.85081" lon="-0.01126">
        <ele>1025</ele>
        <time>2016-12-11T07:28:28Z</time>
      </trkpt>
      <trkpt lat="42.85121" lon="-0.01112">
        <ele>1023</ele>
        <time>2016-12-11T07:30:28Z</time>
      </trkpt>
      <trkpt lat="42.85168" lon="-0.0112">
        <ele>1032</ele>
        <time>2016-12-11T07:32:28Z</time>
      </trkpt>
      <trkpt lat="42.85214" lon="-0.01093">
        <ele>1030</ele>
        <time>2016-12-11T07:34:28Z</time>
      </trkpt>
      <trkpt lat="42.85259" lon="-0.01101">
        <ele>1034</ele>
        <time>2016-12-11T07:36:28Z</time>
      </trkpt>
      <trkpt lat="42.85306" lon="-0.01118">
        <ele>1040</ele>
        <time>2016-12-11T07:38:28Z</time>
      </trkpt>
      <trkpt lat="42.85345" lon="-0.01152">
        <ele>1042</ele>
        <time>2016-12-11T07:40:28Z</time>
      </trkpt>
      <trkpt lat="42.85397" lon="-0.0114">
        <ele>1030</ele>
        <time>2016-12-11T07:42:28Z</time>
      </trkpt>
      <trkpt lat="42.85444" lon="-0.01145">
        <ele>1010</ele>
        <time>2016-12-11T07:44:28Z</time>
      </trkpt>
      <trkpt lat="42.85531" lon="-0.01167">
        <ele>990</ele>
        <time>2016-12-11T07:46:28Z</time>
      </trkpt>
      <trkpt lat="42.85569" lon="-0.01184">
        <ele>982</ele>
        <time>2016-12-11T07:48:28Z</time>
      </trkpt>
      <trkpt lat="42.85609" lon="-0.01198">
        <ele>969</ele>
        <time>2016-12-11T07:50:28Z</time>
      </trkpt>
      <trkpt lat="42.85654" lon="-0.01212">
        <ele>966</ele>
        <time>2016-12-11T07:52:28Z</time>
      </trkpt>
      <trkpt lat="42.85694" lon="-0.01229">
        <ele>955</ele>
        <time>2016-12-11T07:54:28Z</time>
      </trkpt>
      <trkpt lat="42.85739" lon="-0.0123">
        <ele>952</ele>
        <time>2016-12-11T07:56:28Z</time>
      </trkpt>
      <trkpt lat="42.85825" lon="-0.01216">
        <ele>940</ele>
        <time>2016-12-11T07:58:28Z</time>
      </trkpt>
      <trkpt lat="42.85863" lon="-0.01199">
        <ele>927</ele>
        <time>2016-12-11T08:00:28Z</time>
      </trkpt>
      <trkpt lat="42.85958" lon="-0.01196">
        <ele>908</ele>
        <time>2016-12-11T08:02:28Z</time>
      </trkpt>
      <trkpt lat="42.86007" lon="-0.01233">
        <ele>901</ele>
        <time>2016-12-11T08:04:28Z</time>
      </trkpt>
      <trkpt lat="42.86095" lon="-0.01293">
        <ele>888</ele>
        <time>2016-12-11T08:06:28Z</time>
      </trkpt>
      <trkpt lat="42.85991" lon="-0.01167">
        <ele>887</ele>
        <time>2016-12-11T08:08:28Z</time>
      </trkpt>
      <trkpt lat="42.86059" lon="-0.01167">
        <ele>880</ele>
        <time>2016-12-11T08:10:28Z</time>
      </trkpt>
      <trkpt lat="42.86106" lon="-0.01169">
        <ele>870</ele>
        <time>2016-12-11T08:12:28Z</time>
      </trkpt>
      <trkpt lat="42.86144" lon="-0.01189">
        <ele>866</ele>
        <time>2016-12-11T08:14:28Z</time>
      </trkpt>
      <trkpt lat="42.86176" lon="-0.01178">
        <ele>849</ele>
        <time>2016-12-11T08:16:28Z</time>
      </trkpt>
      <trkpt lat="42.86221" lon="-0.01174">
        <ele>834</ele>
        <time>2016-12-11T08:18:28Z</time>
      </trkpt>
      <trkpt lat="42.86261" lon="-0.01178">
        <ele>808</ele>
        <time>2016-12-11T08:20:28Z</time>
      </trkpt>
      <trkpt lat="42.86244" lon="-0.01076">
        <ele>776</ele>
        <time>2016-12-11T08:22:28Z</time>
      </trkpt>
      <trkpt lat="42.86227" lon="-0.01033">
        <ele>780</ele>
        <time>2016-12-11T08:24:28Z</time>
      </trkpt>
      <trkpt lat="42.86236" lon="-0.00987">
        <ele>755</ele>
        <time>2016-12-11T08:26:28Z</time>
      </trkpt>
      <trkpt lat="42.86259" lon="-0.00983">
        <ele>736</ele>
        <time>2016-12-11T08:28:28Z</time>
      </trkpt>
      <trkpt lat="42.86272" lon="-0.01">
        <ele>741</ele>
        <time>2016-12-11T08:30:28Z</time>
      </trkpt>
      <trkpt lat="42.86289" lon="-0.0104">
        <ele>743</ele>
        <time>2016-12-11T08:32:28Z</time>
      </trkpt>
      <trkpt lat="42.86306" lon="-0.01093">
        <ele>759</ele>
        <time>2016-12-11T08:34:28Z</time>
      </trkpt>
      <trkpt lat="42.86346" lon="-0.01107">
        <ele>740</ele>
        <time>2016-12-11T08:36:28Z</time>
      </trkpt>
      <trkpt lat="42.8639" lon="-0.0114">
        <ele>743</ele>
        <time>2016-12-11T08:38:28Z</time>
      </trkpt>
      <trkpt lat="42.86442" lon="-0.01148">
        <ele>731</ele>
        <time>2016-12-11T08:40:28Z</time>
      </trkpt>
      <trkpt lat="42.86488" lon="-0.0117">
        <ele>738</ele>
        <time>2016-12-11T08:42:28Z</time>
      </trkpt>
      <trkpt lat="42.86539" lon="-0.01203">
        <ele>740</ele>
        <time>2016-12-11T08:44:28Z</time>
      </trkpt>
      <trkpt lat="42.86557" lon="-0.01145">
        <ele>717</ele>
        <time>2016-12-11T08:46:28Z</time>
      </trkpt>
      <trkpt lat="42.8659" lon="-0.01137">
        <ele>714</ele>
        <time>2016-12-11T08:48:28Z</time>
      </trkpt>
      <trkpt lat="42.86629" lon="-0.0112">
        <ele>710</ele>
        <time>2016-12-11T08:50:28Z</time>
      </trkpt>
      <trkpt lat="42.86705" lon="-0.01096">
        <ele>698</ele>
        <time>2016-12-11T08:52:28Z</time>
      </trkpt>
      <trkpt lat="42.86747" lon="-0.01115">
        <ele>696</ele>
        <time>2016-12-11T08:54:28Z</time>
      </trkpt>
      <trkpt lat="42.86756" lon="-0.01063">
        <ele>684</ele>
        <time>2016-12-11T08:56:28Z</time>
      </trkpt>
      <trkpt lat="42.86767" lon="-0.0104">
        <ele>683</ele>
        <time>2016-12-11T08:58:28Z</time>
      </trkpt>
      <trkpt lat="42.86783" lon="-0.00993">
        <ele>691</ele>
        <time>2016-12-11T09:00:28Z</time>
      </trkpt>
      <trkpt lat="42.86834" lon="-0.00982">
        <ele>692</ele>
        <time>2016-12-11T09:02:28Z</time>
      </trkpt>
      <trkpt lat="42.86879" lon="-0.00984">
        <ele>695</ele>
        <time>2016-12-11T09:04:28Z</time>
      </trkpt>
      <trkpt lat="42.8692" lon="-0.0097">
        <ele>694</ele>
        <time>2016-12-11T09:06:28Z</time>
      </trkpt>
      <trkpt lat="42.86958" lon="-0.00944">
        <ele>695</ele>
        <time>2016-12-11T09:08:28Z</time>
      </trkpt>
      <trkpt lat="42.86984" lon="-0.00902">
        <ele>699</ele>
        <time>2016-12-11T09:10:28Z</time>
      </trkpt>
      <trkpt lat="42.87012" lon="-0.00864">
        <ele>693</ele>
        <time>2016-12-11T09:12:28Z</time>
      </trkpt>
      <trkpt lat="42.87033" lon="-0.00822">
        <ele>695</ele>
        <time>2016-12-11T09:14:28Z</time>
      </trkpt>
      <trkpt lat="42.87054" lon="-0.00783">
        <ele>696</ele>
        <time>2016-12-11T09:16:28Z</time>
      </trkpt>
      <trkpt lat="42.87062" lon="-0.00747">
        <ele>698</ele>
        <time>2016-12-11T09:18:28Z</time>
      </trkpt>
      <trkpt lat="42.8715" lon="-0.00621">
        <ele>704</ele>
        <time>2016-12-11T09:20:28Z</time>
      </trkpt>
      <trkpt lat="42.87215" lon="-0.00494">
        <ele>712</ele>
        <time>2016-12-11T09:22:28Z</time>
      </trkpt>
      <trkpt lat="42.87262" lon="-0.00427">
        <ele>713</ele>
        <time>2016-12-11T09:24:28Z</time>
      </trkpt>
      <trkpt lat="42.87311" lon="-0.00335">
        <ele>715</ele>
        <time>2016-12-11T09:26:28Z</time>
      </trkpt>
      <trkpt lat="42.87271" lon="-0.00258">
        <ele>720</ele>
        <time>2016-12-11T09:28:28Z</time>
      </trkpt>
      <trkpt lat="42.87226" lon="-0.0017">
        <ele>728</ele>
        <time>2016-12-11T09:30:28Z</time>
      </trkpt>
      <trkpt lat="42.87273" lon="-0.00035">
        <ele>729</ele>
        <time>2016-12-11T09:32:28Z</time>
      </trkpt>
      <trkpt lat="42.87311" lon="0.00143">
        <ele>737</ele>
        <time>2016-12-11T09:34:28Z</time>
      </trkpt>
      <trkpt lat="42.87326" lon="0.00253">
        <ele>738</ele>
        <time>2016-12-11T09:36:28Z</time>
      </trkpt>
      <trkpt lat="42.87383" lon="0.00412">
        <ele>741</ele>
        <time>2016-12-11T09:38:28Z</time>
      </trkpt>
      <trkpt lat="42.87424" lon="0.00536">
        <ele>749</ele>
        <time>2016-12-11T09:40:28Z</time>
      </trkpt>
      <trkpt lat="42.87479" lon="0.0062">
        <ele>757</ele>
        <time>2016-12-11T09:42:28Z</time>
      </trkpt>
      <trkpt lat="42.87521" lon="0.00701">
        <ele>762</ele>
        <time>2016-12-11T09:44:28Z</time>
      </trkpt>
      <trkpt lat="42.87567" lon="0.00753">
        <ele>769</ele>
        <time>2016-12-11T09:46:28Z</time>
      </trkpt>
      <trkpt lat="42.87625" lon="0.00832">
        <ele>775</ele>
        <time>2016-12-11T09:48:28Z</time>
      </trkpt>
      <trkpt lat="42.87639" lon="0.00931">
        <ele>796</ele>
        <time>2016-12-11T09:50:28Z</time>
      </trkpt>
      <trkpt lat="42.87653" lon="0.01034">
        <ele>806</ele>
        <time>2016-12-11T09:52:28Z</time>
      </trkpt>
      <trkpt lat="42.87674" lon="0.01163">
        <ele>815</ele>
        <time>2016-12-11T09:54:28Z</time>
      </trkpt>
      <trkpt lat="42.87685" lon="0.01268">
        <ele>838</ele>
        <time>2016-12-11T09:56:28Z</time>
      </trkpt>
      <trkpt lat="42.87707" lon="0.01369">
        <ele>844</ele>
        <time>2016-12-11T09:58:28Z</time>
      </trkpt>
      <trkpt lat="42.8773" lon="0.01454">
        <ele>845</ele>
        <time>2016-12-11T10:00:28Z</time>
      </trkpt>
      <trkpt lat="42.87689" lon="0.01512">
        <ele>857</ele>
        <time>2016-12-11T10:02:28Z</time>
      </trkpt>
      <trkpt lat="42.8773" lon="0.0154">
        <ele>851</ele>
        <time>2016-12-11T10:04:28Z</time>
      </trkpt>
      <trkpt lat="42.87768" lon="0.01633">
        <ele>837</ele>
        <time>2016-12-11T10:06:28Z</time>
      </trkpt>
      <trkpt lat="42.87784" lon="0.0174">
        <ele>838</ele>
        <time>2016-12-11T10:08:28Z</time>
      </trkpt>
      <trkpt lat="42.87798" lon="0.01843">
        <ele>843</ele>
        <time>2016-12-11T10:10:28Z</time>
      </trkpt>
      <trkpt lat="42.8784" lon="0.01963">
        <ele>839</ele>
        <time>2016-12-11T10:12:28Z</time>
      </trkpt>
      <trkpt lat="42.87856" lon="0.02077">
        <ele>847</ele>
        <time>2016-12-11T10:14:28Z</time>
      </trkpt>
      <trkpt lat="42.87866" lon="0.02214">
        <ele>858</ele>
        <time>2016-12-11T10:16:28Z</time>
      </trkpt>
      <trkpt lat="42.87935" lon="0.02223">
        <ele>853</ele>
        <time>2016-12-11T10:18:28Z</time>
      </trkpt>
      <trkpt lat="42.87998" lon="0.02216">
        <ele>856</ele>
        <time>2016-12-11T10:20:28Z</time>
      </trkpt>
      <trkpt lat="42.8801" lon="0.02278">
        <ele>877</ele>
        <time>2016-12-11T10:22:28Z</time>
      </trkpt>
      <trkpt lat="42.88004" lon="0.02347">
        <ele>878</ele>
        <time>2016-12-11T10:24:28Z</time>
      </trkpt>
      <trkpt lat="42.88021" lon="0.02343">
        <ele>883</ele>
        <time>2016-12-11T10:26:28Z</time>
      </trkpt>
      <trkpt lat="42.88032" lon="0.02399">
        <ele>889</ele>
        <time>2016-12-11T10:28:28Z</time>
      </trkpt>
      <trkpt lat="42.88054" lon="0.0236">
        <ele>894</ele>
        <time>2016-12-11T10:30:28Z</time>
      </trkpt>
      <trkpt lat="42.88064" lon="0.02401">
        <ele>898</ele>
        <time>2016-12-11T10:32:28Z</time>
      </trkpt>
      <trkpt lat="42.88086" lon="0.0236">
        <ele>923</ele>
        <time>2016-12-11T10:34:28Z</time>
      </trkpt>
      <trkpt lat="42.88116" lon="0.02399">
        <ele>928</ele>
        <time>2016-12-11T10:36:28Z</time>
      </trkpt>
      <trkpt lat="42.88171" lon="0.02371">
        <ele>963</ele>
        <time>2016-12-11T10:38:28Z</time>
      </trkpt>
      <trkpt lat="42.8821" lon="0.02394">
        <ele>969</ele>
        <time>2016-12-11T10:40:28Z</time>
      </trkpt>
      <trkpt lat="42.88249" lon="0.02441">
        <ele>971</ele>
        <time>2016-12-11T10:42:28Z</time>
      </trkpt>
      <trkpt lat="42.88238" lon="0.0251">
        <ele>971</ele>
        <time>2016-12-11T10:44:28Z</time>
      </trkpt>
      <trkpt lat="42.8824" lon="0.026">
        <ele>970</ele>
        <time>2016-12-11T10:46:28Z</time>
      </trkpt>
      <trkpt lat="42.88282" lon="0.02667">
        <ele>991</ele>
        <time>2016-12-11T10:48:28Z</time>
      </trkpt>
      <trkpt lat="42.88282" lon="0.02733">
        <ele>989</ele>
        <time>2016-12-11T10:50:28Z</time>
      </trkpt>
      <trkpt lat="42.88337" lon="0.02789">
        <ele>1011</ele>
        <time>2016-12-11T10:52:28Z</time>
      </trkpt>
      <trkpt lat="42.8834" lon="0.02853">
        <ele>996</ele>
        <time>2016-12-11T10:54:28Z</time>
      </trkpt>
      <trkpt lat="42.88369" lon="0.02888">
        <ele>998</ele>
        <time>2016-12-11T10:56:28Z</time>
      </trkpt>
      <trkpt lat="42.88394" lon="0.02849">
        <ele>1012</ele>
        <time>2016-12-11T10:58:28Z</time>
      </trkpt>
      <trkpt lat="42.88438" lon="0.02935">
        <ele>1026</ele>
        <time>2016-12-11T11:00:28Z</time>
      </trkpt>
      <trkpt lat="42.88476" lon="0.02991">
        <ele>1030</ele>
        <time>2016-12-11T11:02:28Z</time>
      </trkpt>
      <trkpt lat="42.88529" lon="0.03029">
        <ele>1049</ele>
        <time>2016-12-11T11:04:28Z</time>
      </trkpt>
      <trkpt lat="42.88581" lon="0.03124">
        <ele>1035</ele>
        <time>2016-12-11T11:06:28Z</time>
      </trkpt>
      <trkpt lat="42.88633" lon="0.03143">
        <ele>1082</ele>
        <time>2016-12-11T11:08:28Z</time>
      </trkpt>
      <trkpt lat="42.88611" lon="0.03184">
        <ele>1065</ele>
        <time>2016-12-11T11:10:28Z</time>
      </trkpt>
      <trkpt lat="42.88631" lon="0.03285">
        <ele>1077</ele>
        <time>2016-12-11T11:12:28Z</time>
      </trkpt>
      <trkpt lat="42.88609" lon="0.03317">
        <ele>1070</ele>
        <time>2016-12-11T11:14:28Z</time>
      </trkpt>
      <trkpt lat="42.88623" lon="0.03388">
        <ele>1074</ele>
        <time>2016-12-11T11:16:28Z</time>
      </trkpt>
      <trkpt lat="42.88678" lon="0.03371">
        <ele>1117</ele>
        <time>2016-12-11T11:18:28Z</time>
      </trkpt>
      <trkpt lat="42.887" lon="0.03435">
        <ele>1117</ele>
        <time>2016-12-11T11:20:28Z</time>
      </trkpt>
      <trkpt lat="42.88644" lon="0.03536">
        <ele>1083</ele>
        <time>2016-12-11T11:22:28Z</time>
      </trkpt>
      <trkpt lat="42.88672" lon="0.03624">
        <ele>1124</ele>
        <time>2016-12-11T11:24:28Z</time>
      </trkpt>
      <trkpt lat="42.88669" lon="0.03731">
        <ele>1130</ele>
        <time>2016-12-11T11:26:28Z</time>
      </trkpt>
      <trkpt lat="42.88689" lon="0.03804">
        <ele>1134</ele>
        <time>2016-12-11T11:28:28Z</time>
      </trkpt>
      <trkpt lat="42.88746" lon="0.03875">
        <ele>1131</ele>
        <time>2016-12-11T11:30:28Z</time>
      </trkpt>
      <trkpt lat="42.88822" lon="0.03926">
        <ele>1138</ele>
        <time>2016-12-11T11:32:28Z</time>
      </trkpt>
      <trkpt lat="42.88888" lon="0.03898">
        <ele>1173</ele>
        <time>2016-12-11T11:34:28Z</time>
      </trkpt>
      <trkpt lat="42.88947" lon="0.03956">
        <ele>1159</ele>
        <time>2016-12-11T11:36:28Z</time>
      </trkpt>
      <trkpt lat="42.89045" lon="0.03935">
        <ele>1170</ele>
        <time>2016-12-11T11:38:28Z</time>
      </trkpt>
      <trkpt lat="42.89111" lon="0.03931">
        <ele>1178</ele>
        <time>2016-12-11T11:40:28Z</time>
      </trkpt>
      <trkpt lat="42.89177" lon="0.03924">
        <ele>1187</ele>
        <time>2016-12-11T11:42:28Z</time>
      </trkpt>
      <trkpt lat="42.89131" lon="0.03999">
        <ele>1186</ele>
        <time>2016-12-11T11:44:28Z</time>
      </trkpt>
      <trkpt lat="42.89078" lon="0.04044">
        <ele>1191</ele>
        <time>2016-12-11T11:46:28Z</time>
      </trkpt>
      <trkpt lat="42.8904" lon="0.04122">
        <ele>1226</ele>
        <time>2016-12-11T11:48:28Z</time>
      </trkpt>
      <trkpt lat="42.88996" lon="0.04143">
        <ele>1218</ele>
        <time>2016-12-11T11:50:28Z</time>
      </trkpt>
      <trkpt lat="42.88965" lon="0.04207">
        <ele>1246</ele>
        <time>2016-12-11T11:52:28Z</time>
      </trkpt>
      <trkpt lat="42.89026" lon="0.04298">
        <ele>1270</ele>
        <time>2016-12-11T11:54:28Z</time>
      </trkpt>
      <trkpt lat="42.89092" lon="0.04344">
        <ele>1269</ele>
        <time>2016-12-11T11:56:28Z</time>
      </trkpt>
      <trkpt lat="42.89171" lon="0.04473">
        <ele>1251</ele>
        <time>2016-12-11T11:58:28Z</time>
      </trkpt>
      <trkpt lat="42.89256" lon="0.04557">
        <ele>1259</ele>
        <time>2016-12-11T12:00:28Z</time>
      </trkpt>
      <trkpt lat="42.89328" lon="0.04696">
        <ele>1224</ele>
        <time>2016-12-11T12:02:28Z</time>
      </trkpt>
      <trkpt lat="42.89414" lon="0.04896">
        <ele>1232</ele>
        <time>2016-12-11T12:04:28Z</time>
      </trkpt>
      <trkpt lat="42.8941" lon="0.04958">
        <ele>1216</ele>
        <time>2016-12-11T12:06:28Z</time>
      </trkpt>
      <trkpt lat="42.89477" lon="0.04977">
        <ele>1255</ele>
        <time>2016-12-11T12:08:28Z</time>
      </trkpt>
      <trkpt lat="42.89466" lon="0.05053">
        <ele>1235</ele>
        <time>2016-12-11T12:10:28Z</time>
      </trkpt>
      <trkpt lat="42.89496" lon="0.05089">
        <ele>1242</ele>
        <time>2016-12-11T12:12:28Z</time>
      </trkpt>
      <trkpt lat="42.89493" lon="0.05201">
        <ele>1207</ele>
        <time>2016-12-11T12:14:28Z</time>
      </trkpt>
      <trkpt lat="42.89556" lon="0.05246">
        <ele>1245</ele>
        <time>2016-12-11T12:16:28Z</time>
      </trkpt>
      <trkpt lat="42.89553" lon="0.0531">
        <ele>1223</ele>
        <time>2016-12-11T12:18:28Z</time>
      </trkpt>
      <trkpt lat="42.89581" lon="0.05357">
        <ele>1214</ele>
        <time>2016-12-11T12:20:28Z</time>
      </trkpt>
      <trkpt lat="42.89658" lon="0.05357">
        <ele>1248</ele>
        <time>2016-12-11T12:22:28Z</time>
      </trkpt>
      <trkpt lat="42.89622" lon="0.05473">
        <ele>1224</ele>
        <time>2016-12-11T12:24:28Z</time>
      </trkpt>
      <trkpt lat="42.8968" lon="0.05525">
        <ele>1257</ele>
        <time>2016-12-11T12:26:28Z</time>
      </trkpt>
      <trkpt lat="42.89646" lon="0.05613">
        <ele>1226</ele>
        <time>2016-12-11T12:28:28Z</time>
      </trkpt>
      <trkpt lat="42.89663" lon="0.05645">
        <ele>1231</ele>
        <time>2016-12-11T12:30:28Z</time>
      </trkpt>
      <trkpt lat="42.89653" lon="0.05681">
        <ele>1227</ele>
        <time>2016-12-11T12:32:28Z</time>
      </trkpt>
      <trkpt lat="42.89713" lon="0.05784">
        <ele>1252</ele>
        <time>2016-12-11T12:34:28Z</time>
      </trkpt>
      <trkpt lat="42.89704" lon="0.05892">
        <ele>1245</ele>
        <time>2016-12-11T12:36:28Z</time>
      </trkpt>
      <trkpt lat="42.89726" lon="0.06027">
        <ele>1237</ele>
        <time>2016-12-11T12:38:28Z</time>
      </trkpt>
      <trkpt lat="42.89765" lon="0.06196">
        <ele>1254</ele>
        <time>2016-12-11T12:40:28Z</time>
      </trkpt>
      <trkpt lat="42.89734" lon="0.06338">
        <ele>1239</ele>
        <time>2016-12-11T12:42:28Z</time>
      </trkpt>
      <trkpt lat="42.89749" lon="0.06424">
        <ele>1246</ele>
        <time>2016-12-11T12:44:28Z</time>
      </trkpt>
      <trkpt lat="42.89705" lon="0.06422">
        <ele>1238</ele>
        <time>2016-12-11T12:46:28Z</time>
      </trkpt>
      <trkpt lat="42.89656" lon="0.06292">
        <ele>1220</ele>
        <time>2016-12-11T12:48:28Z</time>
      </trkpt>
      <trkpt lat="42.89618" lon="0.063">
        <ele>1223</ele>
        <time>2016-12-11T12:50:28Z</time>
      </trkpt>
      <trkpt lat="42.89642" lon="0.06387">
        <ele>1231</ele>
        <time>2016-12-11T12:52:28Z</time>
      </trkpt>
      <trkpt lat="42.89675" lon="0.06476">
        <ele>1237</ele>
        <time>2016-12-11T12:54:28Z</time>
      </trkpt>
      <trkpt lat="42.89713" lon="0.06585">
        <ele>1248</ele>
        <time>2016-12-11T12:56:28Z</time>
      </trkpt>
      <trkpt lat="42.89661" lon="0.06625">
        <ele>1271</ele>
        <time>2016-12-11T12:58:28Z</time>
      </trkpt>
      <trkpt lat="42.89633" lon="0.06668">
        <ele>1293</ele>
        <time>2016-12-11T13:00:28Z</time>
      </trkpt>
      <trkpt lat="42.89666" lon="0.06718">
        <ele>1296</ele>
        <time>2016-12-11T13:02:28Z</time>
      </trkpt>
      <trkpt lat="42.89694" lon="0.06928">
        <ele>1326</ele>
        <time>2016-12-11T13:04:28Z</time>
      </trkpt>
      <trkpt lat="42.89589" lon="0.06795">
        <ele>1334</ele>
        <time>2016-12-11T13:06:28Z</time>
      </trkpt>
      <trkpt lat="42.89638" lon="0.07074">
        <ele>1369</ele>
        <time>2016-12-11T13:08:28Z</time>
      </trkpt>
      <trkpt lat="42.89465" lon="0.06756">
        <ele>1397</ele>
        <time>2016-12-11T13:10:28Z</time>
      </trkpt>
      <trkpt lat="42.89556" lon="0.06994">
        <ele>1398</ele>
        <time>2016-12-11T13:12:28Z</time>
      </trkpt>
      <trkpt lat="42.89616" lon="0.07454">
        <ele>1438</ele>
        <time>2016-12-11T13:14:28Z</time>
      </trkpt>
      <trkpt lat="42.89528" lon="0.0722">
        <ele>1453</ele>
        <time>2016-12-11T13:16:28Z</time>
      </trkpt>
      <trkpt lat="42.89535" lon="0.07512">
        <ele>1489</ele>
        <time>2016-12-11T13:18:28Z</time>
      </trkpt>
      <trkpt lat="42.89546" lon="0.07801">
        <ele>1496</ele>
        <time>2016-12-11T13:20:28Z</time>
      </trkpt>
      <trkpt lat="42.89463" lon="0.08024">
        <ele>1509</ele>
        <time>2016-12-11T13:22:28Z</time>
      </trkpt>
      <trkpt lat="42.89432" lon="0.08127">
        <ele>1511</ele>
        <time>2016-12-11T13:24:28Z</time>
      </trkpt>
      <trkpt lat="42.89304" lon="0.08162">
        <ele>1539</ele>
        <time>2016-12-11T13:26:28Z</time>
      </trkpt>
      <trkpt lat="42.89127" lon="0.08222">
        <ele>1577</ele>
        <time>2016-12-11T13:28:28Z</time>
      </trkpt>
      <trkpt lat="42.8902" lon="0.0829">
        <ele>1574</ele>
        <time>2016-12-11T13:30:28Z</time>
      </trkpt>
      <trkpt lat="42.88746" lon="0.08355">
        <ele>1577</ele>
        <time>2016-12-11T13:32:28Z</time>
      </trkpt>
      <trkpt lat="42.88665" lon="0.08295">
        <ele>1581</ele>
        <time>2016-12-11T13:34:28Z</time>
      </trkpt>
      <trkpt lat="42.88482" lon="0.08233">
        <ele>1590</ele>
        <time>2016-12-11T13:36:28Z</time>
      </trkpt>
      <trkpt lat="42.88245" lon="0.08218">
        <ele>1600</ele>
        <time>2016-12-11T13:38:28Z</time>
      </trkpt>
      <trkpt lat="42.88139" lon="0.08209">
        <ele>1614</ele>
        <time>2016-12-11T13:40:28Z</time>
      </trkpt>
      <trkpt lat="42.87974" lon="0.08303">
        <ele>1623</ele>
        <time>2016-12-11T13:42:28Z</time>
      </trkpt>
      <trkpt lat="42.87926" lon="0.08273">
        <ele>1632</ele>
        <time>2016-12-11T13:44:28Z</time>
      </trkpt>
      <trkpt lat="42.87814" lon="0.08368">
        <ele>1631</ele>
        <time>2016-12-11T13:46:28Z</time>
      </trkpt>
      <trkpt lat="42.87709" lon="0.08411">
        <ele>1641</ele>
        <time>2016-12-11T13:48:28Z</time>
      </trkpt>
      <trkpt lat="42.87554" lon="0.08439">
        <ele>1651</ele>
        <time>2016-12-11T13:50:28Z</time>
      </trkpt>
      <trkpt lat="42.87517" lon="0.08522">
        <ele>1648</ele>
        <time>2016-12-11T13:52:28Z</time>
      </trkpt>
      <trkpt lat="42.87479" lon="0.0855">
        <ele>1654</ele>
        <time>2016-12-11T13:54:28Z</time>
      </trkpt>
      <trkpt lat="42.87432" lon="0.08559">
        <ele>1657</ele>
        <time>2016-12-11T13:56:28Z</time>
      </trkpt>
      <trkpt lat="42.87401" lon="0.08568">
        <ele>1669</ele>
        <time>2016-12-11T13:58:28Z</time>
      </trkpt>
      <trkpt lat="42.87362" lon="0.08578">
        <ele>1677</ele>
        <time>2016-12-11T14:00:28Z</time>
      </trkpt>
      <trkpt lat="42.87317" lon="0.0862">
        <ele>1685</ele>
        <time>2016-12-11T14:02:28Z</time>
      </trkpt>
      <trkpt lat="42.87268" lon="0.08591">
        <ele>1689</ele>
        <time>2016-12-11T14:04:28Z</time>
      </trkpt>
      <trkpt lat="42.87177" lon="0.08582">
        <ele>1712</ele>
        <time>2016-12-11T14:06:28Z</time>
      </trkpt>
      <trkpt lat="42.87098" lon="0.08593">
        <ele>1732</ele>
        <time>2016-12-11T14:08:28Z</time>
      </trkpt>
      <trkpt lat="42.87043" lon="0.08612">
        <ele>1756</ele>
        <time>2016-12-11T14:10:28Z</time>
      </trkpt>
      <trkpt lat="42.86958" lon="0.08634">
        <ele>1792</ele>
        <time>2016-12-11T14:12:28Z</time>
      </trkpt>
      <trkpt lat="42.86935" lon="0.0869">
        <ele>1788</ele>
        <time>2016-12-11T14:14:28Z</time>
      </trkpt>
      <trkpt lat="42.86858" lon="0.08771">
        <ele>1813</ele>
        <time>2016-12-11T14:16:28Z</time>
      </trkpt>
      <trkpt lat="42.86804" lon="0.08769">
        <ele>1844</ele>
        <time>2016-12-11T14:18:28Z</time>
      </trkpt>
      <trkpt lat="42.86745" lon="0.0881">
        <ele>1872</ele>
        <time>2016-12-11T14:20:28Z</time>
      </trkpt>
      <trkpt lat="42.86669" lon="0.08878">
        <ele>1894</ele>
        <time>2016-12-11T14:22:28Z</time>
      </trkpt>
      <trkpt lat="42.86638" lon="0.08969">
        <ele>1930</ele>
        <time>2016-12-11T14:24:28Z</time>
      </trkpt>
      <trkpt lat="42.86616" lon="0.09026">
        <ele>1941</ele>
        <time>2016-12-11T14:26:28Z</time>
      </trkpt>
      <trkpt lat="42.86593" lon="0.09054">
        <ele>1944</ele>
        <time>2016-12-11T14:28:28Z</time>
      </trkpt>
      <trkpt lat="42.86586" lon="0.09024">
        <ele>1945</ele>
        <time>2016-12-11T14:30:28Z</time>
      </trkpt>
      <trkpt lat="42.86545" lon="0.09051">
        <ele>1971</ele>
        <time>2016-12-11T14:32:28Z</time>
      </trkpt>
      <trkpt lat="42.86532" lon="0.08977">
        <ele>1976</ele>
        <time>2016-12-11T14:34:28Z</time>
      </trkpt>
      <trkpt lat="42.86506" lon="0.08911">
        <ele>1987</ele>
        <time>2016-12-11T14:36:28Z</time>
      </trkpt>
      <trkpt lat="42.8649" lon="0.08951">
        <ele>2009</ele>
        <time>2016-12-11T14:38:28Z</time>
      </trkpt>
      <trkpt lat="42.86432" lon="0.08945">
        <ele>2021</ele>
        <time>2016-12-11T14:40:28Z</time>
      </trkpt>
      <trkpt lat="42.86386" lon="0.08971">
        <ele>2044</ele>
        <time>2016-12-11T14:42:28Z</time>
      </trkpt>
      <trkpt lat="42.86362" lon="0.09034">
        <ele>2045</ele>
        <time>2016-12-11T14:44:28Z</time>
      </trkpt>
      <trkpt lat="42.86343" lon="0.0896">
        <ele>2052</ele>
        <time>2016-12-11T14:46:28Z</time>
      </trkpt>
      <trkpt lat="42.8631" lon="0.09001">
        <ele>2070</ele>
        <time>2016-12-11T14:48:28Z</time>
      </trkpt>
      <trkpt lat="42.86268" lon="0.09031">
        <ele>2080</ele>
        <time>2016-12-11T14:50:28Z</time>
      </trkpt>
      <trkpt lat="42.86208" lon="0.09084">
        <ele>2094</ele>
        <time>2016-12-11T14:52:28Z</time>
      </trkpt>
      <trkpt lat="42.86095" lon="0.09166">
        <ele>2115</ele>
        <time>2016-12-11T14:54:28Z</time>
      </trkpt>
      <trkpt lat="42.86087" lon="0.0907">
        <ele>2134</ele>
        <time>2016-12-11T14:56:28Z</time>
      </trkpt>
      <trkpt lat="42.86027" lon="0.09016">
        <ele>2149</ele>
        <time>2016-12-11T14:58:28Z</time>
      </trkpt>
      <trkpt lat="42.85967" lon="0.09053">
        <ele>2143</ele>
        <time>2016-12-11T15:00:28Z</time>
      </trkpt>
      <trkpt lat="42.85936" lon="0.08986">
        <ele>2144</ele>
        <time>2016-12-11T15:02:28Z</time>
      </trkpt>
      <trkpt lat="42.85898" lon="0.09011">
        <ele>2141</ele>
        <time>2016-12-11T15:04:28Z</time>
      </trkpt>
      <trkpt lat="42.85876" lon="0.09073">
        <ele>2142</ele>
        <time>2016-12-11T15:06:28Z</time>
      </trkpt>
      <trkpt lat="42.85858" lon="0.09033">
        <ele>2139</ele>
        <time>2016-12-11T15:08:28Z</time>
      </trkpt>
      <trkpt lat="42.85831" lon="0.09028">
        <ele>2139</ele>
        <time>2016-12-11T15:10:28Z</time>
      </trkpt>
      <trkpt lat="42.85813" lon="0.09077">
        <ele>2147</ele>
        <time>2016-12-11T15:12:28Z</time>
      </trkpt>
      <trkpt lat="42.85797" lon="0.09048">
        <ele>2145</ele>
        <time>2016-12-11T15:14:28Z</time>
      </trkpt>
      <trkpt lat="42.85776" lon="0.09083">
        <ele>2153</ele>
        <time>2016-12-11T15:16:28Z</time>
      </trkpt>
      <trkpt lat="42.85722" lon="0.0909">
        <ele>2168</ele>
        <time>2016-12-11T15:18:28Z</time>
      </trkpt>
      <trkpt lat="42.85666" lon="0.09119">
        <ele>2169</ele>
        <time>2016-12-11T15:20:28Z</time>
      </trkpt>
      <trkpt lat="42.85606" lon="0.09239">
        <ele>2190</ele>
        <time>2016-12-11T15:22:28Z</time>
      </trkpt>
      <trkpt lat="42.85515" lon="0.09228">
        <ele>2194</ele>
        <time>2016-12-11T15:24:28Z</time>
      </trkpt>
      <trkpt lat="42.8543" lon="0.09335">
        <ele>2227</ele>
        <time>2016-12-11T15:26:28Z</time>
      </trkpt>
      <trkpt lat="42.85381" lon="0.09348">
        <ele>2239</ele>
        <time>2016-12-11T15:28:28Z</time>
      </trkpt>
      <trkpt lat="42.8535" lon="0.09338">
        <ele>2239</ele>
        <time>2016-12-11T15:30:28Z</time>
      </trkpt>
      <trkpt lat="42.85338" lon="0.09396">
        <ele>2252</ele>
        <time>2016-12-11T15:32:28Z</time>
      </trkpt>
      <trkpt lat="42.85364" lon="0.09434">
        <ele>2264</ele>
        <time>2016-12-11T15:34:28Z</time>
      </trkpt>
      <trkpt lat="42.85321" lon="0.09535">
        <ele>2294</ele>
        <time>2016-12-11T15:36:28Z</time>
      </trkpt>
      <trkpt lat="42.85323" lon="0.09587">
        <ele>2307</ele>
        <time>2016-12-11T15:38:28Z</time>
      </trkpt>
      <trkpt lat="42.85284" lon="0.09731">
        <ele>2327</ele>
        <time>2016-12-11T15:40:28Z</time>
      </trkpt>
      <trkpt lat="42.85304" lon="0.09836">
        <ele>2328</ele>
        <time>2016-12-11T15:42:28Z</time>
      </trkpt>
      <trkpt lat="42.85286" lon="0.09889">
        <ele>2329</ele>
        <time>2016-12-11T15:44:28Z</time>
      </trkpt>
      <trkpt lat="42.85282" lon="0.09962">
        <ele>2333</ele>
        <time>2016-12-11T15:46:28Z</time>
      </trkpt>
      <trkpt lat="42.85282" lon="0.10048">
        <ele>2334</ele>
        <time>2016-12-11T15:48:28Z</time>
      </trkpt>
      <trkpt lat="42.85283" lon="0.10148">
        <ele>2325</ele>
        <time>2016-12-11T15:50:28Z</time>
      </trkpt>
      <trkpt lat="42.85342" lon="0.10157">
        <ele>2313</ele>
        <time>2016-12-11T15:52:28Z</time>
      </trkpt>
      <trkpt lat="42.85425" lon="0.10153">
        <ele>2304</ele>
        <time>2016-12-11T15:54:28Z</time>
      </trkpt>
      <trkpt lat="42.85431" lon="0.1022">
        <ele>2308</ele>
        <time>2016-12-11T15:56:28Z</time>
      </trkpt>
      <trkpt lat="42.85412" lon="0.10305">
        <ele>2312</ele>
        <time>2016-12-11T15:58:28Z</time>
      </trkpt>
      <trkpt lat="42.85412" lon="0.10501">
        <ele>2333</ele>
        <time>2016-12-11T16:00:28Z</time>
      </trkpt>
      <trkpt lat="42.85397" lon="0.10589">
        <ele>2361</ele>
        <time>2016-12-11T16:02:28Z</time>
      </trkpt>
      <trkpt lat="42.85392" lon="0.10683">
        <ele>2392</ele>
        <time>2016-12-11T16:04:28Z</time>
      </trkpt>
      <trkpt lat="42.85354" lon="0.10741">
        <ele>2402</ele>
        <time>2016-12-11T16:06:28Z</time>
      </trkpt>
      <trkpt lat="42.85331" lon="0.1079">
        <ele>2418</ele>
        <time>2016-12-11T16:08:28Z</time>
      </trkpt>
      <trkpt lat="42.85298" lon="0.10859">
        <ele>2435</ele>
        <time>2016-12-11T16:10:28Z</time>
      </trkpt>
      <trkpt lat="42.85269" lon="0.10945">
        <ele>2452</ele>
        <time>2016-12-11T16:12:28Z</time>
      </trkpt>
      <trkpt lat="42.85253" lon="0.11046">
        <ele>2468</ele>
        <time>2016-12-11T16:14:28Z</time>
      </trkpt>
      <trkpt lat="42.85252" lon="0.11142">
        <ele>2496</ele>
        <time>2016-12-11T16:16:28Z</time>
      </trkpt>
      <trkpt lat="42.85271" lon="0.11213">
        <ele>2517</ele>
        <time>2016-12-11T16:18:28Z</time>
      </trkpt>
      <trkpt lat="42.85258" lon="0.11292">
        <ele>2524</ele>
        <time>2016-12-11T16:20:28Z</time>
      </trkpt>
      <trkpt lat="42.8524" lon="0.11338">
        <ele>2524</ele>
        <time>2016-12-11T16:22:28Z</time>
      </trkpt>
      <trkpt lat="42.85242" lon="0.11375">
        <ele>2516</ele>
        <time>2016-12-11T16:24:28Z</time>
      </trkpt>
      <trkpt lat="42.85287" lon="0.1143">
        <ele>2487</ele>
        <time>2016-12-11T16:26:28Z</time>
      </trkpt>
      <trkpt lat="42.85315" lon="0.11619">
        <ele>2444</ele>
        <time>2016-12-11T16:28:28Z</time>
      </trkpt>
      <trkpt lat="42.85291" lon="0.11717">
        <ele>2413</ele>
        <time>2016-12-11T16:30:28Z</time>
      </trkpt>
      <trkpt lat="42.85231" lon="0.11827">
        <ele>2405</ele>
        <time>2016-12-11T16:32:28Z</time>
      </trkpt>
      <trkpt lat="42.8527" lon="0.11911">
        <ele>2374</ele>
        <time>2016-12-11T16:34:28Z</time>
      </trkpt>
      <trkpt lat="42.85391" lon="0.11971">
        <ele>2349</ele>
        <time>2016-12-11T16:36:28Z</time>
      </trkpt>
      <trkpt lat="42.85388" lon="0.11997">
        <ele>2349</ele>
        <time>2016-12-11T16:38:28Z</time>
      </trkpt>
      <trkpt lat="42.85376" lon="0.12012">
        <ele>2356</ele>
        <time>2016-12-11T16:40:28Z</time>
      </trkpt>
      <trkpt lat="42.85336" lon="0.12064">
        <ele>2363</ele>
        <time>2016-12-11T16:42:28Z</time>
      </trkpt>
      <trkpt lat="42.85437" lon="0.12137">
        <ele>2373</ele>
        <time>2016-12-11T16:44:28Z</time>
      </trkpt>
      <trkpt lat="42.85451" lon="0.12168">
        <ele>2397</ele>
        <time>2016-12-11T16:46:28Z</time>
      </trkpt>
      <trkpt lat="42.85464" lon="0.12195">
        <ele>2402</ele>
        <time>2016-12-11T16:48:28Z</time>
      </trkpt>
      <trkpt lat="42.85495" lon="0.12207">
        <ele>2404</ele>
        <time>2016-12-11T16:50:28Z</time>
      </trkpt>
      <trkpt lat="42.8546" lon="0.12219">
        <ele>2408</ele>
        <time>2016-12-11T16:52:28Z</time>
      </trkpt>
      <trkpt lat="42.85473" lon="0.12227">
        <ele>2410</ele>
        <time>2016-12-11T16:54:28Z</time>
      </trkpt>
      <trkpt lat="42.85439" lon="0.12249">
        <ele>2417</ele>
        <time>2016-12-11T16:56:28Z</time>
      </trkpt>
      <trkpt lat="42.85407" lon="0.12268">
        <ele>2446</ele>
        <time>2016-12-11T16:58:28Z</time>
      </trkpt>
      <trkpt lat="42.85363" lon="0.12307">
        <ele>2462</ele>
        <time>2016-12-11T17:00:28Z</time>
      </trkpt>
      <trkpt lat="42.85309" lon="0.12333">
        <ele>2474</ele>
        <time>2016-12-11T17:02:28Z</time>
      </trkpt>
      <trkpt lat="42.85258" lon="0.12319">
        <ele>2477</ele>
        <time>2016-12-11T17:04:28Z</time>
      </trkpt>
      <trkpt lat="42.85214" lon="0.12299">
        <ele>2477</ele>
        <time>2016-12-11T17:06:28Z</time>
      </trkpt>
      <trkpt lat="42.85189" lon="0.12352">
        <ele>2488</ele>
        <time>2016-12-11T17:08:28Z</time>
      </trkpt>
      <trkpt lat="42.85154" lon="0.12352">
        <ele>2476</ele>
        <time>2016-12-11T17:10:28Z</time>
      </trkpt>
      <trkpt lat="42.85196" lon="0.12522">
        <ele>2465</ele>
        <time>2016-12-11T17:12:28Z</time>
      </trkpt>
      <trkpt lat="42.85176" lon="0.1266">
        <ele>2440</ele>
        <time>2016-12-11T17:14:28Z</time>
      </trkpt>
      <trkpt lat="42.85149" lon="0.12891">
        <ele>2392</ele>
        <time>2016-12-11T17:16:28Z</time>
      </trkpt>
      <trkpt lat="42.85146" lon="0.13019">
        <ele>2372</ele>
        <time>2016-12-11T17:18:28Z</time>
      </trkpt>
      <trkpt lat="42.85089" lon="0.1314">
        <ele>2353</ele>
        <time>2016-12-11T17:20:28Z</time>
      </trkpt>
      <trkpt lat="42.84996" lon="0.13206">
        <ele>2313</ele>
        <time>2016-12-11T17:22:28Z</time>
      </trkpt>
      <trkpt lat="42.84954" lon="0.13384">
        <ele>2307</ele>
        <time>2016-12-11T17:24:28Z</time>
      </trkpt>
      <trkpt lat="42.84982" lon="0.1347">
        <ele>2313</ele>
        <time>2016-12-11T17:26:28Z</time>
      </trkpt>
      <trkpt lat="42.84941" lon="0.13586">
        <ele>2310</ele>
        <time>2016-12-11T17:28:28Z</time>
      </trkpt>
      <trkpt lat="42.84897" lon="0.13697">
        <ele>2292</ele>
        <time>2016-12-11T17:30:28Z</time>
      </trkpt>
      <trkpt lat="42.84834" lon="0.13873">
        <ele>2279</ele>
        <time>2016-12-11T17:32:28Z</time>
      </trkpt>
      <trkpt lat="42.84784" lon="0.13968">
        <ele>2253</ele>
        <time>2016-12-11T17:34:28Z</time>
      </trkpt>
      <trkpt lat="42.84737" lon="0.14105">
        <ele>2232</ele>
        <time>2016-12-11T17:36:28Z</time>
      </trkpt>
      <trkpt lat="42.84671" lon="0.14101">
        <ele>2223</ele>
        <time>2016-12-11T17:38:28Z</time>
      </trkpt>
      <trkpt lat="42.84598" lon="0.142">
        <ele>2206</ele>
        <time>2016-12-11T17:40:28Z</time>
      </trkpt>
      <trkpt lat="42.84503" lon="0.14273">
        <ele>2195</ele>
        <time>2016-12-11T17:42:28Z</time>
      </trkpt>
      <trkpt lat="42.84438" lon="0.14365">
        <ele>2193</ele>
        <time>2016-12-11T17:44:28Z</time>
      </trkpt>
      <trkpt lat="42.84325" lon="0.14406">
        <ele>2183</ele>
        <time>2016-12-11T17:46:28Z</time>
      </trkpt>
      <trkpt lat="42.84199" lon="0.14474">
        <ele>2178</ele>
        <time>2016-12-11T17:48:28Z</time>
      </trkpt>
      <trkpt lat="42.84105" lon="0.14396">
        <ele>2164</ele>
        <time>2016-12-11T17:50:28Z</time>
      </trkpt>
      <trkpt lat="42.84043" lon="0.14358">
        <ele>2161</ele>
        <time>2016-12-11T17:52:28Z</time>
      </trkpt>
      <trkpt lat="42.83975" lon="0.14503">
        <ele>2176</ele>
        <time>2016-12-11T17:54:28Z</time>
      </trkpt>
      <trkpt lat="42.8394" lon="0.14576">
        <ele>2180</ele>
        <time>2016-12-11T17:56:28Z</time>
      </trkpt>
      <trkpt lat="42.83893" lon="0.14631">
        <ele>2181</ele>
        <time>2016-12-11T17:58:28Z</time>
      </trkpt>
      <trkpt lat="42.83858" lon="0.14721">
        <ele>2193</ele>
        <time>2016-12-11T18:00:28Z</time>
      </trkpt>
      <trkpt lat="42.83849" lon="0.14897">
        <ele>2207</ele>
        <time>2016-12-11T18:02:28Z</time>
      </trkpt>
      <trkpt lat="42.83912" lon="0.15046">
        <ele>2206</ele>
        <time>2016-12-11T18:04:28Z</time>
      </trkpt>
      <trkpt lat="42.83894" lon="0.15175">
        <ele>2200</ele>
        <time>2016-12-11T18:06:28Z</time>
      </trkpt>
      <trkpt lat="42.8387" lon="0.15299">
        <ele>2206</ele>
        <time>2016-12-11T18:08:28Z</time>
      </trkpt>
      <trkpt lat="42.83876" lon="0.15439">
        <ele>2204</ele>
        <time>2016-12-11T18:10:28Z</time>
      </trkpt>
      <trkpt lat="42.83855" lon="0.15566">
        <ele>2202</ele>
        <time>2016-12-11T18:12:28Z</time>
      </trkpt>
      <trkpt lat="42.83818" lon="0.15633">
        <ele>2206</ele>
        <time>2016-12-11T18:14:28Z</time>
      </trkpt>
      <trkpt lat="42.83762" lon="0.15669">
        <ele>2202</ele>
        <time>2016-12-11T18:16:28Z</time>
      </trkpt>
      <trkpt lat="42.83659" lon="0.15697">
        <ele>2196</ele>
        <time>2016-12-11T18:18:28Z</time>
      </trkpt>
      <trkpt lat="42.83614" lon="0.15765">
        <ele>2190</ele>
        <time>2016-12-11T18:20:28Z</time>
      </trkpt>
      <trkpt lat="42.83577" lon="0.15833">
        <ele>2182</ele>
        <time>2016-12-11T18:22:28Z</time>
      </trkpt>
      <trkpt lat="42.83543" lon="0.15954">
        <ele>2179</ele>
        <time>2016-12-11T18:24:28Z</time>
      </trkpt>
      <trkpt lat="42.83507" lon="0.16016">
        <ele>2175</ele>
        <time>2016-12-11T18:26:28Z</time>
      </trkpt>
      <trkpt lat="42.83476" lon="0.16079">
        <ele>2161</ele>
        <time>2016-12-11T18:28:28Z</time>
      </trkpt>
      <trkpt lat="42.83492" lon="0.15977">
        <ele>2155</ele>
        <time>2016-12-11T18:30:28Z</time>
      </trkpt>
      <trkpt lat="42.83503" lon="0.15881">
        <ele>2167</ele>
        <time>2016-12-11T18:32:28Z</time>
      </trkpt>
      <trkpt lat="42.83523" lon="0.15795">
        <ele>2158</ele>
        <time>2016-12-11T18:34:28Z</time>
      </trkpt>
      <trkpt lat="42.83538" lon="0.15686">
        <ele>2154</ele>
        <time>2016-12-11T18:36:28Z</time>
      </trkpt>
      <trkpt lat="42.83532" lon="0.15608">
        <ele>2155</ele>
        <time>2016-12-11T18:38:28Z</time>
      </trkpt>
      <trkpt lat="42.83505" lon="0.15526">
        <ele>2154</ele>
        <time>2016-12-11T18:40:28Z</time>
      </trkpt>
      <trkpt lat="42.83515" lon="0.15633">
        <ele>2150</ele>
        <time>2016-12-11T18:42:28Z</time>
      </trkpt>
      <trkpt lat="42.8347" lon="0.15782">
        <ele>2124</ele>
        <time>2016-12-11T18:44:28Z</time>
      </trkpt>
      <trkpt lat="42.83368" lon="0.15966">
        <ele>2101</ele>
        <time>2016-12-11T18:46:28Z</time>
      </trkpt>
      <trkpt lat="42.83374" lon="0.15846">
        <ele>2093</ele>
        <time>2016-12-11T18:48:28Z</time>
      </trkpt>
      <trkpt lat="42.834" lon="0.15747">
        <ele>2096</ele>
        <time>2016-12-11T18:50:28Z</time>
      </trkpt>
      <trkpt lat="42.83349" lon="0.15822">
        <ele>2084</ele>
        <time>2016-12-11T18:52:28Z</time>
      </trkpt>
      <trkpt lat="42.83303" lon="0.15887">
        <ele>2069</ele>
        <time>2016-12-11T18:54:28Z</time>
      </trkpt>
      <trkpt lat="42.83311" lon="0.15983">
        <ele>2072</ele>
        <time>2016-12-11T18:56:28Z</time>
      </trkpt>
      <trkpt lat="42.83255" lon="0.16136">
        <ele>2075</ele>
        <time>2016-12-11T18:58:28Z</time>
      </trkpt>
      <trkpt lat="42.83271" lon="0.16011">
        <ele>2063</ele>
        <time>2016-12-11T19:00:28Z</time>
      </trkpt>
      <trkpt lat="42.83214" lon="0.15897">
        <ele>2051</ele>
        <time>2016-12-11T19:02:28Z</time>
      </trkpt>
      <trkpt lat="42.83223" lon="0.16011">
        <ele>2041</ele>
        <time>2016-12-11T19:04:28Z</time>
      </trkpt>
      <trkpt lat="42.83159" lon="0.16192">
        <ele>2014</ele>
        <time>2016-12-11T19:06:28Z</time>
      </trkpt>
      <trkpt lat="42.83107" lon="0.16382">
        <ele>2013</ele>
        <time>2016-12-11T19:08:28Z</time>
      </trkpt>
      <trkpt lat="42.83057" lon="0.16558">
        <ele>1971</ele>
        <time>2016-12-11T19:10:28Z</time>
      </trkpt>
      <trkpt lat="42.83069" lon="0.16773">
        <ele>1953</ele>
        <time>2016-12-11T19:12:28Z</time>
      </trkpt>
      <trkpt lat="42.83057" lon="0.16952">
        <ele>1963</ele>
        <time>2016-12-11T19:14:28Z</time>
      </trkpt>
      <trkpt lat="42.83014" lon="0.17125">
        <ele>1968</ele>
        <time>2016-12-11T19:16:28Z</time>
      </trkpt>
      <trkpt lat="42.82909" lon="0.17223">
        <ele>1929</ele>
        <time>2016-12-11T19:18:28Z</time>
      </trkpt>
      <trkpt lat="42.8281" lon="0.17239">
        <ele>1922</ele>
        <time>2016-12-11T19:20:28Z</time>
      </trkpt>
      <trkpt lat="42.82703" lon="0.1708">
        <ele>1899</ele>
        <time>2016-12-11T19:22:28Z</time>
      </trkpt>
      <trkpt lat="42.82801" lon="0.17154">
        <ele>1902</ele>
        <time>2016-12-11T19:24:28Z</time>
      </trkpt>
      <trkpt lat="42.82931" lon="0.16994">
        <ele>1891</ele>
        <time>2016-12-11T19:26:28Z</time>
      </trkpt>
      <trkpt lat="42.8281" lon="0.17061">
        <ele>1882</ele>
        <time>2016-12-11T19:28:28Z</time>
      </trkpt>
      <trkpt lat="42.82731" lon="0.16943">
        <ele>1869</ele>
        <time>2016-12-11T19:30:28Z</time>
      </trkpt>
      <trkpt lat="42.82707" lon="0.17003">
        <ele>1893</ele>
        <time>2016-12-11T19:32:28Z</time>
      </trkpt>
      <trkpt lat="42.82677" lon="0.17063">
        <ele>1902</ele>
        <time>2016-12-11T19:34:28Z</time>
      </trkpt>
      <trkpt lat="42.82661" lon="0.17136">
        <ele>1913</ele>
        <time>2016-12-11T19:36:28Z</time>
      </trkpt>
      <trkpt lat="42.8269" lon="0.17183">
        <ele>1933</ele>
        <time>2016-12-11T19:38:28Z</time>
      </trkpt>
      <trkpt lat="42.82668" lon="0.172">
        <ele>1936</ele>
        <time>2016-12-11T19:40:28Z</time>
      </trkpt>
      <trkpt lat="42.8269" lon="0.17228">
        <ele>1941</ele>
        <time>2016-12-11T19:42:28Z</time>
      </trkpt>
      <trkpt lat="42.82661" lon="0.17273">
        <ele>1959</ele>
        <time>2016-12-11T19:44:28Z</time>
      </trkpt>
      <trkpt lat="42.82671" lon="0.17376">
        <ele>1986</ele>
        <time>2016-12-11T19:46:28Z</time>
      </trkpt>
      <trkpt lat="42.8263" lon="0.17447">
        <ele>2026</ele>
        <time>2016-12-11T19:48:28Z</time>
      </trkpt>
      <trkpt lat="42.82608" lon="0.17558">
        <ele>2057</ele>
        <time>2016-12-11T19:50:28Z</time>
      </trkpt>
      <trkpt lat="42.82622" lon="0.17659">
        <ele>2079</ele>
        <time>2016-12-11T19:52:28Z</time>
      </trkpt>
      <trkpt lat="42.82683" lon="0.17694">
        <ele>2111</ele>
        <time>2016-12-11T19:54:28Z</time>
      </trkpt>
      <trkpt lat="42.82652" lon="0.17745">
        <ele>2110</ele>
        <time>2016-12-11T19:56:28Z</time>
      </trkpt>
      <trkpt lat="42.82685" lon="0.17752">
        <ele>2128</ele>
        <time>2016-12-11T19:58:28Z</time>
      </trkpt>
      <trkpt lat="42.82685" lon="0.17779">
        <ele>2131</ele>
        <time>2016-12-11T20:00:28Z</time>
      </trkpt>
      <trkpt lat="42.82705" lon="0.17807">
        <ele>2133</ele>
        <time>2016-12-11T20:02:28Z</time>
      </trkpt>
      <trkpt lat="42.82691" lon="0.1788">
        <ele>2149</ele>
        <time>2016-12-11T20:04:28Z</time>
      </trkpt>
      <trkpt lat="42.8271" lon="0.17947">
        <ele>2166</ele>
        <time>2016-12-11T20:06:28Z</time>
      </trkpt>
      <trkpt lat="42.82698" lon="0.17994">
        <ele>2170</ele>
        <time>2016-12-11T20:08:28Z</time>
      </trkpt>
      <trkpt lat="42.82707" lon="0.18076">
        <ele>2199</ele>
        <time>2016-12-11T20:10:28Z</time>
      </trkpt>
      <trkpt lat="42.82723" lon="0.18146">
        <ele>2220</ele>
        <time>2016-12-11T20:12:28Z</time>
      </trkpt>
      <trkpt lat="42.82743" lon="0.18181">
        <ele>2229</ele>
        <time>2016-12-11T20:14:28Z</time>
      </trkpt>
      <trkpt lat="42.82704" lon="0.18267">
        <ele>2239</ele>
        <time>2016-12-11T20:16:28Z</time>
      </trkpt>
      <trkpt lat="42.82682" lon="0.18361">
        <ele>2242</ele>
        <time>2016-12-11T20:18:28Z</time>
      </trkpt>
      <trkpt lat="42.82716" lon="0.18453">
        <ele>2238</ele>
        <time>2016-12-11T20:20:28Z</time>
      </trkpt>
      <trkpt lat="42.82764" lon="0.18524">
        <ele>2218</ele>
        <time>2016-12-11T20:22:28Z</time>
      </trkpt>
      <trkpt lat="42.82787" lon="0.18616">
        <ele>2200</ele>
        <time>2016-12-11T20:24:28Z</time>
      </trkpt>
      <trkpt lat="42.82819" lon="0.18713">
        <ele>2182</ele>
        <time>2016-12-11T20:26:28Z</time>
      </trkpt>
      <trkpt lat="42.82811" lon="0.18816">
        <ele>2169</ele>
        <time>2016-12-11T20:28:28Z</time>
      </trkpt>
      <trkpt lat="42.82798" lon="0.18891">
        <ele>2161</ele>
        <time>2016-12-11T20:30:28Z</time>
      </trkpt>
      <trkpt lat="42.82797" lon="0.18994">
        <ele>2144</ele>
        <time>2016-12-11T20:32:28Z</time>
      </trkpt>
      <trkpt lat="42.82779" lon="0.19084">
        <ele>2111</ele>
        <time>2016-12-11T20:34:28Z</time>
      </trkpt>
      <trkpt lat="42.82779" lon="0.19187">
        <ele>2086</ele>
        <time>2016-12-11T20:36:28Z</time>
      </trkpt>
      <trkpt lat="42.82783" lon="0.19281">
        <ele>2071</ele>
        <time>2016-12-11T20:38:28Z</time>
      </trkpt>
      <trkpt lat="42.82803" lon="0.19361">
        <ele>2059</ele>
        <time>2016-12-11T20:40:28Z</time>
      </trkpt>
      <trkpt lat="42.82817" lon="0.19423">
        <ele>2044</ele>
        <time>2016-12-11T20:42:28Z</time>
      </trkpt>
      <trkpt lat="42.82855" lon="0.19397">
        <ele>2028</ele>
        <time>2016-12-11T20:44:28Z</time>
      </trkpt>
      <trkpt lat="42.82899" lon="0.19427">
        <ele>2000</ele>
        <time>2016-12-11T20:46:28Z</time>
      </trkpt>
      <trkpt lat="42.82943" lon="0.19417">
        <ele>1974</ele>
        <time>2016-12-11T20:48:28Z</time>
      </trkpt>
      <trkpt lat="42.82982" lon="0.19402">
        <ele>1980</ele>
        <time>2016-12-11T20:50:28Z</time>
      </trkpt>
      <trkpt lat="42.83023" lon="0.19445">
        <ele>1950</ele>
        <time>2016-12-11T20:52:28Z</time>
      </trkpt>
      <trkpt lat="42.83055" lon="0.19492">
        <ele>1939</ele>
        <time>2016-12-11T20:54:28Z</time>
      </trkpt>
      <trkpt lat="42.83089" lon="0.19511">
        <ele>1918</ele>
        <time>2016-12-11T20:56:28Z</time>
      </trkpt>
      <trkpt lat="42.8311" lon="0.1956">
        <ele>1905</ele>
        <time>2016-12-11T20:58:28Z</time>
      </trkpt>
      <trkpt lat="42.83159" lon="0.19578">
        <ele>1896</ele>
        <time>2016-12-11T21:00:28Z</time>
      </trkpt>
      <trkpt lat="42.83168" lon="0.19633">
        <ele>1867</ele>
        <time>2016-12-11T21:02:28Z</time>
      </trkpt>
      <trkpt lat="42.83146" lon="0.19711">
        <ele>1844</ele>
        <time>2016-12-11T21:04:28Z</time>
      </trkpt>
      <trkpt lat="42.83108" lon="0.19771">
        <ele>1826</ele>
        <time>2016-12-11T21:06:28Z</time>
      </trkpt>
      <trkpt lat="42.83074" lon="0.19788">
        <ele>1832</ele>
        <time>2016-12-11T21:08:28Z</time>
      </trkpt>
      <trkpt lat="42.83055" lon="0.19758">
        <ele>1837</ele>
        <time>2016-12-11T21:10:28Z</time>
      </trkpt>
      <trkpt lat="42.83008" lon="0.19792">
        <ele>1835</ele>
        <time>2016-12-11T21:12:28Z</time>
      </trkpt>
      <trkpt lat="42.82965" lon="0.19846">
        <ele>1832</ele>
        <time>2016-12-11T21:14:28Z</time>
      </trkpt>
      <trkpt lat="42.82915" lon="0.19908">
        <ele>1848</ele>
        <time>2016-12-11T21:16:28Z</time>
      </trkpt>
      <trkpt lat="42.82864" lon="0.19972">
        <ele>1843</ele>
        <time>2016-12-11T21:18:28Z</time>
      </trkpt>
      <trkpt lat="42.82825" lon="0.20045">
        <ele>1843</ele>
        <time>2016-12-11T21:20:28Z</time>
      </trkpt>
      <trkpt lat="42.82797" lon="0.20093">
        <ele>1825</ele>
        <time>2016-12-11T21:22:28Z</time>
      </trkpt>
      <trkpt lat="42.82753" lon="0.20166">
        <ele>1824</ele>
        <time>2016-12-11T21:24:28Z</time>
      </trkpt>
      <trkpt lat="42.82677" lon="0.2023">
        <ele>1821</ele>
        <time>2016-12-11T21:26:28Z</time>
      </trkpt>
      <trkpt lat="42.82609" lon="0.20281">
        <ele>1824</ele>
        <time>2016-12-11T21:28:28Z</time>
      </trkpt>
      <trkpt lat="42.82562" lon="0.20333">
        <ele>1835</ele>
        <time>2016-12-11T21:30:28Z</time>
      </trkpt>
      <trkpt lat="42.82506" lon="0.20397">
        <ele>1819</ele>
        <time>2016-12-11T21:32:28Z</time>
      </trkpt>
      <trkpt lat="42.82507" lon="0.20509">
        <ele>1794</ele>
        <time>2016-12-11T21:34:28Z</time>
      </trkpt>
      <trkpt lat="42.82515" lon="0.20593">
        <ele>1804</ele>
        <time>2016-12-11T21:36:28Z</time>
      </trkpt>
      <trkpt lat="42.82517" lon="0.2068">
        <ele>1831</ele>
        <time>2016-12-11T21:38:28Z</time>
      </trkpt>
      <trkpt lat="42.82477" lon="0.20717">
        <ele>1823</ele>
        <time>2016-12-11T21:40:28Z</time>
      </trkpt>
      <trkpt lat="42.82484" lon="0.20758">
        <ele>1844</ele>
        <time>2016-12-11T21:42:28Z</time>
      </trkpt>
      <trkpt lat="42.82548" lon="0.20711">
        <ele>1845</ele>
        <time>2016-12-11T21:44:28Z</time>
      </trkpt>
      <trkpt lat="42.82611" lon="0.2065">
        <ele>1840</ele>
        <time>2016-12-11T21:46:28Z</time>
      </trkpt>
      <trkpt lat="42.82664" lon="0.20605">
        <ele>1836</ele>
        <time>2016-12-11T21:48:28Z</time>
      </trkpt>
      <trkpt lat="42.82726" lon="0.20554">
        <ele>1830</ele>
        <time>2016-12-11T21:50:28Z</time>
      </trkpt>
      <trkpt lat="42.82764" lon="0.20547">
        <ele>1834</ele>
        <time>2016-12-11T21:52:28Z</time>
      </trkpt>
      <trkpt lat="42.82831" lon="0.20577">
        <ele>1843</ele>
        <time>2016-12-11T21:54:28Z</time>
      </trkpt>
      <trkpt lat="42.82853" lon="0.20608">
        <ele>1857</ele>
        <time>2016-12-11T21:56:28Z</time>
      </trkpt>
      <trkpt lat="42.82847" lon="0.20642">
        <ele>1864</ele>
        <time>2016-12-11T21:58:28Z</time>
      </trkpt>
      <trkpt lat="42.82804" lon="0.20633">
        <ele>1866</ele>
        <time>2016-12-11T22:00:28Z</time>
      </trkpt>
      <trkpt lat="42.82793" lon="0.20677">
        <ele>1888</ele>
        <time>2016-12-11T22:02:28Z</time>
      </trkpt>
      <trkpt lat="42.82768" lon="0.20694">
        <ele>1892</ele>
        <time>2016-12-11T22:04:28Z</time>
      </trkpt>
      <trkpt lat="42.82737" lon="0.20724">
        <ele>1900</ele>
        <time>2016-12-11T22:06:28Z</time>
      </trkpt>
      <trkpt lat="42.8271" lon="0.20774">
        <ele>1920</ele>
        <time>2016-12-11T22:08:28Z</time>
      </trkpt>
      <trkpt lat="42.82698" lon="0.2083">
        <ele>1927</ele>
        <time>2016-12-11T22:10:28Z</time>
      </trkpt>
      <trkpt lat="42.82705" lon="0.20872">
        <ele>1947</ele>
        <time>2016-12-11T22:12:28Z</time>
      </trkpt>
      <trkpt lat="42.8269" lon="0.20923">
        <ele>1966</ele>
        <time>2016-12-11T22:14:28Z</time>
      </trkpt>
      <trkpt lat="42.82672" lon="0.20962">
        <ele>1972</ele>
        <time>2016-12-11T22:16:28Z</time>
      </trkpt>
      <trkpt lat="42.8266" lon="0.21011">
        <ele>1983</ele>
        <time>2016-12-11T22:18:28Z</time>
      </trkpt>
      <trkpt lat="42.82649" lon="0.21047">
        <ele>1984</ele>
        <time>2016-12-11T22:20:28Z</time>
      </trkpt>
      <trkpt lat="42.82702" lon="0.21101">
        <ele>2000</ele>
        <time>2016-12-11T22:22:28Z</time>
      </trkpt>
      <trkpt lat="42.8274" lon="0.21168">
        <ele>2011</ele>
        <time>2016-12-11T22:24:28Z</time>
      </trkpt>
      <trkpt lat="42.82775" lon="0.21264">
        <ele>2019</ele>
        <time>2016-12-11T22:26:28Z</time>
      </trkpt>
      <trkpt lat="42.82781" lon="0.21369">
        <ele>2025</ele>
        <time>2016-12-11T22:28:28Z</time>
      </trkpt>
      <trkpt lat="42.82772" lon="0.21466">
        <ele>2026</ele>
        <time>2016-12-11T22:30:28Z</time>
      </trkpt>
      <trkpt lat="42.82775" lon="0.21586">
        <ele>2027</ele>
        <time>2016-12-11T22:32:28Z</time>
      </trkpt>
      <trkpt lat="42.82768" lon="0.21717">
        <ele>2029</ele>
        <time>2016-12-11T22:34:28Z</time>
      </trkpt>
      <trkpt lat="42.82765" lon="0.21809">
        <ele>2031</ele>
        <time>2016-12-11T22:36:28Z</time>
      </trkpt>
      <trkpt lat="42.82778" lon="0.21916">
        <ele>2034</ele>
        <time>2016-12-11T22:38:28Z</time>
      </trkpt>
      <trkpt lat="42.82792" lon="0.21992">
        <ele>2035</ele>
        <time>2016-12-11T22:40:28Z</time>
      </trkpt>
      <trkpt lat="42.82841" lon="0.22067">
        <ele>2042</ele>
        <time>2016-12-11T22:42:28Z</time>
      </trkpt>
      <trkpt lat="42.82846" lon="0.22101">
        <ele>2043</ele>
        <time>2016-12-11T22:44:28Z</time>
      </trkpt>
      <trkpt lat="42.82841" lon="0.2219">
        <ele>2047</ele>
        <time>2016-12-11T22:46:28Z</time>
      </trkpt>
      <trkpt lat="42.82852" lon="0.22272">
        <ele>2051</ele>
        <time>2016-12-11T22:48:28Z</time>
      </trkpt>
      <trkpt lat="42.82842" lon="0.22434">
        <ele>2063</ele>
        <time>2016-12-11T22:50:28Z</time>
      </trkpt>
      <trkpt lat="42.82844" lon="0.22538">
        <ele>2079</ele>
        <time>2016-12-11T22:52:28Z</time>
      </trkpt>
      <trkpt lat="42.82877" lon="0.22686">
        <ele>2100</ele>
        <time>2016-12-11T22:54:28Z</time>
      </trkpt>
      <trkpt lat="42.82898" lon="0.2279">
        <ele>2111</ele>
        <time>2016-12-11T22:56:28Z</time>
      </trkpt>
      <trkpt lat="42.82937" lon="0.22904">
        <ele>2129</ele>
        <time>2016-12-11T22:58:28Z</time>
      </trkpt>
      <trkpt lat="42.82996" lon="0.23054">
        <ele>2149</ele>
        <time>2016-12-11T23:00:28Z</time>
      </trkpt>
      <trkpt lat="42.83054" lon="0.23153">
        <ele>2167</ele>
        <time>2016-12-11T23:02:28Z</time>
      </trkpt>
      <trkpt lat="42.83102" lon="0.23306">
        <ele>2190</ele>
        <time>2016-12-11T23:04:28Z</time>
      </trkpt>
      <trkpt lat="42.83185" lon="0.23429">
        <ele>2205</ele>
        <time>2016-12-11T23:06:28Z</time>
      </trkpt>
      <trkpt lat="42.83267" lon="0.23572">
        <ele>2218</ele>
        <time>2016-12-11T23:08:28Z</time>
      </trkpt>
      <trkpt lat="42.83329" lon="0.23664">
        <ele>2210</ele>
        <time>2016-12-11T23:10:28Z</time>
      </trkpt>
      <trkpt lat="42.83426" lon="0.23688">
        <ele>2195</ele>
        <time>2016-12-11T23:12:28Z</time>
      </trkpt>
      <trkpt lat="42.83485" lon="0.23734">
        <ele>2184</ele>
        <time>2016-12-11T23:14:28Z</time>
      </trkpt>
      <trkpt lat="42.83393" lon="0.23893">
        <ele>2134</ele>
        <time>2016-12-11T23:16:28Z</time>
      </trkpt>
      <trkpt lat="42.83268" lon="0.24015">
        <ele>2101</ele>
        <time>2016-12-11T23:18:28Z</time>
      </trkpt>
      <trkpt lat="42.83343" lon="0.24077">
        <ele>2075</ele>
        <time>2016-12-11T23:20:28Z</time>
      </trkpt>
      <trkpt lat="42.83374" lon="0.24164">
        <ele>2059</ele>
        <time>2016-12-11T23:22:28Z</time>
      </trkpt>
      <trkpt lat="42.83313" lon="0.24388">
        <ele>1999</ele>
        <time>2016-12-11T23:24:28Z</time>
      </trkpt>
      <trkpt lat="42.83282" lon="0.24484">
        <ele>1980</ele>
        <time>2016-12-11T23:26:28Z</time>
      </trkpt>
      <trkpt lat="42.83227" lon="0.24642">
        <ele>1950</ele>
        <time>2016-12-11T23:28:28Z</time>
      </trkpt>
      <trkpt lat="42.83188" lon="0.24683">
        <ele>1942</ele>
        <time>2016-12-11T23:30:28Z</time>
      </trkpt>
      <trkpt lat="42.83141" lon="0.24709">
        <ele>1935</ele>
        <time>2016-12-11T23:32:28Z</time>
      </trkpt>
      <trkpt lat="42.83062" lon="0.247">
        <ele>1931</ele>
        <time>2016-12-11T23:34:28Z</time>
      </trkpt>
      <trkpt lat="42.83015" lon="0.24689">
        <ele>1932</ele>
        <time>2016-12-11T23:36:28Z</time>
      </trkpt>
      <trkpt lat="42.82977" lon="0.2473">
        <ele>1925</ele>
        <time>2016-12-11T23:38:28Z</time>
      </trkpt>
      <trkpt lat="42.82947" lon="0.24792">
        <ele>1903</ele>
        <time>2016-12-11T23:40:28Z</time>
      </trkpt>
      <trkpt lat="42.82917" lon="0.24867">
        <ele>1881</ele>
        <time>2016-12-11T23:42:28Z</time>
      </trkpt>
      <trkpt lat="42.82871" lon="0.24908">
        <ele>1879</ele>
        <time>2016-12-11T23:44:28Z</time>
      </trkpt>
      <trkpt lat="42.82795" lon="0.24926">
        <ele>1850</ele>
        <time>2016-12-11T23:46:28Z</time>
      </trkpt>
      <trkpt lat="42.82582" lon="0.24848">
        <ele>1855</ele>
        <time>2016-12-11T23:48:28Z</time>
      </trkpt>
      <trkpt lat="42.82551" lon="0.2488">
        <ele>1849</ele>
        <time>2016-12-11T23:50:28Z</time>
      </trkpt>
      <trkpt lat="42.82523" lon="0.25061">
        <ele>1819</ele>
        <time>2016-12-11T23:52:28Z</time>
      </trkpt>
      <trkpt lat="42.82498" lon="0.25172">
        <ele>1809</ele>
        <time>2016-12-11T23:54:28Z</time>
      </trkpt>
      <trkpt lat="42.82462" lon="0.25258">
        <ele>1788</ele>
        <time>2016-12-11T23:56:28Z</time>
      </trkpt>
      <trkpt lat="42.82381" lon="0.25344">
        <ele>1782</ele>
        <time>2016-12-11T23:58:28Z</time>
      </trkpt>
      <trkpt lat="42.82312" lon="0.2552">
        <ele>1769</ele>
        <time>2016-12-12T00:00:28Z</time>
      </trkpt>
      <trkpt lat="42.82334" lon="0.25589">
        <ele>1741</ele>
        <time>2016-12-12T00:02:28Z</time>
      </trkpt>
      <trkpt lat="42.82376" lon="0.25695">
        <ele>1718</ele>
        <time>2016-12-12T00:04:28Z</time>
      </trkpt>
      <trkpt lat="42.82403" lon="0.25822">
        <ele>1697</ele>
        <time>2016-12-12T00:06:28Z</time>
      </trkpt>
      <trkpt lat="42.82373" lon="0.25878">
        <ele>1705</ele>
        <time>2016-12-12T00:08:28Z</time>
      </trkpt>
      <trkpt lat="42.82391" lon="0.26005">
        <ele>1673</ele>
        <time>2016-12-12T00:10:28Z</time>
      </trkpt>
      <trkpt lat="42.82382" lon="0.26103">
        <ele>1668</ele>
        <time>2016-12-12T00:12:28Z</time>
      </trkpt>
      <trkpt lat="42.82383" lon="0.26216">
        <ele>1660</ele>
        <time>2016-12-12T00:14:28Z</time>
      </trkpt>
      <trkpt lat="42.82418" lon="0.2609">
        <ele>1637</ele>
        <time>2016-12-12T00:16:28Z</time>
      </trkpt>
      <trkpt lat="42.82453" lon="0.25942">
        <ele>1636</ele>
        <time>2016-12-12T00:18:28Z</time>
      </trkpt>
      <trkpt lat="42.82525" lon="0.2579">
        <ele>1610</ele>
        <time>2016-12-12T00:20:28Z</time>
      </trkpt>
      <trkpt lat="42.82502" lon="0.25913">
        <ele>1604</ele>
        <time>2016-12-12T00:22:28Z</time>
      </trkpt>
      <trkpt lat="42.825" lon="0.26053">
        <ele>1589</ele>
        <time>2016-12-12T00:24:28Z</time>
      </trkpt>
      <trkpt lat="42.82532" lon="0.26042">
        <ele>1588</ele>
        <time>2016-12-12T00:26:28Z</time>
      </trkpt>
      <trkpt lat="42.82561" lon="0.26057">
        <ele>1584</ele>
        <time>2016-12-12T00:28:28Z</time>
      </trkpt>
      <trkpt lat="42.82573" lon="0.26219">
        <ele>1568</ele>
        <time>2016-12-12T00:30:28Z</time>
      </trkpt>
      <trkpt lat="42.82577" lon="0.2646">
        <ele>1545</ele>
        <time>2016-12-12T00:32:28Z</time>
      </trkpt>
      <trkpt lat="42.82589" lon="0.26593">
        <ele>1537</ele>
        <time>2016-12-12T00:34:28Z</time>
      </trkpt>
      <trkpt lat="42.82579" lon="0.26646">
        <ele>1532</ele>
        <time>2016-12-12T00:36:28Z</time>
      </trkpt>
      <trkpt lat="42.82581" lon="0.2674">
        <ele>1520</ele>
        <time>2016-12-12T00:38:28Z</time>
      </trkpt>
      <trkpt lat="42.826" lon="0.26804">
        <ele>1521</ele>
        <time>2016-12-12T00:40:28Z</time>
      </trkpt>
      <trkpt lat="42.8262" lon="0.26922">
        <ele>1507</ele>
        <time>2016-12-12T00:42:28Z</time>
      </trkpt>
      <trkpt lat="42.82617" lon="0.26977">
        <ele>1505</ele>
        <time>2016-12-12T00:44:28Z</time>
      </trkpt>
      <trkpt lat="42.82582" lon="0.26938">
        <ele>1503</ele>
        <time>2016-12-12T00:46:28Z</time>
      </trkpt>
      <trkpt lat="42.82567" lon="0.26957">
        <ele>1505</ele>
        <time>2016-12-12T00:48:28Z</time>
      </trkpt>
      <trkpt lat="42.82567" lon="0.27092">
        <ele>1490</ele>
        <time>2016-12-12T00:50:28Z</time>
      </trkpt>
      <trkpt lat="42.82508" lon="0.27182">
        <ele>1494</ele>
        <time>2016-12-12T00:52:28Z</time>
      </trkpt>
      <trkpt lat="42.82494" lon="0.27506">
        <ele>1498</ele>
        <time>2016-12-12T00:54:28Z</time>
      </trkpt>
      <trkpt lat="42.82494" lon="0.27625">
        <ele>1500</ele>
        <time>2016-12-12T00:56:28Z</time>
      </trkpt>
      <trkpt lat="42.82435" lon="0.28054">
        <ele>1482</ele>
        <time>2016-12-12T00:58:28Z</time>
      </trkpt>
      <trkpt lat="42.82438" lon="0.28186">
        <ele>1467</ele>
        <time>2016-12-12T01:00:28Z</time>
      </trkpt>
      <trkpt lat="42.82403" lon="0.28248">
        <ele>1492</ele>
        <time>2016-12-12T01:02:28Z</time>
      </trkpt>
      <trkpt lat="42.82397" lon="0.28395">
        <ele>1475</ele>
        <time>2016-12-12T01:04:28Z</time>
      </trkpt>
      <trkpt lat="42.8235" lon="0.28518">
        <ele>1460</ele>
        <time>2016-12-12T01:06:28Z</time>
      </trkpt>
      <trkpt lat="42.82333" lon="0.28586">
        <ele>1456</ele>
        <time>2016-12-12T01:08:28Z</time>
      </trkpt>
      <trkpt lat="42.82398" lon="0.28675">
        <ele>1415</ele>
        <time>2016-12-12T01:10:28Z</time>
      </trkpt>
      <trkpt lat="42.82434" lon="0.28918">
        <ele>1370</ele>
        <time>2016-12-12T01:12:28Z</time>
      </trkpt>
      <trkpt lat="42.82526" lon="0.29424">
        <ele>1308</ele>
        <time>2016-12-12T01:14:28Z</time>
      </trkpt>
      <trkpt lat="42.82504" lon="0.29463">
        <ele>1307</ele>
        <time>2016-12-12T01:16:28Z</time>
      </trkpt>
      <trkpt lat="42.82482" lon="0.2953">
        <ele>1300</ele>
        <time>2016-12-12T01:18:28Z</time>
      </trkpt>
      <trkpt lat="42.82454" lon="0.2952">
        <ele>1299</ele>
        <time>2016-12-12T01:20:28Z</time>
      </trkpt>
      <trkpt lat="42.82435" lon="0.29528">
        <ele>1299</ele>
        <time>2016-12-12T01:22:28Z</time>
      </trkpt>
      <trkpt lat="42.82449" lon="0.29705">
        <ele>1281</ele>
        <time>2016-12-12T01:24:28Z</time>
      </trkpt>
      <trkpt lat="42.82447" lon="0.29833">
        <ele>1268</ele>
        <time>2016-12-12T01:26:28Z</time>
      </trkpt>
      <trkpt lat="42.82424" lon="0.29932">
        <ele>1252</ele>
        <time>2016-12-12T01:28:28Z</time>
      </trkpt>
      <trkpt lat="42.82379" lon="0.30019">
        <ele>1244</ele>
        <time>2016-12-12T01:30:28Z</time>
      </trkpt>
      <trkpt lat="42.82381" lon="0.30134">
        <ele>1232</ele>
        <time>2016-12-12T01:32:28Z</time>
      </trkpt>
      <trkpt lat="42.82403" lon="0.30247">
        <ele>1216</ele>
        <time>2016-12-12T01:34:28Z</time>
      </trkpt>
      <trkpt lat="42.82395" lon="0.30441">
        <ele>1181</ele>
        <time>2016-12-12T01:36:28Z</time>
      </trkpt>
      <trkpt lat="42.82444" lon="0.30529">
        <ele>1164</ele>
        <time>2016-12-12T01:38:28Z</time>
      </trkpt>
      <trkpt lat="42.82518" lon="0.30608">
        <ele>1152</ele>
        <time>2016-12-12T01:40:28Z</time>
      </trkpt>
      <trkpt lat="42.82569" lon="0.30627">
        <ele>1150</ele>
        <time>2016-12-12T01:42:28Z</time>
      </trkpt>
      <trkpt lat="42.82642" lon="0.30558">
        <ele>1155</ele>
        <time>2016-12-12T01:44:28Z</time>
      </trkpt>
      <trkpt lat="42.82566" lon="0.30705">
        <ele>1121</ele>
        <time>2016-12-12T01:46:28Z</time>
      </trkpt>
      <trkpt lat="42.82643" lon="0.30654">
        <ele>1127</ele>
        <time>2016-12-12T01:48:28Z</time>
      </trkpt>
      <trkpt lat="42.82558" lon="0.30776">
        <ele>1092</ele>
        <time>2016-12-12T01:50:28Z</time>
      </trkpt>
      <trkpt lat="42.8271" lon="0.30672">
        <ele>1081</ele>
        <time>2016-12-12T01:52:28Z</time>
      </trkpt>
      <trkpt lat="42.8281" lon="0.30514">
        <ele>1072</ele>
        <time>2016-12-12T01:54:28Z</time>
      </trkpt>
      <trkpt lat="42.82813" lon="0.30659">
        <ele>1050</ele>
        <time>2016-12-12T01:56:28Z</time>
      </trkpt>
      <trkpt lat="42.82803" lon="0.30837">
        <ele>1009</ele>
        <time>2016-12-12T01:58:28Z</time>
      </trkpt>
      <trkpt lat="42.82772" lon="0.30978">
        <ele>989</ele>
        <time>2016-12-12T02:00:28Z</time>
      </trkpt>
      <trkpt lat="42.82743" lon="0.31092">
        <ele>964</ele>
        <time>2016-12-12T02:02:28Z</time>
      </trkpt>
      <trkpt lat="42.82742" lon="0.31187">
        <ele>942</ele>
        <time>2016-12-12T02:04:28Z</time>
      </trkpt>
      <trkpt lat="42.82622" lon="0.31255">
        <ele>919</ele>
        <time>2016-12-12T02:06:28Z</time>
      </trkpt>
      <trkpt lat="42.82543" lon="0.31329">
        <ele>902</ele>
        <time>2016-12-12T02:08:28Z</time>
      </trkpt>
      <trkpt lat="42.82488" lon="0.31372">
        <ele>871</ele>
        <time>2016-12-12T02:10:28Z</time>
      </trkpt>
      <trkpt lat="42.82418" lon="0.31393">
        <ele>863</ele>
        <time>2016-12-12T02:12:28Z</time>
      </trkpt>
      <trkpt lat="42.82366" lon="0.31395">
        <ele>861</ele>
        <time>2016-12-12T02:14:28Z</time>
      </trkpt>
      <trkpt lat="42.82341" lon="0.315">
        <ele>832</ele>
        <time>2016-12-12T02:16:28Z</time>
      </trkpt>
      <trkpt lat="42.82356" lon="0.31617">
        <ele>823</ele>
        <time>2016-12-12T02:18:28Z</time>
      </trkpt>
      <trkpt lat="42.82423" lon="0.31655">
        <ele>821</ele>
        <time>2016-12-12T02:20:28Z</time>
      </trkpt>
      <trkpt lat="42.82477" lon="0.31712">
        <ele>821</ele>
        <time>2016-12-12T02:22:28Z</time>
      </trkpt>
      <trkpt lat="42.82571" lon="0.31785">
        <ele>821</ele>
        <time>2016-12-12T02:24:28Z</time>
      </trkpt>
      <trkpt lat="42.82562" lon="0.31862">
        <ele>817</ele>
        <time>2016-12-12T02:26:28Z</time>
      </trkpt>
      <trkpt lat="42.82521" lon="0.31973">
        <ele>812</ele>
        <time>2016-12-12T02:28:28Z</time>
      </trkpt>
      <trkpt lat="42.8246" lon="0.32109">
        <ele>806</ele>
        <time>2016-12-12T02:30:28Z</time>
      </trkpt>
      <trkpt lat="42.82367" lon="0.32298">
        <ele>806</ele>
        <time>2016-12-12T02:32:28Z</time>
      </trkpt>
      <trkpt lat="42.82518" lon="0.32444">
        <ele>802</ele>
        <time>2016-12-12T02:34:28Z</time>
      </trkpt>
      <trkpt lat="42.82568" lon="0.32592">
        <ele>800</ele>
        <time>2016-12-12T02:36:28Z</time>
      </trkpt>
      <trkpt lat="42.82634" lon="0.32685">
        <ele>800</ele>
        <time>2016-12-12T02:38:28Z</time>
      </trkpt>
      <trkpt lat="42.82782" lon="0.32748">
        <ele>797</ele>
        <time>2016-12-12T02:40:28Z</time>
      </trkpt>
      <trkpt lat="42.82956" lon="0.32843">
        <ele>793</ele>
        <time>2016-12-12T02:42:28Z</time>
      </trkpt>
      <trkpt lat="42.82978" lon="0.32723">
        <ele>794</ele>
        <time>2016-12-12T02:44:28Z</time>
      </trkpt>
    </trkseg>
  </trk>
</gpx>